[[{"header":{"parameterUnit":"m.s-1","parameterCategory":1,"la1":30.6,"la2":29.2853,"lo1":-89.7004,"lo2":-87.6739,"dy":0.0162,"dx":0.0183,"nx":112,"ny":82,"refTime":"2024-09-07T18:00:00:Z","depth":0,"parameterNumber":2,"parameterNumberName":"U-component_of_WINDS"},"data":[0.0,0.0,0.0,0.0,0.0,0.0,0.0,0.0,0.0,0.0,0.0,0.0,0.0,0.0,0.0,0.0,0.0,0.0,0.0,0.0,0.0,0.0,0.0,0.0,0.0,0.0,0.0,0.0,0.0,0.0,0.0,0.0,0.0,0.0,0.0,0.0,0.0,0.0,0.0,0.0,0.0,0.0,0.0,0.0,0.0,0.0,0.0,0.0,0.0,0.0,0.0,0.0,0.0,0.0,0.0,0.0,0.0,0.0,0.0,0.0,0.0,0.0,0.0,0.0,0.0,0.0,0.0,0.0,0.0,0.0,0.0,0.0,0.0,0.0,0.0,0.0,0.0,0.0,0.0,0.0,0.0,0.0,0.0,0.0,0.0,0.0,0.0,0.0,0.0,0.0,0.8304,0.9068,1.0069,1.0684,1.0684,1.0561,0.9971,0.8818,0.0,0.0,0.0,0.0,0.0,0.0,0.0,0.0,0.0,0.0,0.0,0.0,0.0,0.0,0.0,0.0,0.0,0.0,0.0,0.0,0.0,0.0,0.0,0.0,0.0,0.0,0.0,0.0,0.0,0.0,0.0,0.0,0.0,0.0,0.0,0.0,0.0,0.0,0.0,0.0,0.0,0.0,0.0,0.0,0.0,0.0,0.0,0.0,0.0,0.0,0.0,0.0,0.0,0.0,0.0,0.0,0.0,0.0,0.0,0.0,0.0,0.0,0.0,0.0,0.0,0.0,0.0,0.0,0.0,0.0,0.0,0.0,0.0,0.0,0.0,0.0,0.0,0.0,0.0,0.0,0.0,0.0,0.0,0.0,0.0,0.0,0.0,0.0,0.0,0.0,0.0,0.0,0.0,0.0,0.0,0.0,0.0,0.0,0.0,0.0,0.0,0.0,0.0,0.0,0.8581,1.0093,1.0534,1.0684,1.0684,1.0473,0.991,0.8933,0.0,0.0,0.0,0.0,0.0,0.0,0.0,0.0,0.0,0.0,0.0,0.0,0.0,0.0,0.0,0.0,0.0,0.0,0.0,0.0,0.0,0.0,0.0,0.0,0.0,0.0,0.0,0.0,0.0,0.0,0.0,0.0,0.0,0.0,0.0,0.0,0.0,0.0,0.0,0.0,0.0,0.0,0.0,0.0,0.0,0.0,0.0,0.0,0.0,0.0,0.0,0.0,0.0,0.0,0.0,0.0,0.0,0.0,0.0,0.0,0.0,0.0,0.0,0.0,0.0,0.0,0.0,0.0,0.0,0.0,0.0,0.0,0.0,0.0,0.0,0.0,0.0,0.0,0.0,0.0,0.0,0.0,0.0,0.0,0.0,0.0,0.0,0.0,0.0,0.0,0.0,0.0,0.0,0.0,0.0,0.0,0.0,0.0,0.0,0.0,0.0,0.0,0.0,0.8289,0.9034,1.0466,1.0644,1.0684,1.0684,1.0446,0.9863,0.8852,0.7871,0.0,0.0,0.0,0.0,0.0,0.0,0.0,0.0,0.0,0.0,0.0,0.0,0.0,0.0,0.0,0.0,0.0,0.0,0.0,0.0,0.0,0.0,0.0,0.0,0.0,0.0,0.0,0.0,0.0,0.0,0.0,0.0,0.0,0.0,0.0,0.0,0.0,0.0,0.0,0.0,0.0,0.0,0.0,0.0,0.0,0.0,0.0,0.0,0.0,0.0,0.0,0.0,0.0,0.0,0.0,0.0,0.0,0.0,0.0,0.0,0.0,0.0,0.0,0.0,0.0,0.0,0.0,0.0,0.0,0.0,0.0,0.0,0.0,0.0,0.0,0.0,0.0,0.0,0.0,0.0,0.0,0.0,0.0,0.0,0.0,0.0,0.0,0.0,0.0,0.0,0.0,0.0,0.0,0.0,0.0,0.0,0.0,0.0,0.0,0.0,0.0,0.0,0.9191,0.9562,1.0576,1.0684,1.0684,1.0684,1.029,0.9669,0.8764,0.7533,0.0,0.0,0.0,0.0,0.0,0.0,0.0,0.0,0.0,0.0,0.0,0.0,0.0,0.0,0.0,0.0,0.0,0.0,0.0,0.0,0.0,0.0,0.0,0.0,0.0,0.0,0.0,0.0,0.0,0.0,0.0,0.0,0.0,0.0,0.0,0.0,0.0,0.0,0.0,0.0,0.0,0.0,0.0,0.0,0.0,0.0,0.0,0.0,0.0,0.0,0.0,0.0,0.0,0.0,0.0,0.0,0.0,0.0,0.0,0.0,0.0,0.0,0.0,0.0,0.0,0.0,0.0,0.0,0.0,0.0,0.0,0.0,0.0,0.0,0.0,0.0,0.0,0.0,0.0,0.0,0.0,0.0,0.0,0.0,0.0,0.0,0.0,0.0,0.0,0.0,0.0,0.0,0.0,0.0,0.0,0.0,0.0,0.0,0.0,0.0,0.0,0.0,0.941,1.0199,1.0637,1.0684,1.0684,1.0684,0.9839,0.9111,0.873,0.7053,0.0,0.0,0.0,0.0,0.0,0.0,0.0,0.0,0.0,0.0,0.0,0.0,0.0,0.0,0.0,0.0,0.0,0.0,0.0,0.0,0.0,0.0,0.0,0.0,0.0,0.0,0.0,0.0,0.0,0.0,0.0,0.0,0.0,0.0,0.0,0.0,0.0,0.0,0.0,0.0,0.0,0.0,0.0,0.0,0.0,0.0,0.0,0.0,0.0,0.0,0.0,0.0,0.0,0.0,0.0,0.0,0.0,0.0,0.0,0.0,0.0,0.0,0.0,0.0,0.0,0.0,0.0,0.0,0.0,0.0,0.0,0.0,0.0,0.0,0.0,0.0,0.0,0.0,0.0,0.0,0.0,0.0,0.0,0.0,0.0,0.0,0.0,0.0,0.0,0.0,0.0,0.0,0.0,0.0,0.0,0.0,0.0,0.0,0.0,0.0,0.0,0.0,0.9186,0.9941,1.0643,1.0684,1.0684,1.0684,1.0069,0.9347,0.8492,0.0,0.0,0.0,0.0,0.0,0.0,0.0,0.0,0.0,0.0,0.0,0.0,0.0,0.0,0.0,0.0,0.0,0.0,0.0,0.0,0.0,0.0,0.0,0.0,0.0,0.0,0.0,0.0,0.0,0.0,0.0,0.0,0.0,0.0,0.0,0.0,0.0,0.0,0.0,0.0,0.0,0.0,0.0,0.0,0.0,0.0,0.0,0.0,0.0,0.0,0.0,0.0,0.0,0.0,0.0,0.0,0.0,0.0,0.0,0.0,0.0,0.0,0.0,0.0,0.0,0.0,0.0,0.0,0.0,0.0,0.0,0.0,0.0,0.0,0.0,0.0,0.0,0.0,0.0,0.0,0.0,0.0,0.0,0.0,0.0,0.0,0.0,0.0,0.0,0.0,0.0,0.0,0.0,0.0,0.0,0.0,0.0,0.0,0.0,0.0,0.0,0.0,0.8342,0.9206,0.9937,1.0643,1.0684,1.0684,1.0684,1.0062,0.9257,0.8355,0.0,0.0,0.0,0.0,0.0,0.0,0.0,0.0,0.0,0.0,0.0,0.0,0.0,0.0,0.0,0.0,0.0,0.0,0.0,0.0,0.0,0.0,0.0,0.0,0.0,0.0,0.0,0.0,0.0,0.0,0.0,0.0,0.0,0.0,0.0,0.0,0.0,0.0,0.0,0.0,0.0,0.0,0.0,0.0,0.0,0.0,0.0,0.0,0.0,0.0,0.0,0.0,0.0,0.0,0.0,0.0,0.0,0.0,0.0,0.0,0.0,0.0,0.0,0.0,0.0,0.0,0.0,0.0,0.0,0.0,0.0,0.0,0.0,0.0,0.0,0.0,0.0,0.0,0.0,0.0,0.0,0.0,0.0,0.0,0.0,0.0,0.0,0.0,0.0,0.0,0.0,0.0,0.0,0.0,0.0,0.0,0.0,0.0,0.0,0.0,0.0,0.0,0.8389,0.9567,1.0392,1.0657,1.0684,1.0684,1.0684,0.9602,0.873,0.0,0.0,0.0,0.0,0.0,0.0,0.0,0.0,0.0,0.0,0.0,0.0,0.0,0.0,0.0,0.0,0.0,0.0,0.0,0.0,0.0,0.0,0.0,0.0,0.0,0.0,0.0,0.0,0.0,0.0,0.0,0.0,0.0,0.0,0.0,0.0,0.0,0.0,0.0,0.0,0.0,0.0,0.0,0.0,0.0,0.0,0.0,0.0,0.0,0.0,0.0,0.0,0.0,0.0,0.0,0.0,0.0,0.0,0.0,0.0,0.0,0.0,0.0,0.0,0.0,0.0,0.0,0.0,0.0,0.0,0.0,0.0,0.0,0.0,0.0,0.0,0.0,0.0,0.0,0.0,0.0,0.0,0.0,0.0,0.0,0.0,0.0,0.0,0.0,0.0,0.0,0.0,0.0,0.0,0.0,0.0,0.0,0.0,0.0,0.0,0.0,0.0,0.0,0.8389,0.9567,1.0392,1.0657,1.0684,1.0684,1.0684,0.9974,0.9191,0.8349,0.0,0.0,0.0,0.0,0.0,0.0,0.0,0.0,0.0,0.0,0.0,0.0,0.0,0.0,0.0,0.0,0.0,0.0,0.0,0.0,0.0,0.0,0.0,0.0,0.0,0.0,0.0,0.0,0.0,0.0,0.0,0.0,0.0,0.0,0.0,0.0,0.0,0.0,0.0,0.0,0.0,0.0,0.0,0.0,0.0,0.0,0.0,0.0,0.0,0.0,0.0,0.0,0.0,0.0,0.0,0.0,0.0,0.0,0.0,0.0,0.0,0.0,0.0,0.0,0.0,0.0,0.0,0.0,0.0,0.0,0.0,0.0,0.0,0.0,0.0,0.0,0.0,0.0,0.0,0.0,0.0,0.0,0.0,0.0,0.0,0.0,0.0,0.0,0.0,0.0,0.0,0.0,0.0,0.0,0.0,0.0,0.0,0.0,0.0,0.0,0.0,0.0,0.8452,0.9571,1.0392,1.0657,1.0684,1.0684,1.0684,1.0191,0.946,0.8506,0.0,0.0,0.0,0.0,0.0,0.0,0.0,0.0,0.0,0.0,0.0,0.0,0.0,0.0,0.0,0.0,0.0,0.0,0.0,0.0,0.0,0.0,0.0,0.0,0.0,0.0,0.0,0.0,0.0,0.0,0.0,0.0,0.0,0.0,0.0,0.0,0.0,0.0,0.0,0.0,0.0,0.0,0.0,0.0,0.0,0.0,0.0,0.0,0.0,0.0,0.0,0.0,0.0,0.0,0.0,0.0,0.0,0.0,0.0,0.0,0.0,0.0,0.0,0.0,0.0,0.0,0.0,0.0,0.0,0.0,0.0,0.0,0.0,0.0,0.0,0.0,0.0,0.0,0.0,0.0,0.0,0.0,0.0,0.0,0.0,0.0,0.0,0.0,0.0,0.0,0.0,0.0,0.0,0.0,0.0,0.0,0.0,0.0,0.0,0.0,0.0,0.0,0.8574,0.9639,1.0405,1.0657,1.0684,1.0684,1.0684,1.0292,0.9663,0.8804,0.0,0.0,0.0,0.0,0.0,0.0,0.0,0.0,0.0,0.0,0.0,0.0,0.0,0.0,0.0,0.0,0.0,0.0,0.0,0.0,0.0,0.0,0.0,0.0,0.0,0.0,0.0,0.0,0.0,0.0,0.0,0.0,0.0,0.0,0.0,0.0,0.0,0.0,0.0,0.0,0.0,0.0,0.0,0.0,0.0,0.0,0.0,0.0,0.0,0.0,0.0,0.0,0.0,0.0,0.0,0.0,0.0,0.0,0.0,0.0,0.9673,0.9679,0.0,0.0,0.0,0.0,0.0,0.0,0.0,0.0,0.0,0.0,0.0,0.0,0.0,0.0,0.0,0.0,0.0,0.0,0.0,0.0,0.0,0.0,0.0,0.0,0.0,0.0,0.0,0.0,0.0,0.0,0.0,0.0,0.0,0.0,0.0,0.0,0.0,0.0,0.0,0.0,0.8587,0.9727,1.0514,1.0671,1.0684,1.0684,1.0684,1.0419,0.9897,0.9138,0.8296,0.0,0.0,0.0,0.0,0.0,0.0,0.0,0.0,0.0,0.0,0.0,0.0,0.0,0.0,0.0,0.0,0.0,0.0,0.0,0.0,0.0,0.0,0.0,0.0,0.0,0.0,0.0,0.0,0.0,0.0,0.0,0.0,0.0,0.0,0.0,0.0,0.0,0.0,0.0,0.0,0.0,0.0,0.0,0.0,0.0,0.0,0.0,0.0,0.0,0.0,0.0,0.0,0.0,0.0,0.0,0.0,0.0,0.0,0.0,1.0662,1.0457,0.0,0.0,0.0,0.0,0.0,0.0,0.0,0.0,0.0,0.0,0.0,0.0,0.0,0.0,0.0,0.0,0.0,0.0,0.0,0.0,0.0,0.0,0.0,0.0,0.0,0.0,0.0,0.0,0.0,0.0,0.0,0.0,0.0,0.0,0.0,0.0,0.0,0.0,0.0,0.0,0.8839,0.9842,1.0548,1.0704,1.0684,1.0684,1.0684,1.0514,1.0154,0.9618,0.8858,0.0,0.0,0.0,0.0,0.0,0.0,0.0,0.0,0.0,0.0,0.0,0.0,0.0,0.0,0.0,0.0,0.0,0.0,0.0,0.0,0.0,0.0,0.0,0.0,0.0,0.0,0.0,0.0,0.0,0.0,0.0,0.0,0.0,0.0,0.0,0.0,0.0,0.0,0.0,0.0,0.0,0.0,0.0,0.0,0.0,0.0,0.0,0.0,0.0,0.0,0.0,0.0,0.0,1.0538,1.0405,1.0662,1.0656,1.0799,1.1084,1.2023,1.1457,0.9937,1.0247,0.0,0.0,0.0,0.0,0.0,0.0,0.0,0.0,0.0,0.0,0.0,0.0,0.0,0.0,0.0,0.0,0.0,0.0,0.0,0.0,0.0,0.0,0.9028,0.9503,0.9506,0.9022,0.7744,0.0,0.0,0.0,0.0,0.0,0.0,0.0,0.0,0.0,0.0,0.0,0.9152,1.0022,1.0582,1.0704,1.0684,1.0684,1.0684,1.0602,1.0405,1.0076,0.946,0.8858,0.0,0.0,0.0,0.0,0.0,0.0,0.0,0.0,0.0,0.0,0.0,0.0,0.0,0.0,0.0,0.0,0.0,0.0,0.0,0.0,0.0,0.0,0.0,0.0,0.0,0.0,0.0,0.0,0.0,0.0,0.0,0.0,0.7555,0.8681,0.0,0.0,0.0,0.0,0.0,0.0,0.0,0.0,0.0,0.0,0.0,0.0,0.0,1.003,1.0594,1.1205,1.1455,1.1365,1.1903,1.2108,1.2026,1.2155,1.223,1.2257,1.2414,0.0,1.0385,1.0329,0.0,0.0,0.0,0.0,0.0,0.0,0.0,0.0,0.0,0.0,0.0,0.0,0.0,0.0,0.0,0.0,0.0,0.0,0.0,0.0,0.0,0.0,1.0576,1.0555,0.9479,0.8324,0.784,0.8077,0.8208,0.7678,0.74,0.711,0.0,0.0,0.0,0.0,0.0,0.0,0.9449,1.0215,1.0664,1.0684,1.0684,1.0684,1.0684,1.0671,1.0561,1.027,1.0063,0.9784,0.9415,0.8615,0.0,0.0,0.0,0.0,0.0,0.0,0.0,0.0,0.0,0.0,0.0,0.0,0.0,0.0,0.0,0.0,0.0,0.0,0.0,0.0,0.0,0.0,0.0,0.0,0.0,0.0,0.0,0.0,0.0,0.683,0.7811,0.8328,0.8105,0.7716,0.0,0.0,0.0,0.0,0.0,0.0,0.0,0.0,0.0,1.039,1.0677,1.105,1.1497,1.1911,1.2121,1.2149,1.2562,1.2805,1.2826,1.2887,1.2881,1.2874,1.2793,1.2372,1.1708,1.1138,1.0614,1.0063,0.0,0.0,0.0,0.0,0.9462,0.9598,1.0154,1.0229,1.0032,0.9713,0.0,0.0,0.0,0.0,0.0,0.0,0.0,0.6054,0.6541,0.7163,0.7679,0.7814,0.7309,0.6749,0.6603,0.6664,0.6505,0.5702,0.6405,0.6809,0.5842,0.5078,0.0,0.0,0.0,0.8129,0.9637,1.0333,1.0684,1.0684,1.0684,1.0684,1.0684,1.0684,1.0663,1.0534,1.0385,1.0233,0.9992,0.9442,0.8838,0.0,0.0,0.0,0.0,0.0,0.0,0.0,0.0,0.0,0.0,0.0,0.0,0.0,0.0,0.0,0.0,0.0,0.0,0.0,0.0,0.0,0.0,0.0,0.0,0.0,0.0,0.0,0.0,0.7577,0.8344,0.8304,0.8594,0.8546,0.0,0.0,0.0,0.0,0.0,0.0,0.9876,1.0317,1.0873,1.1545,1.1857,1.2216,1.263,1.2773,1.2862,1.2977,1.3132,1.3241,1.3342,1.2716,1.2462,1.2415,1.1699,1.1294,1.1193,1.1543,1.1565,1.137,1.0704,1.0522,1.0643,1.0785,1.086,1.0907,1.0924,1.0784,1.0486,0.9587,0.9075,0.8646,0.7929,0.0,0.0,0.0,0.0,0.4221,0.4787,0.5083,0.5285,0.5586,0.5259,0.4902,0.4902,0.4817,0.4581,0.4207,0.5349,0.6047,0.4968,0.4013,0.0,0.6743,0.666,0.6905,0.854,0.911,0.9344,0.9344,0.9344,0.9344,0.9344,0.9742,1.0014,1.0014,1.0346,1.05,1.0399,1.01,0.9585,0.8838,0.0,0.0,0.0,0.0,0.0,0.0,0.0,0.0,0.0,0.0,0.0,0.0,0.0,0.0,0.0,0.0,0.0,0.0,0.0,0.0,0.0,0.0,0.0,0.0,0.0,0.0,0.0,0.0,0.0,0.9145,0.9771,0.0,0.0,0.0,0.0,0.9677,1.038,1.0934,1.1274,1.1751,1.2176,1.2598,1.2942,1.3247,1.3518,1.366,1.3734,1.3741,1.3747,1.3754,1.3676,1.147,1.0436,1.0307,0.8023,0.6992,0.7267,1.0922,1.2277,1.2036,1.1816,1.1624,1.1536,1.1671,1.1857,1.1726,0.9729,0.902,0.8668,0.6701,0.5647,0.5137,0.5115,0.4705,0.0,0.0,0.4753,0.4944,0.5434,0.5554,0.5596,0.5748,0.439,0.305,0.305,0.2912,0.3284,0.4751,0.501,0.4893,0.4571,0.0,0.4267,0.4626,0.4768,0.4943,0.5317,0.5543,0.5663,0.5663,0.5663,0.5663,0.5663,0.7198,0.813,0.813,0.9736,1.0704,1.0664,1.0412,1.01,0.9731,0.8757,0.0,0.0,0.0,0.0,0.0,0.0,0.0,0.0,0.0,0.0,0.0,0.0,0.0,0.0,0.0,0.0,0.0,0.0,0.0,0.0,0.0,0.0,0.0,0.0,0.0,0.0,0.0,0.0,1.0029,1.054,0.0,1.0103,1.0534,1.0873,1.0934,1.1543,1.1395,1.0169,1.0459,1.0017,0.8765,0.8899,0.9045,0.9164,0.9196,0.9214,0.9214,0.9321,0.9348,0.9348,0.8474,0.8126,0.8082,0.7118,0.6696,0.6791,0.8215,0.8657,0.849,0.8307,0.8249,0.8183,0.8258,0.8294,0.8247,0.7496,0.722,0.7087,0.6203,0.5735,0.5238,0.4,0.3507,0.3133,0.1985,0.1708,0.1794,0.1951,0.1983,0.2012,0.204,0.153,0.102,0.102,0.098,0.1119,0.1715,0.273,0.3367,0.2967,0.2112,0.2216,0.4328,0.3939,0.3858,0.5122,0.5345,0.5396,0.5396,0.5396,0.5396,0.5396,0.5964,0.634,0.6312,0.6938,0.7304,0.7303,0.7194,0.6997,0.6659,0.6135,0.5841,0.0,0.0,0.0,0.0,0.0,0.0,0.0,0.0,0.0,0.0,0.0,0.0,0.0,0.0,0.0,0.0,0.0,0.0,0.0,0.0,0.0,0.0,0.0,0.0,0.0,0.9707,1.0447,1.0629,1.1219,1.1477,1.1097,1.0868,1.0798,1.0981,1.0649,0.99,0.8564,0.865,0.8086,0.6669,0.6719,0.6802,0.6825,0.6825,0.6825,0.6828,0.6916,0.6983,0.6939,0.6145,0.5792,0.5745,0.4832,0.4459,0.4444,0.4444,0.4379,0.444,0.5858,0.6447,0.6423,0.6423,0.6448,0.6343,0.5547,0.4781,0.4139,0.4036,0.3923,0.3585,0.231,0.1939,0.1643,0.038,0.0,0.0,0.0,0.0,0.0,0.0,0.0,0.0,0.0,0.0,0.0,0.0,0.097,0.1687,0.1363,0.0589,0.0696,0.28,0.2375,0.2233,0.342,0.3582,0.3575,0.3591,0.3588,0.3588,0.3588,0.4139,0.4486,0.4499,0.5076,0.5415,0.5397,0.5407,0.5277,0.4978,0.4554,0.4371,0.4426,0.0,0.0,0.0,0.0,0.0,0.0,0.0,0.0,0.0,0.0,0.0,0.0,0.0,0.0,0.0,0.0,0.0,0.0,0.0,0.0,0.0,0.0,0.0,0.965,1.0482,1.1055,1.0893,1.1727,1.2136,1.1673,1.0236,0.9413,0.9706,0.7708,0.6554,0.6586,0.6589,0.6618,0.6683,0.6686,0.6763,0.6879,0.6879,0.6879,0.6879,0.6879,0.6879,0.6793,0.4517,0.349,0.3356,0.1031,0.0,0.0,0.0,0.0,0.0435,0.481,0.6498,0.6476,0.6476,0.6473,0.6192,0.3976,0.1792,0.0,0.0,0.0,0.0,0.0,0.0,0.0,0.0,0.0,0.0,0.0,0.0,0.0,0.0,0.0,0.0,0.0,0.0,0.0,0.0,0.0,0.0,0.0,0.0,0.0,0.0,0.0,0.0,0.0,0.0,0.0,0.0,0.0,0.0,0.0,0.1592,0.2611,0.2612,0.4272,0.523,0.5227,0.524,0.515,0.4943,0.4285,0.3628,0.3066,0.0,0.0,0.0,0.0,0.0,0.0,0.0,0.0,0.0,0.0,0.0,0.0,0.0,0.0,0.0,0.0,0.0,0.0,0.0,0.0,0.0,0.771,0.8923,1.0518,1.0054,0.9634,0.9936,0.8895,0.8148,0.8103,0.7711,0.7525,0.767,0.7136,0.6089,0.452,0.4436,0.3687,0.1963,0.1918,0.1921,0.1971,0.1971,0.1971,0.1971,0.1971,0.1971,0.1926,0.13,0.0987,0.0942,0.0269,0.0,0.0,0.0,0.0,0.0133,0.1355,0.1863,0.1856,0.1842,0.1825,0.1764,0.1131,0.0498,0.0,0.0,0.0,0.0,0.0,0.0,0.0,0.0,0.0,0.0,0.0,0.0,0.0,0.0,0.0,0.0,0.0,0.0,0.0,0.0,0.0,0.0,0.0,0.0,0.0,0.0,0.0,0.0,0.0,0.0,0.0,0.0,0.0,0.0,0.0,0.0469,0.0727,0.074,0.1211,0.1483,0.1498,0.1486,0.1458,0.1415,0.205,0.2283,0.0,0.0,0.0,0.0,0.0,0.0,0.0,0.0,0.0,0.0,0.0,0.0,0.0,0.0,0.0,0.0,0.0,0.0,0.0,0.0,0.0,0.0,0.7868,0.8623,0.9065,0.8384,0.7916,0.8281,0.7296,0.6633,0.6792,0.5885,0.5386,0.5488,0.4564,0.3467,0.2149,0.2106,0.1434,0.0045,0.0,0.0,0.0,0.0,0.0,0.0,0.0,0.0,0.0,0.0,0.0,0.0,0.0,0.0,0.0,0.0,0.0,0.0,0.0,0.0,0.0,0.0,0.0,0.0,0.0,0.0,0.0,0.0,0.0,0.0,0.0,0.0,0.0,0.0,0.0,0.0,0.0,0.0,0.0,0.0,0.0,0.0,0.0,0.0,0.0,0.0,0.0,0.0,0.0,0.0,0.0,0.0,0.0,0.0,0.0,0.0,0.0,0.0,0.0,0.0,0.0,0.0,0.0,0.0,0.0,0.0,0.0,0.0,0.0,0.0,0.0,0.0,0.0,0.1722,0.0,0.0,0.3249,0.3537,0.0,0.0,0.0,0.0,0.0,0.0,0.0,0.0,0.0,0.0,0.0,0.0,0.0,0.0,0.0,0.0,0.8092,0.7958,0.5879,0.5608,0.5716,0.6105,0.6046,0.5975,0.6118,0.4234,0.3057,0.3176,0.1211,0.0,0.0,0.0,0.0,0.0,0.0,0.0,0.0,0.0,0.0,0.0,0.0,0.0,0.0,0.0,0.0,0.0,0.0,0.0,0.0,0.0,0.0,0.0,0.0,0.0,0.0,0.0,0.0,0.0,0.0,0.0,0.0,0.0,0.0,0.0,0.0,0.0,0.0,0.0,0.0,0.0,0.0,0.0,0.0,0.0,0.0,0.0,0.0,0.0,0.0,0.0,0.0,0.0,0.0,0.0,0.0,0.0,0.0,0.0,0.0,0.0,0.0,0.0,0.0,0.0,0.0,0.0,0.0,0.0,0.0,0.0,0.0,0.0,0.0,0.0,0.0,0.0,0.0,0.0,0.0,0.0075,0.2436,0.2929,0.0,0.0,0.0,0.0,0.0,0.0,0.0,0.0,0.0,0.0,0.0,0.0,0.0,0.0,0.0,0.3861,0.3779,0.3449,0.1481,0.1233,0.1899,0.3766,0.2388,0.1293,0.134,0.0939,0.0671,0.0673,0.0269,0.0,0.0,0.0,0.0,0.0,0.0,0.0,0.0,0.0,0.0,0.0,0.0,0.0,0.0,0.0,0.0,0.0,0.0,0.0,0.0,0.0,0.0,0.0,0.0,0.0,0.0,0.0,0.0,0.0,0.0,0.0,0.0,0.0,0.0,0.0,0.0,0.0,0.0,0.0,0.0,0.0,0.0,0.0,0.0,0.0,0.0,0.0,0.0,0.0,0.0,0.0,0.0,0.0,0.0,0.0,0.0,0.0,0.0,0.0,0.0,0.0,0.0,0.0,0.0,0.0,0.0,0.0,0.0,0.0,0.0,0.0,0.0,0.0,0.0,0.0,0.0,0.0,0.0,0.0,0.0,0.0,0.0535,0.0648,0.0,0.0,0.0,0.0,0.0,0.0,0.0,0.0,0.0,0.0,0.0,0.8448,0.7916,0.0,0.5968,0.3113,0.2887,0.2356,0.0311,0.0,0.0403,0.1557,0.0716,0.0,0.0,0.0,0.0,0.0,0.0,0.0,0.0,0.0,0.0,0.0,0.0,0.0,0.0,0.0,0.0,0.0,0.0,0.0,0.0,0.0,0.0,0.0,0.0,0.0,0.0,0.0,0.0,0.0,0.0,0.0,0.0,0.0,0.0,0.0,0.0,0.0,0.0,0.0,0.0,0.0,0.0,0.0,0.0,0.0,0.0,0.0,0.0,0.0,0.0,0.0,0.0,0.0,0.0,0.0,0.0,0.0,0.0,0.0,0.0,0.0,0.0,0.0,0.0,0.0,0.0,0.0,0.0,0.0,0.0,0.0,0.0,0.0,0.0,0.0,0.0,0.0,0.0,0.0,0.0,0.0,0.0,0.0,0.0,0.0,0.0,0.0,0.0,0.0,0.0,0.0,0.0,0.0,0.0,0.0,0.0,0.9212,0.9304,1.0155,0.8735,0.7419,0.7677,0.6381,0.466,0.2812,0.259,0.204,0.0269,0.0,0.0,0.0,0.0,0.0,0.0,0.0,0.0,0.0,0.0,0.0,0.0,0.0,0.0,0.0,0.0,0.0,0.0,0.0,0.0,0.0,0.0,0.0,0.0,0.0,0.0,0.0,0.0,0.0,0.0,0.0,0.0,0.0,0.0,0.0,0.0,0.0,0.0,0.0,0.0,0.0,0.0,0.0,0.0,0.0,0.0,0.0,0.0,0.0,0.0,0.0,0.0,0.0,0.0,0.0,0.0,0.0,0.0,0.0,0.0,0.0,0.0,0.0,0.0,0.0,0.0,0.0,0.0,0.0,0.0,0.0,0.0,0.0,0.0,0.0,0.0,0.0,0.0,0.0,0.0,0.0,0.0,0.0,0.0,0.0,0.0,0.0,0.0,0.0,0.0,0.0,0.0,0.0,0.8097,0.826,0.8608,0.9535,0.9609,1.0005,0.0,1.0453,0.881,0.9529,0.7969,0.5848,0.3906,0.3477,0.2727,0.066,0.0356,0.0269,0.0045,0.0,0.0,0.0,0.0,0.0,0.0,0.0,0.0,0.0,0.0,0.0,0.0,0.0,0.0,0.0,0.0,0.0,0.0,0.0,0.0,0.0,0.0,0.0,0.0,0.0,0.0,0.0,0.0,0.0,0.0,0.0,0.0,0.0,0.0,0.0,0.0,0.0,0.0,0.0,0.0,0.0,0.0,0.0,0.0,0.0,0.0,0.0,0.0,0.0,0.0,0.0,0.0,0.0,0.0,0.0,0.0,0.0,0.0,0.0,0.0,0.0,0.0,0.0,0.0,0.0,0.0,0.0,0.0,0.0,0.0,0.0,0.0,0.0,0.0,0.0,0.0,0.0,0.0,0.0,0.0,0.0,0.0,0.0,0.0,0.0,0.0,0.0,0.0,0.0,0.0,0.0,0.0,0.0,0.951,0.9808,1.0055,1.0752,1.1164,1.1306,1.0873,0.9927,0.8922,0.8064,0.616,0.4366,0.3483,0.2197,0.102,0.0134,0.0,0.0,0.0,0.0,0.0,0.0,0.0,0.0,0.0,0.0,0.0,0.0,0.0,0.0,0.0,0.0,0.0,0.0,0.0,0.0,0.0,0.0,0.0,0.0,0.0,0.0,0.0,0.0,0.0,0.0,0.0,0.0,0.0,0.0,0.0,0.0,0.0,0.0,0.0,0.0,0.0,0.0,0.0,0.0,0.0,0.0,0.0,0.0,0.0,0.0,0.0,0.0,0.0,0.0,0.0,0.0,0.0,0.0,0.0,0.0,0.0,0.0,0.0,0.0,0.0,0.0,0.0,0.0,0.0,0.0,0.0,0.0,0.0,0.0,0.0,0.0,0.0,0.0,0.0,0.0,0.0,0.0,0.0,0.0,0.0,0.0,0.0,0.0,0.0,0.0,0.0,0.0,0.0,0.0,0.0,0.0,1.0319,1.0765,1.1012,1.0836,1.1326,1.1267,0.9021,0.8185,0.752,0.6125,0.4038,0.2474,0.2582,0.116,0.0,0.0,0.0,0.0,0.0,0.0,0.0,0.0,0.0,0.0,0.0,0.0,0.0,0.0,0.0,0.0,0.0,0.0,0.0,0.0,0.0,0.0,0.0,0.0,0.0,0.0,0.0,0.0,0.0,0.0,0.0,0.0,0.0,0.0,0.0,0.0,0.0,0.0,0.0,0.0,0.0,0.0,0.0,0.0,0.0,0.0,0.0,0.0,0.0,0.0,0.0,0.0,0.0,0.0,0.0,0.0,0.0,0.0,0.0,0.0,0.0,0.0,0.0,0.0,0.0,0.0,0.0,0.0,0.0,0.0,0.0,0.0,0.0,0.0,0.0,0.0,0.0,0.0,0.0,0.0,0.0,0.0,0.0,0.0,0.0,0.0,0.0,0.0,0.0,0.0,0.0,0.0,0.0,0.0,0.0,0.0,0.0,0.0,1.0109,1.0677,1.0976,0.9236,0.9253,0.9201,0.7202,0.5143,0.3615,0.3657,0.1777,0.0088,0.0088,0.0044,0.0,0.0,0.0,0.0,0.0,0.0,0.0,0.0,0.0,0.0,0.0,0.0,0.0,0.0,0.0,0.0,0.0,0.0,0.0,0.0,0.0,0.0,0.0,0.0,0.0,0.0,0.0,0.0,0.0,0.0,0.0,0.0,0.0,0.0,0.0,0.0,0.0,0.0,0.0,0.0,0.0,0.0,0.0,0.0,0.0,0.0,0.0,0.0,0.0,0.0,0.0,0.0,0.0,0.0,0.0,0.0,0.0,0.0,0.0,0.0,0.0,0.0,0.0,0.0,0.0,0.0,0.0,0.0,0.0,0.0,0.0,0.0,0.0,0.0,0.0,0.0,0.0,0.0,0.0,0.0,0.0,0.0,0.0,0.0,0.0,0.0,0.0,0.0,0.0,0.0,0.0,0.0,0.0,0.0,0.0,0.0,0.0,0.0,0.7532,0.8617,0.9602,0.7706,0.7535,0.7259,0.5112,0.4083,0.3107,0.1539,0.0566,0.0,0.0,0.0,0.0,0.0,0.0,0.0,0.0,0.0,0.0,0.0,0.0,0.0,0.0,0.0,0.0,0.0,0.0,0.0,0.0,0.0,0.0,0.0,0.0,0.0,0.0,0.0,0.0,0.0,0.0,0.0,0.0,0.0,0.0,0.0,0.0,0.0,0.0,0.0,0.0,0.0,0.0,0.0,0.0,0.0,0.0,0.0,0.0,0.0,0.0,0.0,0.0,0.0,0.0,0.0,0.0,0.0,0.0,0.0,0.0,0.0,0.0,0.0,0.0,0.0,0.0,0.0,0.0,0.0,0.0,0.0,0.0,0.0,0.0,0.0,0.0,0.0,0.0,0.0,0.0,0.0,0.0,0.0,0.0,0.0,0.0,0.0,0.0,0.0,0.0,0.0,0.0,0.0,0.0,0.0,0.0,0.0,0.0,0.0,0.0,0.0,0.6057,0.696,0.7729,0.585,0.5545,0.5137,0.2848,0.231,0.1892,0.0301,0.0,0.0,0.0,0.0,0.0,0.0,0.0,0.0,0.0,0.0,0.0,0.0,0.0,0.0,0.0,0.0,0.0,0.0,0.0,0.0,0.0,0.0,0.0,0.0,0.0,0.0,0.0,0.0,0.0,0.0,0.0,0.0,0.0,0.0,0.0,0.0,0.0,0.0,0.0,0.0,0.0,0.0,0.0,0.0,0.0,0.0,0.0,0.0,0.0,0.0,0.0,0.0,0.0,0.0,0.0,0.0,0.0,0.0,0.0,0.0,0.0,0.0,0.0,0.0,0.0,0.0,0.0,0.0,0.0,0.0,0.0,0.0,0.0,0.0,0.0,0.0,0.0,0.0,0.0,0.0,0.0,0.0,0.0,0.0,0.0,0.0,0.0,0.0,0.0,0.0,0.0,0.0,0.0,0.0,0.0,0.0,0.0,0.0,0.0,0.0,0.0,0.0,0.5459,0.5689,0.5438,0.3578,0.3286,0.2811,0.0531,0.0,0.0,0.0,0.0,0.0,0.0,0.0,0.0,0.0,0.0,0.0,0.0,0.0,0.0,0.0,0.0,0.0,0.0,0.0,0.0,0.0,0.0,0.0,0.0,0.0,0.0,0.0,0.0,0.0,0.0,0.0,0.0,0.0,0.0,0.0,0.0,0.0,0.0,0.0,0.0,0.0,0.0,0.0,0.0,0.0,0.0,0.0,0.0,0.0,0.0,0.0,0.0,0.0,0.0,0.0,0.0,0.0,0.0,0.0,0.0,0.0,0.0,0.0,0.0,0.0,0.0,0.0,0.0,0.0,0.0,0.0,0.0,0.0,-0.0084,-0.021,-0.0332,-0.0328,-0.0326,-0.0326,-0.0245,-0.0122,0.0,0.0,0.0,0.0,0.0,0.0,0.0,0.0,0.0,0.0,0.0,0.0,0.0,0.0,0.0,0.0,0.0,0.0,0.0,0.0,0.0,0.0,0.0,0.0,0.1969,0.2814,0.365,0.1425,0.089,0.0752,0.0131,0.0,0.0,0.0,0.0,0.0,0.0,0.0,0.0,0.0,0.0,0.0,0.0,0.0,0.0,0.0,0.0,0.0,0.0,0.0,0.0,0.0,0.0,0.0,0.0,0.0,0.0,0.0,0.0,0.0,0.0,0.0,0.0,0.0,0.0,0.0,0.0,0.0,0.0,0.0,0.0,0.0,0.0,0.0,0.0,0.0,0.0,0.0,0.0,0.0,0.0,0.0,0.0,0.0,0.0,0.0,0.0,0.0,0.0,0.0,0.0,0.0,0.0,0.0,0.0,0.0,0.0,0.0,0.0,0.0,0.0,0.0,0.0,0.0,-0.1346,-0.2978,-0.4679,-0.4997,-0.4987,-0.4987,-0.3536,-0.1864,-0.0204,0.0,0.0,0.0,0.0,0.0,0.0,0.0,0.0,0.0,0.0,0.0,0.0,0.0,0.0,0.0,0.0,0.0,0.0,0.0,0.0,0.0,0.0,0.0,0.0383,0.1009,0.1703,0.0359,0.0,0.0,0.0,0.0,0.0,0.0,0.0,0.0,0.0,0.0,0.0,0.0,0.0,0.0,0.0,0.0,0.0,0.0,0.0,0.0,0.0,0.0,0.0,0.0,0.0,0.0,0.0,0.0,0.0,0.0,0.0,0.0,0.0,0.0,0.0,0.0,0.0,0.0,0.0,0.0,0.0,0.0,0.0,0.0,0.0,0.0,0.0,0.0,0.0,0.0,-0.0135,-0.1211,-0.1569,-0.1748,-0.2776,-0.3134,-0.2776,-0.0673,0.0,0.0,0.0,-0.0718,-0.1567,-0.1602,-0.2301,-0.3127,-0.3123,-0.31,-0.3125,-0.3097,-0.3118,-0.3138,-0.3138,-0.3067,-0.2997,-0.2942,-0.3944,-0.5198,-0.6491,-0.67,-0.67,-0.67,-0.5616,-0.4343,-0.3094,-0.1237,0.0,0.0,0.0,0.0,0.0,0.0,0.0,0.0,0.0,0.0,0.0,0.0,0.0,0.0,0.0,0.0,0.0,0.0,0.0,0.0,0.0,0.0,0.0,0.0,0.0,0.0,0.0,0.0,0.0,0.0,0.0,0.0,0.0,0.0,0.0,0.0,0.0,0.0,0.0,0.0,0.0,0.0,0.0,0.0,0.0,0.0,0.0,0.0,0.0,0.0,0.0,0.0,0.0,0.0,0.0,0.0,0.0,0.0,0.0,0.0,0.0,0.0,0.0,0.0,0.0,0.0,0.0,0.0,0.0,-0.019,-0.0517,-0.0465,-0.069,-0.1001,-0.0946,-0.0942,-0.1211,-0.3312,-0.4072,-0.434,-0.6388,-0.7102,-0.6433,-0.2285,-0.0942,-0.0942,-0.0942,-0.2419,-0.4072,-0.4072,-0.5551,-0.7108,-0.7085,-0.7095,-0.7099,-0.7121,-0.708,-0.7108,-0.7108,-0.6999,-0.6958,-0.7147,-0.717,-0.7243,-0.7535,-0.7588,-0.7596,-0.7596,-0.7394,-0.7192,-0.7192,-0.349,-0.0883,-0.0883,-0.0883,-0.0884,-0.0927,-0.0632,-0.0464,-0.0465,-0.0169,0.0,0.0,0.0,0.0,0.0,0.0,0.0,0.0,0.0,0.0,0.0,0.0,0.0,0.0,0.0,0.0,0.0,0.0,0.0,0.0,0.0,0.0,0.0,0.0,0.0,0.0,0.0,0.0,0.0,0.0,0.0,0.0,0.0,0.0,0.0,0.0,0.0,0.0,0.0,0.0,0.0,0.0,0.0,0.0,0.0,0.0,0.0,0.0,0.0,0.0,0.0,0.0,0.0,0.0,0.0,0.0,0.0,0.0,0.0,0.0,-0.1185,-0.3137,-0.3014,-0.422,-0.6078,-0.5923,-0.5853,-0.5901,-0.6344,-0.6478,-0.657,-0.6968,-0.7102,-0.6968,-0.6121,-0.5853,-0.5853,-0.5853,-0.6168,-0.6478,-0.6478,-0.6783,-0.7088,-0.7098,-0.7085,-0.7112,-0.7081,-0.7115,-0.7101,-0.7101,-0.699,-0.7442,-0.93,-0.9603,-1.0086,-1.1932,-1.2322,-1.2396,-1.2396,-1.0949,-0.9844,-0.9844,-0.7328,-0.5533,-0.5533,-0.5533,-0.5594,-0.5685,-0.387,-0.282,-0.2973,-0.1123,0.0,0.0,0.0,0.0,0.0,0.0,0.0,0.0,0.0,0.0,0.0,0.0,0.0,0.0,0.0,0.0,0.0,0.0,0.0,0.0,0.0,0.0,0.0,0.0,0.0,0.0,0.0,0.0,0.0,0.0,0.0,0.0,0.0,0.0,0.0,0.0,0.0,0.0,0.0,-0.0569,-0.1857,-0.2,-0.1381,-0.0048,0.0,0.0,0.0,0.0,0.0,0.0,-0.1334,-0.2,-0.2,-0.3331,-0.3947,-0.3947,-0.3947,-0.3947,-0.3947,-0.3947,-0.4645,-0.5795,-0.5691,-0.6371,-0.7401,-0.728,-0.7184,-0.7235,-0.853,-0.8975,-0.9153,-1.0402,-1.0851,-1.0851,-1.0851,-0.9153,-0.7102,-0.7102,-0.7996,-0.8975,-0.8975,-0.9869,-1.0851,-1.0851,-1.0851,-1.0851,-1.0851,-1.0854,-1.084,-1.0778,-1.0679,-1.0929,-1.1942,-1.2053,-1.2349,-1.3416,-1.3646,-1.3693,-1.3693,-1.2844,-1.2233,-1.2233,-1.1141,-0.9474,-0.7056,-0.6797,-0.6814,-0.689,-0.5832,-0.5263,-0.5407,-0.4331,-0.3684,-0.3684,-0.3704,-0.3111,-0.1896,-0.1863,-0.1249,0.0,0.0,0.0,0.0,0.0,0.0,0.0,0.0,0.0,0.0,0.0,0.0,0.0,0.0,0.0,0.0,0.0,0.0,0.0,0.0,0.0,0.0,0.0,0.0,0.0,0.0,0.0,0.0,-0.0462,-0.0793,-0.0809,-0.1287,-0.2476,-0.4466,-0.4608,-0.3757,-0.1715,-0.162,-0.162,-0.162,-0.162,-0.162,-0.162,-0.3615,-0.4608,-0.4656,-0.6648,-0.7595,-0.7595,-0.7595,-0.7595,-0.7595,-0.7595,-0.7927,-0.8393,-0.8334,-0.8578,-0.8965,-0.8903,-0.8774,-0.8886,-1.0762,-1.1477,-1.1743,-1.3628,-1.4299,-1.4299,-1.4299,-1.1743,-0.8664,-0.8664,-0.9957,-1.1477,-1.1477,-1.2819,-1.4299,-1.4299,-1.4299,-1.4299,-1.4299,-1.4299,-1.4265,-1.4193,-1.4139,-1.4034,-1.3869,-1.3822,-1.3795,-1.3795,-1.3822,-1.3849,-1.3849,-1.3876,-1.3896,-1.3896,-1.3896,-1.249,-0.8834,-0.842,-0.8416,-0.8437,-0.7967,-0.7746,-0.7877,-0.7403,-0.7099,-0.7099,-0.7115,-0.6221,-0.4372,-0.4366,-0.3401,-0.1524,-0.1524,-0.1524,-0.1524,-0.0987,-0.0762,0.0,0.0,0.0,0.0,0.0,0.0,0.0,0.0,0.0,0.0,0.0,0.0,0.0,0.0,0.0,0.0,0.0,0.0,0.0,0.0,0.0,0.0,-0.2023,-0.3444,-0.3464,-0.5557,-0.698,-0.7217,-0.7264,-0.7169,-0.6932,-0.6885,-0.6885,-0.6885,-0.6885,-0.6885,-0.6885,-0.7122,-0.7264,-0.7264,-0.7501,-0.7595,-0.7595,-0.7595,-0.7595,-0.7595,-0.7595,-0.892,-1.104,-1.073,-1.1929,-1.4017,-1.3751,-1.3641,-1.3673,-1.3894,-1.3982,-1.3982,-1.421,-1.4299,-1.4299,-1.4299,-1.3989,-1.3628,-1.3628,-1.3805,-1.3982,-1.3982,-1.4122,-1.4299,-1.4299,-1.4299,-1.4299,-1.4299,-1.4299,-1.4299,-1.4285,-1.417,-1.4112,-1.4098,-1.3939,-1.3795,-1.3795,-1.396,-1.4048,-1.4048,-1.417,-1.4258,-1.4258,-1.4258,-1.4021,-1.352,-1.3247,-1.3227,-1.34,-1.1433,-1.0209,-1.0367,-0.8328,-0.7081,-0.7081,-0.7088,-0.7002,-0.678,-0.6786,-0.6656,-0.6436,-0.6436,-0.6436,-0.6388,-0.4248,-0.3268,0.0,0.0,0.0,0.0,0.0,0.0,0.0,0.0,0.0,0.0,0.0,0.0,0.0,0.0,0.0,0.0,0.0,0.0,0.0,0.0,-0.0587,-0.2122,-0.3201,-0.442,-0.5916,-0.7027,-0.8258,-0.9775,-1.1286,-1.2187,-1.2187,-0.9251,-0.7595,-0.7595,-0.7595,-0.7595,-0.7595,-0.9109,-0.987,-0.9917,-1.1432,-1.2187,-1.2187,-1.2187,-1.2187,-1.2187,-1.2187,-1.2757,-1.3651,-1.3462,-1.3891,-1.4674,-1.4509,-1.4373,-1.4299,-1.4299,-1.4299,-1.4299,-1.4299,-1.4299,-1.4299,-1.4299,-1.4299,-1.4299,-1.4299,-1.4299,-1.4299,-1.4299,-1.4299,-1.4299,-1.4299,-1.4299,-1.4299,-1.4299,-1.4299,-1.4299,-1.4299,-1.4251,-1.4211,-1.4211,-1.4156,-1.4116,-1.4116,-1.417,-1.4211,-1.4211,-1.4265,-1.4299,-1.4299,-1.4299,-1.4278,-1.4217,-1.4068,-1.4007,-1.4112,-1.3228,-1.2716,-1.2857,-1.1965,-1.1433,-1.1433,-1.1433,-1.0762,-0.9286,-0.9286,-0.8575,-0.7102,-0.7102,-0.7102,-0.7057,-0.6121,-0.5722,0.0,0.0,0.0,0.0,0.0,0.0,0.0,0.0,0.0,0.0,0.0,0.0,0.0,0.0,0.0,0.0,0.0,0.0,0.0,0.0,-0.0891,-0.3236,-0.424,-0.5706,-0.8216,-0.9283,-1.0578,-1.2381,-1.4187,-1.5181,-1.5181,-1.181,-0.9865,-0.9865,-0.9865,-0.9865,-0.9865,-1.1621,-1.2522,-1.2575,-1.4328,-1.5181,-1.5181,-1.5181,-1.5181,-1.5181,-1.5181,-1.5181,-1.5167,-1.4977,-1.4835,-1.4674,-1.4523,-1.4387,-1.4299,-1.4299,-1.4299,-1.4299,-1.4299,-1.4299,-1.4299,-1.4299,-1.4299,-1.4299,-1.4299,-1.4299,-1.4299,-1.4299,-1.4299,-1.4299,-1.4299,-1.4299,-1.4299,-1.4299,-1.4299,-1.4299,-1.4299,-1.4299,-1.4299,-1.4299,-1.4299,-1.4299,-1.4299,-1.4299,-1.4299,-1.4299,-1.4299,-1.4299,-1.4299,-1.4299,-1.4299,-1.4299,-1.4204,-1.4136,-1.4136,-1.4136,-1.4183,-1.4292,-1.4299,-1.4299,-1.4299,-1.4299,-1.3489,-1.1788,-1.1743,-1.0939,-0.9242,-0.9242,-0.9242,-0.9197,-0.8486,-0.777,0.0,0.0,0.0,0.0,0.0,0.0,0.0,0.0,0.0,0.0,0.0,0.0,0.0,0.0,0.0,0.0,0.0,0.0,0.0,0.0,-0.0712,-0.2696,-0.5253,-0.7804,-1.0234,-1.33,-1.5134,-1.5181,-1.5181,-1.5181,-1.5181,-1.5134,-1.5134,-1.5134,-1.5134,-1.5134,-1.5134,-1.5134,-1.5181,-1.5181,-1.5181,-1.5181,-1.5181,-1.5181,-1.5181,-1.5181,-1.5181,-1.5181,-1.516,-1.4816,-1.4694,-1.4667,-1.4414,-1.4299,-1.4299,-1.4299,-1.4299,-1.4299,-1.4299,-1.4299,-1.4299,-1.4299,-1.4299,-1.4299,-1.4299,-1.4299,-1.4299,-1.4299,-1.4299,-1.4299,-1.4299,-1.4299,-1.4299,-1.4299,-1.4299,-1.4299,-1.4299,-1.4299,-1.4299,-1.4299,-1.4299,-1.4299,-1.4299,-1.4299,-1.4299,-1.4299,-1.4299,-1.4299,-1.4299,-1.4299,-1.4299,-1.4299,-1.4299,-1.4299,-1.4299,-1.4299,-1.4299,-1.4299,-1.4299,-1.4299,-1.4299,-1.4299,-1.4299,-1.4255,-1.4255,-1.4255,-1.421,-1.421,-1.421,-1.4166,-1.1788,-0.9375,0.0,0.0,0.0,0.0,0.0,0.0,0.0,0.0,0.0,0.0,0.0,0.0,0.0,0.0,0.0,0.0,0.0,0.0,0.0,-0.1407,-0.3353,-0.5833,-0.9923,-1.2853,-1.3619,-1.4599,-1.5181,-1.5181,-1.5181,-1.5181,-1.5181,-1.5181,-1.5181,-1.5181,-1.5181,-1.5181,-1.5181,-1.5181,-1.5181,-1.5181,-1.5181,-1.5181,-1.5181,-1.5181,-1.5126,-1.5038,-1.5038,-1.4977,-1.4816,-1.462,-1.4539,-1.4563,-1.4373,-1.4299,-1.4299,-1.4299,-1.4299,-1.4299,-1.4299,-1.4299,-1.4299,-1.4299,-1.4299,-1.4299,-1.4299,-1.4299,-1.4299,-1.4299,-1.4299,-1.4299,-1.4299,-1.4299,-1.4299,-1.4299,-1.4299,-1.4299,-1.4299,-1.4299,-1.4299,-1.4299,-1.4299,-1.4299,-1.4299,-1.4299,-1.4299,-1.4299,-1.4299,-1.4299,-1.4299,-1.4299,-1.4299,-1.4299,-1.4299,-1.4299,-1.4299,-1.4299,-1.4299,-1.4299,-1.4299,-1.4299,-1.4299,-1.4299,-1.4299,-1.4299,-1.4299,-1.4299,-1.4299,-1.4299,-1.4299,-1.4299,-1.354,-1.273,0.0,0.0,0.0,0.0,0.0,0.0,0.0,0.0,0.0,0.0,0.0,0.0,0.0,0.0,0.0,0.0,0.0,-0.0275,-0.1068,-0.2575,-0.488,-0.8293,-1.2322,-1.4869,-1.4923,-1.5086,-1.5181,-1.5181,-1.5181,-1.5181,-1.5181,-1.5181,-1.5181,-1.5181,-1.5181,-1.5181,-1.5181,-1.5181,-1.5153,-1.5106,-1.5106,-1.5072,-1.5018,-1.5018,-1.4964,-1.4882,-1.4882,-1.4828,0.0,-1.4577,-1.4509,-1.4496,-1.4353,-1.4299,-1.4299,-1.4299,-1.4299,-1.4299,-1.4299,-1.4299,-1.4299,-1.4299,-1.4299,-1.4299,-1.4299,-1.4299,-1.4299,-1.4299,-1.4299,-1.4299,-1.4299,-1.4299,-1.4299,-1.4299,-1.4299,-1.4299,-1.4299,-1.4299,-1.4299,-1.4299,-1.4299,-1.4299,-1.4299,-1.4299,-1.4299,-1.4299,-1.4299,-1.4299,-1.4299,-1.4299,-1.4299,-1.4299,-1.4299,-1.4299,-1.4299,-1.4299,-1.4299,-1.4299,-1.4299,-1.4299,-1.4299,-1.4299,-1.4299,-1.4299,-1.4299,-1.4299,-1.4299,-1.4299,-1.4299,-1.4299,-1.4299,-1.4299,0.0,0.0,0.0,0.0,0.0,0.0,0.0,0.0,0.0,0.0,0.0,0.0,0.0,0.0,0.0,0.0,-0.0113,-0.0901,-0.2855,-0.3707,-0.5797,-1.0257,-1.291,-1.4414,-1.455,-1.4936,-1.5181,-1.5181,-1.5181,-1.5181,-1.5181,-1.5181,-1.5181,-1.5181,-1.5181,-1.5181,-1.5181,-1.5181,-1.516,-1.503,-1.5023,-1.4896,-1.4708,-1.4701,-1.4687,-1.4681,-1.4681,-1.4674,-1.4654,-1.4557,-1.4496,-1.4482,-1.4353,-1.4299,-1.4299,-1.4299,-1.4299,-1.4299,-1.4299,-1.4299,-1.4299,-1.4299,-1.4299,-1.4299,-1.4299,-1.4299,-1.4299,-1.4299,-1.4299,-1.4299,-1.4299,-1.4299,-1.4299,-1.4299,-1.4299,-1.4299,-1.4299,-1.4299,-1.4299,-1.4299,-1.4299,-1.4299,-1.4299,-1.4299,-1.4299,-1.4299,-1.4299,-1.4299,-1.4299,-1.4299,-1.4299,-1.4299,-1.4299,-1.4299,-1.4299,-1.4299,-1.4299,-1.4299,-1.4299,-1.4299,-1.4299,-1.4299,-1.4299,-1.4299,-1.4299,-1.4299,-1.4299,-1.4299,-1.4299,-1.4299,-1.4299,-1.4299,0.0,0.0,0.0,0.0,0.0,0.0,0.0,0.0,0.0,0.0,0.0,0.0,0.0,0.0,0.0,0.0,-0.1344,-0.2573,-0.3188,-0.6673,-1.0319,-1.3344,-1.4473,-1.4991,-1.5025,-1.512,-1.5181,-1.5181,-1.5181,-1.5181,-1.5181,-1.5181,-1.5181,-1.5181,-1.5181,-1.5181,-1.5181,-1.5181,-1.5167,-1.5133,-1.5071,-1.4996,-1.4909,-1.4748,-1.4633,-1.4563,-1.4563,-1.4502,-1.4401,-1.4367,-1.4346,-1.4346,-1.4312,-1.4299,-1.4299,-1.4299,-1.4299,-1.4299,-1.4299,-1.4299,-1.4299,-1.4299,-1.4299,-1.4299,-1.4299,-1.4299,-1.4299,-1.4299,-1.4299,-1.4299,-1.4299,-1.4299,-1.4299,-1.4299,-1.4299,-1.4299,-1.4299,-1.4299,-1.4299,-1.4299,-1.4299,-1.4299,-1.4299,-1.4299,-1.4299,-1.4299,-1.4299,-1.4299,-1.4299,-1.4299,-1.4299,-1.4299,-1.4299,-1.4299,-1.4299,-1.4299,-1.4299,-1.4299,-1.4299,-1.4299,-1.4299,-1.4299,-1.4299,-1.4299,-1.4299,-1.4299,-1.4299,-1.4299,-1.4299,-1.4299,-1.4299,-1.4299,0.0,0.0,0.0,0.0,0.0,0.0,0.0,0.0,0.0,0.0,0.0,0.0,0.0,-0.0669,-0.0971,-0.0126,-0.2449,-0.4836,-0.6302,-0.9951,-1.3022,-1.4504,-1.5004,-1.5181,-1.5181,-1.5181,-1.5181,-1.5181,-1.5181,-1.5181,-1.5181,-1.5181,-1.5181,-1.5181,-1.5181,-1.5181,-1.5181,-1.512,-1.5052,-1.4977,-1.4828,-1.4726,-1.4658,-1.4577,-1.4496,-1.4414,-1.4414,-1.4373,-1.4299,-1.4299,-1.4299,-1.4299,-1.4299,-1.4299,-1.4299,-1.4299,-1.4299,-1.4299,-1.4299,-1.4299,-1.4299,-1.4299,-1.4299,-1.4299,-1.4299,-1.4299,-1.4299,-1.4299,-1.4299,-1.4299,-1.4299,-1.4299,-1.4299,-1.4299,-1.4299,-1.4299,-1.4299,-1.4299,-1.4299,-1.4299,-1.4299,-1.4299,-1.4299,-1.4299,-1.4299,-1.4299,-1.4299,-1.4299,-1.4299,-1.4299,-1.4299,-1.4299,-1.4299,-1.4299,-1.4299,-1.4299,-1.4299,-1.4299,-1.4299,-1.4299,-1.4299,-1.4299,-1.4299,-1.4299,-1.4299,-1.4299,-1.4299,-1.4299,-1.4299,-1.4299,-1.4299,-1.4299,0.0,0.0,0.0,0.0,0.0,0.0,0.0,0.0,0.0,0.0,0.0,-0.0077,-0.0351,-0.1737,-0.241,-0.1153,-0.4079,-0.7544,-1.0484,-1.287,-1.4441,-1.4694,-1.5018,-1.5181,-1.5181,-1.5181,-1.5181,-1.5181,-1.5181,-1.5181,-1.5181,-1.5181,-1.5174,-1.5153,-1.5174,-1.516,-1.5113,-1.5018,-1.4903,-1.4728,-1.4597,-1.4448,-1.4333,-1.4312,-1.4299,-1.4299,-1.4299,-1.4299,-1.4299,-1.4299,-1.4299,-1.4299,-1.4299,-1.4299,-1.4299,-1.4299,-1.4299,-1.4299,-1.4299,-1.4299,-1.4299,-1.4299,-1.4299,-1.4299,-1.4299,-1.4299,-1.4299,-1.4299,-1.4299,-1.4299,-1.4299,-1.4299,-1.4299,-1.4299,-1.4299,-1.4299,-1.4299,-1.4299,-1.4299,-1.4299,-1.4299,-1.4299,-1.4299,-1.4299,-1.4299,-1.4299,-1.4299,-1.4299,-1.4299,-1.4299,-1.4299,-1.4299,-1.4299,-1.4299,-1.4299,-1.4299,-1.4299,-1.4299,-1.4299,-1.4299,-1.4299,-1.4299,-1.4299,-1.4299,-1.4299,-1.4299,-1.4299,-1.4299,-1.4299,-1.4299,-1.4299,-1.4299,0.0,0.0,0.0,0.0,0.0,0.0,0.0,0.0,0.0,0.0,0.0,-0.046,-0.2012,-0.2843,-0.3738,-0.5124,-0.7839,-1.0667,-1.3173,-1.4055,-1.459,-1.4896,-1.5079,-1.5181,-1.5181,-1.5181,-1.5181,-1.5181,-1.5181,-1.5181,-1.5181,-1.5181,-1.5126,-1.5011,-1.512,-1.5059,-1.4762,-1.4916,-1.4957,-1.493,-1.4645,-1.4502,-1.4475,-1.4353,-1.4299,-1.4299,-1.4299,-1.4299,-1.4299,-1.4299,-1.4299,-1.4299,-1.4299,-1.4299,-1.4299,-1.4299,-1.4299,-1.4299,-1.4299,-1.4299,-1.4299,-1.4299,-1.4299,-1.4299,-1.4299,-1.4299,-1.4299,-1.4299,-1.4299,-1.4299,-1.4299,-1.4299,-1.4299,-1.4299,-1.4299,-1.4299,-1.4299,-1.4299,-1.4299,-1.4299,-1.4299,-1.4299,-1.4299,-1.4299,-1.4299,-1.4299,-1.4299,-1.4299,-1.4299,-1.4299,-1.4299,-1.4299,-1.4299,-1.4299,-1.4299,-1.4299,-1.4299,-1.4299,-1.4299,-1.4299,-1.4299,-1.4299,-1.4299,-1.4299,-1.4299,-1.4299,-1.4299,-1.4299,-1.4299,-1.4299,-1.4299,-1.4299,0.0,0.0,-0.0241,-0.1228,-0.1456,-0.1456,-0.1449,-0.2212,-0.2912,-0.293,-0.2931,-0.3205,-0.4112,-0.5364,-0.7042,-0.9387,-1.024,-1.1387,-1.3634,-1.4302,-1.4685,-1.4828,-1.5045,-1.5181,-1.5181,-1.5181,-1.5181,-1.5181,-1.5181,-1.5147,-1.5119,-1.5065,-1.4997,-1.4848,-1.4909,-1.4875,-1.4694,-1.4726,-1.4726,-1.4719,-1.4502,-1.4394,-1.4394,-1.4333,-1.4299,-1.4299,-1.4299,-1.4299,-1.4299,-1.4299,-1.4299,-1.4299,-1.4299,-1.4299,-1.4299,-1.4299,-1.4299,-1.4299,-1.4299,-1.4299,-1.4299,-1.4299,-1.4299,-1.4299,-1.4299,-1.4299,-1.4299,-1.4299,-1.4299,-1.4299,-1.4299,-1.4299,-1.4299,-1.4299,-1.4299,-1.4299,-1.4299,-1.4299,-1.4299,-1.4299,-1.4299,-1.4299,-1.4299,-1.4299,-1.4299,-1.4299,-1.4299,-1.4299,-1.4299,-1.4299,-1.4299,-1.4299,-1.4299,-1.4299,-1.4299,-1.4299,-1.4299,-1.4299,-1.4299,-1.4299,-1.4299,-1.4299,-1.4299,-1.4299,-1.4299,-1.4299,-1.4299,-1.4299,-1.4299,-1.4299,-1.4299,-1.4299,0.0,0.0,-0.0339,-0.172,-0.208,-0.2312,-0.3246,-0.4206,-0.5075,-0.56,-0.5689,-0.5814,-0.6273,-0.8159,-1.0341,-1.2548,-1.2154,-1.2125,-1.3734,-1.4349,-1.4667,-1.4741,-1.4964,-1.5092,-1.5126,-1.5099,-1.5079,-1.5079,-1.5079,-1.5031,-1.4923,-1.4916,-1.4848,-1.4647,-1.4674,-1.466,-1.4593,-1.4557,-1.4509,-1.4509,-1.4367,-1.4299,-1.4299,-1.4299,-1.4299,-1.4299,-1.4299,-1.4299,-1.4299,-1.4299,-1.4299,-1.4299,-1.4299,-1.4299,-1.4299,-1.4299,-1.4299,-1.4299,-1.4299,-1.4299,-1.4299,-1.4299,-1.4299,-1.4299,-1.4299,-1.4299,-1.4299,-1.4299,-1.4299,-1.4299,-1.4299,-1.4299,-1.4299,-1.4299,-1.4299,-1.4299,-1.4299,-1.4299,-1.4299,-1.4299,-1.4299,-1.4299,-1.4299,-1.4299,-1.4299,-1.4299,-1.4299,-1.4299,-1.4299,-1.4299,-1.4299,-1.4299,-1.4299,-1.4299,-1.4299,-1.4299,-1.4299,-1.4299,-1.4299,-1.4299,-1.4299,-1.4299,-1.4299,-1.4299,-1.4299,-1.4299,-1.4299,-1.4299,-1.4299,-1.4299,-1.4299,-1.4299,0.0,0.0,-0.0026,-0.0169,-0.0199,-0.1159,-0.4906,-0.4552,-0.4038,-0.6159,-0.6516,-0.6863,-0.8369,-1.0712,-1.2641,-1.3416,-1.383,-1.4135,-1.4397,-1.4502,-1.4631,-1.4923,-1.4848,-1.4828,-1.5017,-1.4855,-1.4728,-1.4728,-1.4728,-1.4721,-1.4714,-1.4708,-1.464,-1.4529,-1.462,-1.4566,-1.4333,-1.4448,-1.4509,-1.4509,-1.4367,-1.4299,-1.4299,-1.4299,-1.4299,-1.4299,-1.4299,-1.4299,-1.4299,-1.4299,-1.4299,-1.4299,-1.4299,-1.4299,-1.4299,-1.4299,-1.4299,-1.4299,-1.4299,-1.4299,-1.4299,-1.4299,-1.4299,-1.4299,-1.4299,-1.4299,-1.4299,-1.4299,-1.4299,-1.4299,-1.4299,-1.4299,-1.4299,-1.4299,-1.4299,-1.4299,-1.4299,-1.4299,-1.4299,-1.4299,-1.4299,-1.4299,-1.4299,-1.4299,-1.4299,-1.4299,-1.4299,-1.4299,-1.4299,-1.4299,-1.4299,-1.4299,-1.4299,-1.4299,-1.4299,-1.4299,-1.4299,-1.4299,-1.4299,-1.4299,-1.4299,-1.4299,-1.4299,-1.4299,-1.4299,-1.4299,-1.4299,-1.4299,-1.4299,-1.4299,-1.4299,-1.4299,0.0,-0.0932,-0.2156,-0.3124,-0.3471,-0.4041,-0.5624,-0.7289,-0.88,-0.996,-1.0213,-1.0443,-1.1133,-1.2147,-1.3037,-1.3504,-1.3926,-1.4211,-1.436,-1.4455,-1.4557,-1.4672,-1.4719,-1.4714,-1.4821,-1.4728,-1.4694,-1.4694,-1.4694,-1.4654,-1.4559,-1.4597,-1.4529,-1.4387,-1.4434,-1.4414,-1.4299,-1.4353,-1.438,-1.438,-1.4326,-1.4299,-1.4299,-1.4299,-1.4299,-1.4299,-1.4299,-1.4299,-1.4299,-1.4299,-1.4299,-1.4299,-1.4299,-1.4299,-1.4299,-1.4299,-1.4299,-1.4299,-1.4299,-1.4299,-1.4299,-1.4299,-1.4299,-1.4299,-1.4299,-1.4299,-1.4299,-1.4299,-1.4299,-1.4299,-1.4299,-1.4299,-1.4299,-1.4299,-1.4299,-1.4299,-1.4299,-1.4299,-1.4299,-1.4299,-1.4299,-1.4299,-1.4299,-1.4299,-1.4299,-1.4299,-1.4299,-1.4299,-1.4299,-1.4299,-1.4299,-1.4299,-1.4299,-1.4299,-1.4299,-1.4299,-1.4299,-1.4299,-1.4299,-1.4299,-1.4299,-1.4299,-1.4299,-1.4299,-1.4299,-1.4299,-1.4299,-1.4299,-1.4299,-1.4299,-1.4299,-1.4299,-0.0798,-0.2197,-0.3969,-0.5158,-0.6052,-0.6762,-0.718,-0.9177,-1.1304,-1.2485,-1.2637,-1.2651,-1.2895,-1.2949,-1.3166,-1.3572,-1.3946,-1.4183,-1.4285,-1.438,-1.4462,-1.4509,-1.4518,-1.4572,-1.462,-1.4579,-1.4552,-1.4552,-1.4552,-1.4512,-1.4448,-1.4441,-1.4401,-1.4306,-1.4299,-1.4299,-1.4299,-1.4299,-1.4299,-1.4299,-1.4299,-1.4299,-1.4299,-1.4299,-1.4299,-1.4299,-1.4299,-1.4299,-1.4299,-1.4299,-1.4299,-1.4299,-1.4299,-1.4299,-1.4299,-1.4299,-1.4299,-1.4299,-1.4299,-1.4299,-1.4299,-1.4299,-1.4299,-1.4299,-1.4299,-1.4299,-1.4299,-1.4299,-1.4299,-1.4299,-1.4299,-1.4299,-1.4299,-1.4299,-1.4299,-1.4299,-1.4299,-1.4299,-1.4299,-1.4299,-1.4299,-1.4299,-1.4299,-1.4299,-1.4299,-1.4299,-1.4299,-1.4299,-1.4299,-1.4299,-1.4299,-1.4299,-1.4299,-1.4299,-1.4299,-1.4299,-1.4299,-1.4299,-1.4299,-1.4299,-1.4299,-1.4299,-1.4299,-1.4299,-1.4299,-1.4299,-1.4299,-1.4299,-1.4299,-1.4299,-1.4299,-1.4299,-0.2503,-0.3689,-0.5016,-0.5508,-0.7084,-0.8789,-0.9795,-0.9838,-1.0388,-1.3067,-1.3119,-1.2835,-1.3322,-1.3207,-1.3159,-1.37,-1.4095,-1.4299,-1.4299,-1.4299,-1.4353,-1.4489,-1.4387,-1.4353,-1.4496,-1.438,-1.4299,-1.4299,-1.4299,-1.4299,-1.4299,-1.4299,-1.4299,-1.4299,-1.4299,-1.4299,-1.4299,-1.4299,-1.4299,-1.4299,-1.4299,-1.4299,-1.4299,-1.4299,-1.4299,-1.4299,-1.4299,-1.4299,-1.4299,-1.4299,-1.4299,-1.4299,-1.4299,-1.4299,-1.4299,-1.4299,-1.4299,-1.4299,-1.4299,-1.4299,-1.4299,-1.4299,-1.4299,-1.4299,-1.4299,-1.4299,-1.4299,-1.4299,-1.4299,-1.4299,-1.4299,-1.4299,-1.4299,-1.4299,-1.4299,-1.4299,-1.4299,-1.4299,-1.4299,-1.4299,-1.4299,-1.4299,-1.4299,-1.4299,-1.4299,-1.4299,-1.4299,-1.4299,-1.4299,-1.4299,-1.4299,-1.4299,-1.4299,-1.4299,-1.4299,-1.4299,-1.4299,-1.4299,-1.4299,-1.4299,-1.4299,-1.4299,-1.4299,-1.4299,-1.4299,-1.4299,-1.4299,-1.4299,-1.4299,-1.4299,-1.4299,-1.4299,-0.2013,-0.3869,-0.5853,-0.717,-0.9289,-1.1235,-1.1934,-1.2102,-1.2521,-1.3819,-1.3741,-1.3511,-1.3646,-1.3559,-1.3519,-1.3754,-1.4007,-1.4177,-1.4285,-1.4299,-1.4319,-1.436,-1.4326,-1.4319,-1.436,-1.4326,-1.4299,-1.4299,-1.4299,-1.4299,-1.4299,-1.4299,-1.4299,-1.4299,-1.4299,-1.4299,-1.4299,-1.4299,-1.4299,-1.4299,-1.4299,-1.4299,-1.4299,-1.4299,-1.4299,-1.4299,-1.4299,-1.4299,-1.4299,-1.4299,-1.4299,-1.4299,-1.4299,-1.4299,-1.4299,-1.4299,-1.4299,-1.4299,-1.4299,-1.4299,-1.4299,-1.4299,-1.4299,-1.4299,-1.4299,-1.4299,-1.4299,-1.4299,-1.4299,-1.4299,-1.4299,-1.4299,-1.4299,-1.4299,-1.4299,-1.4299,-1.4299,-1.4299,-1.4299,-1.4299,-1.4299,-1.4299,-1.4299,-1.4299,-1.4299,-1.4299,-1.4299,-1.4299,-1.4299,-1.4299,-1.4299,-1.4299,-1.4299,-1.4299,-1.4299,-1.4299,-1.4299,-1.4299,-1.4299,-1.4299,-1.4299,-1.4299,-1.4299,-1.4299,-1.4299,-1.4299,-1.4299,-1.4299,-1.4299,-1.4299,-1.4299,-1.4299,-0.3899,-0.5968,-0.7995,-0.9282,-1.0921,-1.2397,-1.3132,-1.3424,-1.3717,-1.4197,-1.4007,-1.3768,-1.395,-1.3768,-1.3673,-1.398,-1.4102,-1.4197,-1.4285,-1.4299,-1.4299,-1.4299,-1.4299,-1.4299,-1.4299,-1.4299,-1.4299,-1.4299,-1.4299,-1.4299,-1.4299,-1.4299,-1.4299,-1.4299,-1.4299,-1.4299,-1.4299,-1.4299,-1.4299,-1.4299,-1.4299,-1.4299,-1.4299,-1.4299,-1.4299,-1.4299,-1.4299,-1.4299,-1.4299,-1.4299,-1.4299,-1.4299,-1.4299,-1.4299,-1.4299,-1.4299,-1.4299,-1.4299,-1.4299,-1.4299,-1.4299,-1.4299,-1.4299,-1.4299,-1.4299,-1.4299,-1.4299,-1.4299,-1.4299,-1.4299,-1.4299,-1.4299,-1.4299,-1.4299,-1.4299,-1.4299,-1.4299,-1.4299,-1.4299,-1.4299,-1.4299,-1.4299,-1.4299,-1.4299,-1.4299,-1.4299,-1.4299,-1.4299,-1.4299,-1.4299,-1.4299,-1.4299,-1.4299,-1.4299,-1.4299,-1.4299,-1.4299,-1.4299,-1.4299,-1.4299,-1.4299,-1.4299,-1.4299,-1.4299,-1.4299,-1.4299,-1.4299,-1.4299,-1.4299,-1.4299,-1.4299,-1.4299,-0.7017,-0.8884,-1.0524,-1.1408,-1.2026,-1.2664,-1.3578,-1.3946,-1.4139,-1.4265,-1.3973,-1.3774,-1.4224,-1.3966,-1.3781,-1.4231,-1.4299,-1.4299,-1.4299,-1.4299,-1.4299,-1.4299,-1.4299,-1.4299,-1.4299,-1.4299,-1.4299,-1.4299,-1.4299,-1.4299,-1.4299,-1.4299,-1.4299,-1.4299,-1.4299,-1.4299,-1.4299,-1.4299,-1.4299,-1.4299,-1.4299,-1.4299,-1.4299,-1.4299,-1.4299,-1.4299,-1.4299,-1.4299,-1.4299,-1.4299,-1.4299,-1.4299,-1.4299,-1.4299,-1.4299,-1.4299,-1.4299,-1.4299,-1.4299,-1.4299,-1.4299,-1.4299,-1.4299,-1.4299,-1.4299,-1.4299,-1.4299,-1.4299,-1.4299,-1.4299,-1.4299,-1.4299,-1.4299,-1.4299,-1.4299,-1.4299,-1.4299,-1.4299,-1.4299,-1.4299,-1.4299,-1.4299,-1.4299,-1.4299,-1.4299,-1.4299,-1.4299,-1.4299,-1.4299,-1.4299,-1.4299,-1.4299,-1.4299,-1.4299,-1.4299,-1.4299,-1.4299,-1.4299,-1.4299,-1.4299,-1.4299,-1.4299,-1.4299,-1.4299,-1.4299,-1.4299,-1.4299,-1.4299,-1.4299,-1.4299,-1.4299,-1.4299,-0.6308,-0.789,-0.9261,-1.1252,-1.253,-1.3389,-1.372,-1.3822,-1.3966,-1.4245,-1.4224,-1.4183,-1.4285,-1.4217,-1.419,-1.4285,-1.4299,-1.4299,-1.4299,-1.4299,-1.4299,-1.4299,-1.4299,-1.4299,-1.4299,-1.4299,-1.4299,-1.4299,-1.4299,-1.4299,-1.4299,-1.4299,-1.4299,-1.4299,-1.4299,-1.4299,-1.4299,-1.4299,-1.4299,-1.4299,-1.4299,-1.4299,-1.4299,-1.4299,-1.4299,-1.4299,-1.4299,-1.4299,-1.4299,-1.4299,-1.4299,-1.4299,-1.4299,-1.4299,-1.4299,-1.4299,-1.4299,-1.4299,-1.4299,-1.4299,-1.4299,-1.4299,-1.4299,-1.4299,-1.4299,-1.4299,-1.4299,-1.4299,-1.4299,-1.4299,-1.4299,-1.4299,-1.4299,-1.4299,-1.4299,-1.4299,-1.4299,-1.4299,-1.4299,-1.4299,-1.4299,-1.4299,-1.4299,-1.4299,-1.4299,-1.4299,-1.4299,-1.4299,-1.4299,-1.4299,-1.4299,-1.4299,-1.4299,-1.4299,-1.4299,-1.4299,-1.4299,-1.4299,-1.4299,-1.4299,-1.4299,-1.4299,-1.4299,-1.4299,-1.4299,-1.4299,-1.4299,-1.4299,-1.4299,-1.4299,-1.4299,-1.4299,-0.7083,-0.8241,-0.9004,-1.1606,-1.2855,-1.3559,-1.366,-1.3747,-1.3842,-1.4004,-1.4143,-1.419,-1.419,-1.4251,-1.4299,-1.4299,-1.4299,-1.4299,-1.4299,-1.4299,-1.4299,-1.4299,-1.4299,-1.4299,-1.4299,-1.4299,-1.4299,-1.4299,-1.4299,-1.4299,-1.4299,-1.4299,-1.4299,-1.4299,-1.5381,-1.599,-1.599,-1.599,-1.599,-1.5946,-1.4822,-1.4299,-1.4299,-1.4299,-1.4299,-1.4299,-1.4299,-1.4299,-1.4299,-1.4299,-1.4299,-1.4299,-1.4299,-1.4299,-1.4299,-1.4299,-1.4299,-1.4299,-1.4299,-1.4299,-1.4299,-1.4299,-1.4299,-1.4299,-1.4299,-1.4299,-1.4299,-1.4299,-1.4299,-1.4285,-1.4211,-1.419,-1.417,-1.4095,-1.419,-1.4299,-1.4299,-1.4299,-1.4299,-1.4299,-1.4299,-1.4299,-1.4299,-1.4299,-1.4299,-1.4299,-1.4299,-1.4299,-1.4299,-1.4299,-1.4299,-1.4299,-1.4299,-1.4299,-1.4299,-1.4299,-1.4299,-1.4299,-1.4299,-1.4299,-1.4299,-1.4299,-1.4299,-1.4299,-1.4299,-1.4299,-1.4299,-1.4299,-1.4299,-1.4299,-1.4299,-1.4299,-0.7915,-0.8956,-0.945,-1.1987,-1.2969,-1.3322,-1.3478,-1.3585,-1.368,-1.368,-1.3892,-1.4034,-1.4034,-1.4136,-1.4217,-1.4217,-1.4217,-1.4217,-1.4217,-1.4217,-1.4217,-1.4217,-1.4245,-1.4265,-1.4265,-1.4285,-1.4299,-1.4299,-1.4299,-1.4299,-1.4299,-1.4299,-1.4299,-1.4299,-1.6597,-1.7807,-1.7807,-1.8191,-1.8409,-1.8366,-1.6422,-1.53,-1.4903,-1.53,-1.5036,-1.4299,-1.4299,-1.4285,-1.4265,-1.4265,-1.4245,-1.4217,-1.4217,-1.4217,-1.4217,-1.4217,-1.4217,-1.4217,-1.4217,-1.4238,-1.4258,-1.4231,-1.4258,-1.4292,-1.4238,-1.4238,-1.4251,-1.4224,-1.4217,-1.419,-1.4061,-1.4034,-1.4,-1.3829,-1.3991,-1.4224,-1.4251,-1.4265,-1.4265,-1.4265,-1.4265,-1.4251,-1.4224,-1.4265,-1.4292,-1.4265,-1.4265,-1.4265,-1.4265,-1.4238,-1.4217,-1.4217,-1.4245,-1.4265,-1.4265,-1.4285,-1.4299,-1.4299,-1.4299,-1.4299,-1.4299,-1.4299,-1.4299,-1.4299,-1.4299,-1.4299,-1.4299,-1.4299,-1.4299,-1.4299,-1.4299,-1.4299,-0.6966,-0.8923,-1.0552,-1.2003,-1.2583,-1.2821,-1.3057,-1.3159,-1.3261,-1.3261,-1.3587,-1.3829,-1.3829,-1.3842,-1.3862,-1.3862,-1.3862,-1.3862,-1.3862,-1.3862,-1.3862,-1.3862,-1.4021,-1.4146,-1.4146,-1.4224,-1.4299,-1.4299,-1.4299,-1.4299,-1.4299,-1.4299,-1.4299,-1.4299,-1.6597,-1.7807,-1.7807,-1.9749,-2.0746,-2.0746,-2.0443,-1.9237,-1.7413,-1.9367,-1.8069,-1.4299,-1.4299,-1.4224,-1.4146,-1.4146,-1.4021,-1.3862,-1.3862,-1.3862,-1.3862,-1.3862,-1.3862,-1.3862,-1.3862,-1.3987,-1.4082,-1.3903,-1.4038,-1.4251,-1.3944,-1.3994,-1.4075,-1.3939,-1.3862,-1.3856,-1.3835,-1.3829,-1.3822,-1.3802,-1.3829,-1.3896,-1.4075,-1.4146,-1.4146,-1.4146,-1.4146,-1.4061,-1.3883,-1.4122,-1.4251,-1.4122,-1.4146,-1.4146,-1.4146,-1.3987,-1.3862,-1.3862,-1.4021,-1.4146,-1.4146,-1.4224,-1.4299,-1.4299,-1.4299,-1.4299,-1.4299,-1.4299,-1.4299,-1.4299,-1.4299,-1.4299,-1.4299,-1.4299,-1.4299,-1.4299,-1.4299,-1.4299,-0.6266,-0.8641,-1.0502,-1.1735,-1.2196,-1.244,-1.2759,-1.2881,-1.2949,-1.3077,-1.3214,-1.3424,-1.3632,-1.3747,-1.3795,-1.3795,-1.3795,-1.3795,-1.3795,-1.3795,-1.3795,-1.3795,-1.3899,-1.3939,-1.3939,-1.4,-1.3998,-1.3998,-1.3998,-1.3998,-1.3998,-1.5205,-1.5889,-1.5889,-1.9325,-2.1154,-2.1154,-2.217,-2.2001,-2.0677,-2.0677,-2.0167,-1.9239,-2.0252,-1.9005,-1.6071,-1.6071,-1.5285,-1.3939,-1.3939,-1.3862,-1.3795,-1.3795,-1.3795,-1.3795,-1.3795,-1.3795,-1.3795,-1.3795,-1.3842,-1.3933,-1.3822,-1.3889,-1.3971,-1.3835,-1.3842,-1.3926,-1.3815,-1.3795,-1.3781,-1.37,-1.368,-1.366,-1.3572,-1.3619,-1.3673,-1.3702,-1.3824,-1.3939,-1.3939,-1.3939,-1.3919,-1.3808,-1.391,-1.4021,-1.3953,-1.3939,-1.3939,-1.3939,-1.3842,-1.3795,-1.3795,-1.3899,-1.3939,-1.3939,-1.4,-1.3998,-1.3998,-1.3998,-1.4082,-1.417,-1.417,-1.4211,-1.4299,-1.4299,-1.4299,-1.4299,-1.4299,-1.4299,-1.4299,-1.4299,-1.4299,-0.5831,-0.7962,-0.9704,-1.0968,-1.1525,-1.185,-1.2338,-1.2508,-1.2617,-1.2846,-1.2914,-1.3017,-1.339,-1.3573,-1.3668,-1.3668,-1.366,-1.3687,-1.3687,-1.3687,-1.3687,-1.3687,-1.372,-1.3747,-1.3747,-1.3774,-1.3795,-1.3795,-1.3795,-1.3795,-1.3795,-1.5914,-1.7095,-1.7095,-2.1452,-2.3791,-2.3791,-2.4382,-2.3501,-2.1191,-2.1775,-2.1775,-2.1191,-2.1817,-2.096,-1.9,-1.8459,-1.7145,-1.542,-1.542,-1.5397,-1.5359,-1.5359,-1.5359,-1.5359,-1.5359,-1.5359,-1.5275,-1.4732,-1.4881,-1.52,-1.4076,-1.4117,-1.4501,-1.3877,-1.4089,-1.4451,-1.3863,-1.4104,-1.4372,-1.3726,-1.3531,-1.3504,-1.3424,-1.3492,-1.3553,-1.3478,-1.3592,-1.3734,-1.3693,-1.372,-1.3734,-1.3693,-1.3747,-1.3788,-1.3747,-1.3747,-1.3747,-1.3747,-1.3707,-1.3687,-1.3687,-1.372,-1.3747,-1.3747,-1.3774,-1.3795,-1.3795,-1.3795,-1.3849,-1.4007,-1.4014,-1.4082,-1.4238,-1.4245,-1.4265,-1.4299,-1.4299,-1.4299,-1.4299,-1.4299,-1.4299,-0.5687,-0.6773,-0.8079,-0.9528,-1.0326,-1.0948,-1.1509,-1.1898,-1.2213,-1.2467,-1.2644,-1.2793,-1.3003,-1.3152,-1.3248,-1.3248,-1.3329,-1.3424,-1.3424,-1.3424,-1.3424,-1.3424,-1.3511,-1.3599,-1.3599,-1.372,-1.3795,-1.3795,-1.3795,-1.3795,-1.3795,-1.5914,-1.7095,-1.7095,-2.1452,-2.3791,-2.3791,-2.6013,-2.5931,-2.3626,-2.5877,-2.5754,-2.3667,-2.5918,-2.5615,-2.3167,-2.1066,-1.9994,-1.9787,-1.9787,-1.9709,-1.9572,-1.9572,-1.9572,-1.9572,-1.9572,-1.9572,-1.9287,-1.7164,-1.7895,-1.9056,-1.4822,-1.5028,-1.6479,-1.4131,-1.4965,-1.6251,-1.404,-1.4893,-1.5983,-1.3942,-1.341,-1.341,-1.3403,-1.3403,-1.3451,-1.3545,-1.3585,-1.3558,-1.3451,-1.3497,-1.3551,-1.3451,-1.3612,-1.3754,-1.3619,-1.3599,-1.3599,-1.3599,-1.3512,-1.3424,-1.3424,-1.3511,-1.3599,-1.3599,-1.372,-1.3795,-1.3795,-1.3795,-1.3802,-1.3808,-1.3808,-1.3926,-1.4125,-1.4125,-1.4156,-1.4299,-1.4299,-1.4299,-1.4299,-1.4299,-1.4299,-0.5934,-0.6838,-0.7743,-0.8832,-0.9602,-1.0276,-1.0778,-1.1355,-1.1837,-1.1996,-1.2196,-1.2345,-1.2501,-1.2846,-1.3077,-1.3077,-1.3125,-1.3159,-1.3159,-1.3159,-1.3159,-1.3159,-1.3247,-1.3336,-1.3336,-1.3471,-1.409,-1.5487,-1.5612,-1.6236,-1.7637,-1.977,-2.0958,-2.0958,-2.3867,-2.5477,-2.5477,-2.6293,-2.6293,-2.5477,-2.6333,-2.6293,-2.5517,-2.6333,-2.6241,-2.5364,-2.4557,-2.2583,-1.9977,-1.9977,-1.9937,-1.9907,-1.9907,-1.9907,-1.9907,-1.9907,-1.9907,-1.9785,-1.8973,-1.9266,-1.9723,-1.8105,-1.8179,-1.8723,-1.7837,-1.8174,-1.8661,-1.7819,-1.8118,-1.8526,-1.7751,-1.7556,-1.7556,-1.7556,-1.686,-1.6057,-1.5634,-1.4421,-1.3464,-1.341,-1.3444,-1.3464,-1.341,-1.3492,-1.3539,-1.3492,-1.3485,-1.3485,-1.3485,-1.3437,-1.3403,-1.3403,-1.3451,-1.3485,-1.3485,-1.3532,-1.3559,-1.3559,-1.3559,-1.3558,-1.366,-1.366,-1.3734,-1.3919,-1.4021,-1.4193,-1.4299,-1.4299,-1.4299,-1.4299,-1.4299,-1.4299,-0.5451,-0.6337,-0.726,-0.8235,-0.8791,-0.9381,-1.0283,-1.0806,-1.1158,-1.1538,-1.1769,-1.1959,-1.2108,-1.242,-1.2751,-1.2901,-1.2969,-1.3003,-1.3003,-1.3003,-1.3003,-1.3003,-1.3084,-1.3146,-1.3146,-1.3193,-1.4141,-1.6218,-1.6421,-1.7369,-1.9665,-2.1803,-2.3337,-2.4191,-2.5621,-2.6386,-2.6386,-2.6386,-2.6386,-2.6386,-2.6386,-2.6386,-2.6386,-2.6386,-2.6386,-2.6386,-2.6386,-2.4761,-2.2097,-2.2097,-2.2097,-2.2097,-2.2097,-2.2097,-2.2097,-2.2097,-2.2097,-2.1965,-2.1241,-2.1442,-2.1845,-2.0393,-2.0393,-2.0837,-2.0109,-2.0393,-2.0837,-2.0109,-2.0433,-2.0797,-2.0069,-1.9907,-1.9907,-1.9907,-1.9126,-1.8313,-1.7824,-1.544,-1.3403,-1.3403,-1.3403,-1.3403,-1.3403,-1.3403,-1.3403,-1.3403,-1.3403,-1.3403,-1.3403,-1.3403,-1.3403,-1.3403,-1.3403,-1.3403,-1.3403,-1.3403,-1.3403,-1.3403,-1.3403,-1.3444,-1.3546,-1.3511,-1.362,-1.3727,-1.3871,-1.3994,-1.4143,-1.4197,-1.4251,-1.4299,-1.4245,-1.4251,0.0,0.0,0.0,-0.7675,-0.7864,-0.8262,-1.0019,-1.0177,-1.0197,-1.1016,-1.1375,-1.159,-1.1753,-1.1938,-1.2227,-1.2591,-1.2834,-1.2982,-1.2989,-1.2989,-1.2989,-1.2989,-1.2989,-1.2996,-1.2996,-1.2996,-1.3862,-1.5931,-1.6089,-1.7158,-1.9533,-2.1665,-2.3909,-2.6307,-2.6373,-2.6373,-2.6373,-2.6386,-2.6386,-2.6386,-2.6386,-2.6386,-2.6386,-2.6386,-2.6386,-2.6386,-2.6386,-2.6386,-2.6386,-2.6386,-2.6386,-2.6386,-2.6386,-2.6386,-2.6386,-2.6386,-2.6386,-2.6096,-2.3952,-2.4602,-2.57,-2.1482,-2.1482,-2.282,-2.0716,-2.1563,-2.278,-2.0676,-2.1603,-2.274,-2.0635,-2.0069,-2.0069,-2.0069,-2.0028,-1.9988,-1.9988,-1.6623,-1.3604,-1.3604,-1.3604,-1.3604,-1.3604,-1.3521,-1.3521,-1.3562,-1.3521,-1.348,-1.348,-1.348,-1.348,-1.3403,-1.3403,-1.3403,-1.3403,-1.3403,-1.3403,-1.3403,-1.3403,-1.3403,-1.3403,-1.3403,-1.3471,-1.3578,-1.3585,-1.3653,-1.3795,-1.3987,-1.4143,-1.4285,-1.4136,-1.4143,-0.5195,0.0,0.0,0.0,0.0,0.0,-0.8507,-0.8967,-0.946,-1.0344,-1.0628,-1.0826,-1.1409,-1.1545,-1.1687,-1.1989,-1.2305,-1.2508,-1.2617,-1.263,-1.263,-1.263,-1.2725,-1.2793,-1.2793,-1.2895,-1.4493,-1.8062,-1.8288,-1.9925,-2.3646,-2.4405,-2.5035,-2.5706,-2.5959,-2.6118,-2.6118,-2.6279,-2.6386,-2.6386,-2.6386,-2.6386,-2.6386,-2.6386,-2.6386,-2.6386,-2.6386,-2.6386,-2.6386,-2.6386,-2.6386,-2.6386,-2.6386,-2.6386,-2.6386,-2.6386,-2.6386,-2.6307,-2.57,-2.5898,-2.6188,-2.5012,-2.5012,-2.537,-2.4761,-2.5012,-2.537,-2.4761,-2.5052,-2.533,-2.4761,-2.4602,-2.4602,-2.4602,-2.338,-2.2206,-2.2206,-2.0069,-1.8078,-1.8078,-1.8078,-1.8078,-1.8078,-1.6779,-1.6246,-1.7874,-1.6738,-1.5712,-1.5712,-1.5712,-1.511,-1.3562,-1.3403,-1.3403,-1.3403,-1.3403,-1.3403,-1.3403,-1.3403,-1.3403,-1.3403,-1.3403,-1.3417,-1.3464,-1.3531,-1.3605,-1.3646,-1.3788,-1.3883,-1.3923,-1.3883,-1.3883,0.0,-0.6273,-0.6831,-0.6966,0.0,0.0,-0.8289,-0.8507,-0.877,-0.9669,-0.9988,-1.0243,-1.0738,-1.0982,-1.1206,-1.1504,-1.1809,-1.2081,-1.2291,-1.2318,-1.2318,-1.2318,-1.2454,-1.2852,-1.3682,-1.318,-1.4861,-1.9842,-1.9419,-2.0819,-2.509,-2.5451,-2.5518,-2.5518,-2.5678,-2.5864,-2.5998,-2.6172,-2.6266,-2.6386,-2.6386,-2.6386,-2.6386,-2.6386,-2.6386,-2.6386,-2.6386,-2.6386,-2.6386,-2.6386,-2.6386,-2.6386,-2.6386,-2.6386,-2.6386,-2.6386,-2.6386,-2.6386,-2.6386,-2.6386,-2.6386,-2.6386,-2.6386,-2.6386,-2.6386,-2.6386,-2.6386,-2.6386,-2.6386,-2.6386,-2.6386,-2.6386,-2.6386,-2.6386,-2.5409,-2.4482,-2.4482,-2.35,-2.2046,-2.0231,-1.9907,-1.9907,-1.9907,-1.8851,-1.8404,-1.9704,-1.8811,-1.7996,-1.7996,-1.7996,-1.7506,-1.6254,-1.609,-1.609,-1.609,-1.609,-1.609,-1.609,-1.609,-1.609,-1.609,-1.609,-1.5687,-1.4739,-1.4795,-1.4396,-1.3532,-1.3639,-1.3707,-1.3714,-1.3768,-1.3795,-0.6532,-0.6736,0.0,-0.7797,-0.7405,0.0,-0.8648,-0.8445,-0.8155,-0.8893,-0.9306,-0.9609,-0.9832,-1.0211,-1.0622,-1.0948,-1.1253,-1.1606,-1.2016,-1.2091,-1.2098,-1.2098,-1.222,-1.297,-1.4785,-1.3611,-1.5099,-2.0751,-1.995,-2.0947,-2.486,-2.5277,-2.5411,-2.5411,-2.5451,-2.5598,-2.5891,-2.5931,-2.6091,-2.6346,-2.6306,-2.6333,-2.6386,-2.636,-2.636,-2.6386,-2.6386,-2.6386,-2.6386,-2.6386,-2.6386,-2.6386,-2.6386,-2.6386,-2.6386,-2.6386,-2.6386,-2.6386,-2.6386,-2.6386,-2.6386,-2.6386,-2.6386,-2.6386,-2.6386,-2.6386,-2.6386,-2.6386,-2.6386,-2.6386,-2.6386,-2.6386,-2.6386,-2.6386,-2.6386,-2.6386,-2.6386,-2.6386,-2.5251,-2.1362,-2.0635,-2.0635,-2.0635,-2.0433,-2.0352,-2.0595,-2.0393,-2.0271,-2.0271,-2.0271,-2.015,-1.9947,-1.9907,-1.9907,-1.9907,-1.9907,-1.9907,-1.9907,-1.9907,-1.9907,-1.9907,-1.9907,-1.8973,-1.7016,-1.6729,-1.5555,-1.3403,-1.3539,-1.3565,-1.3565,-1.3693,-1.3747,-0.7362,-0.7682,-0.8072,-0.7641,-0.7845,0.0,-0.7601,-0.7587,-0.776,-0.8018,-0.8052,-0.8228,-0.8825,-0.9115,-0.9352,-0.9709,-1.0188,-1.0853,-1.1748,-1.1986,-1.2098,-1.2098,-1.2125,-1.2288,-1.2692,-1.3752,-1.5602,-1.8393,-2.1398,-2.359,-2.4629,-2.4733,-2.4773,-2.4773,-2.5037,-2.5197,-2.5251,-2.5478,-2.5745,-2.6078,-2.5798,-2.5932,-2.6386,-2.6185,-2.6212,-2.6386,-2.6386,-2.6386,-2.6386,-2.6386,-2.6386,-2.6386,-2.6386,-2.6386,-2.6386,-2.6386,-2.6386,-2.6386,-2.6386,-2.6386,-2.6386,-2.6386,-2.6386,-2.6386,-2.6386,-2.6386,-2.6386,-2.6386,-2.6386,-2.6386,-2.6386,-2.6386,-2.6386,-2.6386,-2.6386,-2.6386,-2.6386,-2.6386,-2.6149,-2.529,-2.5131,-2.5131,-2.5131,-2.3672,-2.306,-2.484,-2.3632,-2.2499,-2.2499,-2.2499,-2.1804,-2.0069,-1.9907,-1.9907,-1.9907,-1.9907,-1.9907,-1.9907,-1.9907,-1.9907,-1.9907,-1.9907,-1.9704,-1.9258,-1.7506,-1.5555,-1.3403,-1.3431,-1.3444,-1.3444,-1.3471,-1.3485,-0.8029,-0.8172,-0.8457,-0.8208,-0.8147,0.0,0.0,-0.7699,-0.7634,-0.8052,-0.7855,-0.7828,-0.8574,-0.871,-0.8832,-0.9233,-0.9707,-1.0236,-1.0725,-1.128,-1.1649,-1.1649,-1.1717,-1.2184,-1.3231,-1.3344,-1.4632,-1.7676,-2.1679,-2.4048,-2.4195,-2.4342,-2.4386,-2.4386,-2.4703,-2.493,-2.5115,-2.5224,-2.5451,-2.5732,-2.5585,-2.5665,-2.5945,-2.5798,-2.5812,-2.5959,-2.6145,-2.6212,-2.6225,-2.6333,-2.6386,-2.6386,-2.6386,-2.6386,-2.6386,-2.6386,-2.6386,-2.6386,-2.6386,-2.6386,-2.6386,-2.6386,-2.6386,-2.6386,-2.6386,-2.6386,-2.6386,-2.6386,-2.6386,-2.6386,-2.6386,-2.6386,-2.6386,-2.6386,-2.6386,-2.6386,-2.6386,-2.6386,-2.6386,-2.6386,-2.6386,-2.6386,-2.6386,-2.5489,-2.5131,-2.6228,-2.5449,-2.4761,-2.4761,-2.4761,-2.4323,-2.326,-2.314,-2.314,-2.314,-2.314,-2.314,-2.314,-2.314,-2.314,-2.314,-2.314,-2.2619,-2.1523,-1.8272,-1.6082,-1.4987,-1.3928,-1.3403,-1.3403,-1.3403,-1.3403,-0.8702,-0.8682,-0.8811,-0.8885,-0.8561,-0.8263,0.0,0.0,0.0,-0.8126,-0.7841,-0.7706,-0.8336,-0.835,-0.8423,-0.8818,-0.9252,-0.9551,-0.9523,-1.0243,-1.0839,-1.0927,-1.1125,-1.1914,-1.3622,-1.2942,-1.4003,-1.796,-2.1321,-2.3362,-2.371,-2.3901,-2.4088,-2.4195,-2.4399,-2.4703,-2.4997,-2.4997,-2.5144,-2.5424,-2.5371,-2.5398,-2.5504,-2.5451,-2.5464,-2.5531,-2.581,-2.5904,-2.5931,-2.6119,-2.6226,-2.6226,-2.6346,-2.6386,-2.6386,-2.6386,-2.6386,-2.6386,-2.6386,-2.6386,-2.6386,-2.6386,-2.6386,-2.6386,-2.6386,-2.6386,-2.6386,-2.6386,-2.6386,-2.6386,-2.6386,-2.6386,-2.6386,-2.6386,-2.6346,-2.6306,-2.6306,-2.6266,-2.6226,-2.6226,-2.6226,-2.6253,-2.6373,-2.6386,-2.6386,-2.6386,-2.6386,-2.6386,-2.6386,-2.6386,-2.6386,-2.6386,-2.6386,-2.6386,-2.6386,-2.6386,-2.6386,-2.6386,-2.6386,-2.6386,-2.6386,-2.6386,-2.537,-2.314,-1.9644,-1.7456,-1.6606,-1.4863,-1.3811,-1.3403,-1.3403,-1.3403,-0.9544,-0.9629,-0.969,-0.9068,-0.9339,-0.9406,-0.8045,0.0,-0.8029,-0.7391,0.0,-0.7235,-0.7505,0.0,0.0,-0.7746,-0.8262,-0.8614,-0.8492,-0.9015,-0.956,-0.9924,-1.0337,-1.07,-1.0937,-1.3062,-1.5891,-1.9323,-2.0506,-2.171,-2.3252,-2.3372,-2.3661,-2.4182,-2.4235,-2.4396,-2.4653,-2.4653,-2.4836,-2.513,-2.4826,-2.4973,-2.5504,-2.5251,-2.5277,-2.5518,-2.5545,-2.5558,-2.5558,-2.5598,-2.5611,-2.5665,-2.6186,-2.6386,-2.6386,-2.6386,-2.6386,-2.6386,-2.6386,-2.6386,-2.6386,-2.6386,-2.6386,-2.6386,-2.6386,-2.6386,-2.6386,-2.6386,-2.6386,-2.6386,-2.6386,-2.6386,-2.6386,-2.6386,-2.6238,-2.6051,-2.6051,-2.5798,-2.5611,-2.5611,-2.5611,-2.5785,-2.6293,-2.6386,-2.6386,-2.6386,-2.6386,-2.6386,-2.6386,-2.6386,-2.6386,-2.6386,-2.6386,-2.6386,-2.6386,-2.6386,-2.6386,-2.6386,-2.6386,-2.6386,-2.6386,-2.6386,-2.537,-2.314,-2.2608,-2.0463,-1.6606,-1.636,-1.5267,-1.3403,-1.3403,-1.3403,-0.9557,-0.9632,-0.967,-0.9293,-0.9271,-0.9176,-0.8418,-0.8119,-0.7991,-0.7929,0.0,0.0,0.0,0.0,0.0,0.0,-0.7757,-0.7811,-0.7638,-0.7984,-0.8573,-0.9369,-1.0273,-1.0989,-1.1352,-1.3394,-1.542,-1.7163,-1.9218,-2.0895,-2.1977,-2.2686,-2.3166,-2.3455,-2.3928,-2.4262,-2.4382,-2.4519,-2.4666,-2.4823,-2.4653,-2.4733,-2.4959,-2.4877,-2.4853,-2.4973,-2.5184,-2.5264,-2.5277,-2.5451,-2.5518,-2.5545,-2.5785,-2.5985,-2.6198,-2.6333,-2.6386,-2.6386,-2.6386,-2.6386,-2.6386,-2.6386,-2.6279,-2.6172,-2.6172,-2.6012,-2.5879,-2.5879,-2.5879,-2.5879,-2.5879,-2.5879,-2.5879,-2.5879,-2.5785,-2.5692,-2.5692,-2.5598,-2.5518,-2.5518,-2.5518,-2.5585,-2.5838,-2.5879,-2.5879,-2.5879,-2.6026,-2.6172,-2.6172,-2.6279,-2.6386,-2.6386,-2.6386,-2.6386,-2.6386,-2.6386,-2.6386,-2.6386,-2.6386,-2.6386,-2.6386,-2.6386,-2.5938,-2.5039,-2.3752,-2.2206,-2.0382,-1.7824,-1.6123,-1.5226,-1.3969,-1.3403,-0.97,-0.9707,-0.972,-0.943,-0.9157,-0.8885,-0.8574,-0.8257,-0.8113,-0.8316,-0.8031,0.0,0.0,0.0,-0.735,-0.7516,0.0,-0.7328,-0.7087,-0.7249,-0.7726,-0.8594,-1.0069,-1.1199,-1.1714,-1.3322,-1.4724,-1.5638,-1.7921,-1.9743,-2.0922,-2.1871,-2.2559,-2.288,-2.3581,-2.4035,-2.4209,-2.4372,-2.4519,-2.4599,-2.4599,-2.4599,-2.4599,-2.4599,-2.4599,-2.4613,-2.4863,-2.4957,-2.497,-2.5184,-2.5239,-2.5277,-2.5358,-2.5531,-2.5797,-2.6039,-2.6146,-2.6159,-2.6239,-2.6266,-2.6292,-2.6172,-2.6012,-2.5877,-2.5877,-2.5678,-2.5518,-2.5518,-2.5518,-2.5518,-2.5518,-2.5518,-2.5518,-2.5518,-2.5451,-2.5398,-2.5398,-2.5331,-2.5239,-2.5239,-2.5239,-2.5239,-2.5239,-2.5411,-2.5518,-2.5518,-2.5692,-2.5877,-2.5877,-2.6131,-2.6239,-2.6159,-2.6226,-2.6239,-2.6159,-2.6226,-2.6306,-2.6386,-2.6386,-2.6386,-2.6386,-2.6386,-2.6386,-2.6386,-2.4801,-2.3712,-2.31,-1.9937,-1.8068,-1.7424,-1.4664,-1.3403,-1.0322,-1.0256,-1.0111,-0.9376,-0.9207,-0.8981,-0.8202,-0.8358,-0.8534,-0.8115,-0.8351,-0.8514,-0.8101,-0.7885,-0.7699,0.0,-0.7396,0.0,0.0,-0.6924,-0.7046,-0.7416,-0.9392,-1.081,-1.11,-1.2703,-1.4443,-1.6155,-1.6602,-1.7956,-2.0579,-2.0989,-2.1683,-2.2853,-2.318,-2.3621,-2.4195,-2.4209,-2.4356,-2.4599,-2.4599,-2.4599,-2.4599,-2.4599,-2.4599,-2.4599,-2.4613,-2.4613,-2.4613,-2.4626,-2.4626,-2.4653,-2.4983,-2.5141,-2.5144,-2.5438,-2.5545,-2.5585,-2.5904,-2.6011,-2.5957,-2.5638,-2.5531,-2.5531,-2.5531,-2.5518,-2.5518,-2.5518,-2.5518,-2.5518,-2.5518,-2.5518,-2.5518,-2.5518,-2.5304,-2.509,-2.509,-2.4863,-2.4626,-2.4626,-2.4626,-2.4626,-2.4626,-2.5093,-2.5518,-2.5518,-2.5518,-2.5531,-2.5531,-2.5824,-2.5904,-2.5571,-2.5837,-2.5891,-2.5558,-2.5837,-2.6131,-2.6373,-2.6386,-2.6386,-2.6386,-2.6386,-2.6386,-2.6386,-2.6347,-2.5251,-2.31,-2.298,-2.1804,-1.9704,-1.5399,-1.3403,-1.0322,-1.0351,-1.0263,-0.9618,-0.941,-0.9158,-0.8479,-0.8526,-0.8554,-0.8108,-0.8372,-0.8547,-0.8094,-0.781,-0.7604,0.0,-0.7144,-0.6845,0.0,-0.7147,-0.8028,-0.9116,-0.906,-0.9482,-1.0962,-1.1959,-1.3188,-1.4862,-1.6416,-1.805,-1.9749,-2.0641,-2.147,-2.2291,-2.28,-2.322,-2.3585,-2.4008,-2.4249,-2.4356,-2.4506,-2.4599,-2.4599,-2.4599,-2.4599,-2.4599,-2.4599,-2.4599,-2.4599,-2.4599,-2.4599,-2.4613,-2.4706,-2.4783,-2.485,-2.5331,-2.5518,-2.5531,-2.5625,-2.5665,-2.5651,-2.5545,-2.5384,-2.5224,-2.5224,-2.509,-2.4893,-2.4893,-2.4893,-2.4893,-2.4893,-2.4893,-2.4893,-2.4893,-2.4863,-2.4783,-2.4783,-2.4666,-2.4599,-2.4599,-2.4599,-2.4599,-2.4599,-2.4759,-2.4893,-2.4893,-2.5104,-2.5224,-2.5224,-2.5478,-2.5625,-2.5518,-2.5598,-2.5625,-2.5518,-2.5598,-2.5705,-2.5798,-2.5812,-2.5812,-2.5812,-2.6038,-2.6145,-2.6145,-2.6293,-2.6017,-2.529,-2.3832,-2.274,-2.1965,-1.9055,-1.7719,-1.1126,-1.1377,-1.143,-1.1487,-1.1446,-1.1077,-0.9797,-0.9696,-0.9736,-0.926,-0.9313,-0.9598,-1.0227,-0.9599,-0.8988,0.0,0.0,-0.7816,0.0,-0.8127,-0.8978,-0.9777,-0.9629,-1.012,-1.1765,-1.219,-1.3105,-1.4896,-1.6123,-1.7488,-1.9,-2.016,-2.1122,-2.1836,-2.2425,-2.2899,-2.3292,-2.3701,-2.3941,-2.4048,-2.4342,-2.4439,-2.4452,-2.4559,-2.4599,-2.4599,-2.4599,-2.4599,-2.4599,-2.4599,-2.4599,-2.4599,-2.4599,-2.4599,-2.4653,-2.5026,-2.5264,-2.5344,-2.5237,-2.5264,-2.5344,-2.5237,-2.5077,-2.4917,-2.4917,-2.4783,-2.4599,-2.4599,-2.4599,-2.4599,-2.4599,-2.4599,-2.4599,-2.4599,-2.4599,-2.4599,-2.4599,-2.4599,-2.4599,-2.4599,-2.4599,-2.4599,-2.4599,-2.4599,-2.4599,-2.4599,-2.4796,-2.4917,-2.4917,-2.5184,-2.5317,-2.5173,-2.5291,-2.5358,-2.5358,-2.5358,-2.5411,-2.5504,-2.5518,-2.5518,-2.5518,-2.5692,-2.5837,-2.5837,-2.5985,-2.6079,-2.6079,-2.477,-2.4135,-2.4095,-2.2813,-2.2218]},{"header":{"parameterUnit":"m.s-1","parameterCategory":1,"la1":30.6,"la2":29.2853,"lo1":-89.7004,"lo2":-87.6739,"dy":0.0162,"dx":0.0183,"nx":112,"ny":82,"refTime":"2024-09-07T18:00:00:Z","depth":0,"parameterNumber":3,"parameterNumberName":"V-component_of_WINDS"},"data":[0.0,0.0,0.0,0.0,0.0,0.0,0.0,0.0,0.0,0.0,0.0,0.0,0.0,0.0,0.0,0.0,0.0,0.0,0.0,0.0,0.0,0.0,0.0,0.0,0.0,0.0,0.0,0.0,0.0,0.0,0.0,0.0,0.0,0.0,0.0,0.0,0.0,0.0,0.0,0.0,0.0,0.0,0.0,0.0,0.0,0.0,0.0,0.0,0.0,0.0,0.0,0.0,0.0,0.0,0.0,0.0,0.0,0.0,0.0,0.0,0.0,0.0,0.0,0.0,0.0,0.0,0.0,0.0,0.0,0.0,0.0,0.0,0.0,0.0,0.0,0.0,0.0,0.0,0.0,0.0,0.0,0.0,0.0,0.0,0.0,0.0,0.0,0.0,0.0,0.0,4.7244,5.1592,5.7286,6.0787,6.0787,5.9896,5.6549,5.001,0.0,0.0,0.0,0.0,0.0,0.0,0.0,0.0,0.0,0.0,0.0,0.0,0.0,0.0,0.0,0.0,0.0,0.0,0.0,0.0,0.0,0.0,0.0,0.0,0.0,0.0,0.0,0.0,0.0,0.0,0.0,0.0,0.0,0.0,0.0,0.0,0.0,0.0,0.0,0.0,0.0,0.0,0.0,0.0,0.0,0.0,0.0,0.0,0.0,0.0,0.0,0.0,0.0,0.0,0.0,0.0,0.0,0.0,0.0,0.0,0.0,0.0,0.0,0.0,0.0,0.0,0.0,0.0,0.0,0.0,0.0,0.0,0.0,0.0,0.0,0.0,0.0,0.0,0.0,0.0,0.0,0.0,0.0,0.0,0.0,0.0,0.0,0.0,0.0,0.0,0.0,0.0,0.0,0.0,0.0,0.0,0.0,0.0,0.0,0.0,0.0,0.0,0.0,0.0,4.8822,5.7242,5.9742,6.0787,6.0787,5.9396,5.6203,5.0822,0.0,0.0,0.0,0.0,0.0,0.0,0.0,0.0,0.0,0.0,0.0,0.0,0.0,0.0,0.0,0.0,0.0,0.0,0.0,0.0,0.0,0.0,0.0,0.0,0.0,0.0,0.0,0.0,0.0,0.0,0.0,0.0,0.0,0.0,0.0,0.0,0.0,0.0,0.0,0.0,0.0,0.0,0.0,0.0,0.0,0.0,0.0,0.0,0.0,0.0,0.0,0.0,0.0,0.0,0.0,0.0,0.0,0.0,0.0,0.0,0.0,0.0,0.0,0.0,0.0,0.0,0.0,0.0,0.0,0.0,0.0,0.0,0.0,0.0,0.0,0.0,0.0,0.0,0.0,0.0,0.0,0.0,0.0,0.0,0.0,0.0,0.0,0.0,0.0,0.0,0.0,0.0,0.0,0.0,0.0,0.0,0.0,0.0,0.0,0.0,0.0,0.0,0.0,4.7009,5.1399,5.9358,6.0556,6.0787,6.0787,5.9242,5.5934,5.0361,4.4782,0.0,0.0,0.0,0.0,0.0,0.0,0.0,0.0,0.0,0.0,0.0,0.0,0.0,0.0,0.0,0.0,0.0,0.0,0.0,0.0,0.0,0.0,0.0,0.0,0.0,0.0,0.0,0.0,0.0,0.0,0.0,0.0,0.0,0.0,0.0,0.0,0.0,0.0,0.0,0.0,0.0,0.0,0.0,0.0,0.0,0.0,0.0,0.0,0.0,0.0,0.0,0.0,0.0,0.0,0.0,0.0,0.0,0.0,0.0,0.0,0.0,0.0,0.0,0.0,0.0,0.0,0.0,0.0,0.0,0.0,0.0,0.0,0.0,0.0,0.0,0.0,0.0,0.0,0.0,0.0,0.0,0.0,0.0,0.0,0.0,0.0,0.0,0.0,0.0,0.0,0.0,0.0,0.0,0.0,0.0,0.0,0.0,0.0,0.0,0.0,0.0,0.0,5.2125,5.44,6.0171,6.0787,6.0787,6.0787,5.8357,5.4659,4.9702,4.2859,0.0,0.0,0.0,0.0,0.0,0.0,0.0,0.0,0.0,0.0,0.0,0.0,0.0,0.0,0.0,0.0,0.0,0.0,0.0,0.0,0.0,0.0,0.0,0.0,0.0,0.0,0.0,0.0,0.0,0.0,0.0,0.0,0.0,0.0,0.0,0.0,0.0,0.0,0.0,0.0,0.0,0.0,0.0,0.0,0.0,0.0,0.0,0.0,0.0,0.0,0.0,0.0,0.0,0.0,0.0,0.0,0.0,0.0,0.0,0.0,0.0,0.0,0.0,0.0,0.0,0.0,0.0,0.0,0.0,0.0,0.0,0.0,0.0,0.0,0.0,0.0,0.0,0.0,0.0,0.0,0.0,0.0,0.0,0.0,0.0,0.0,0.0,0.0,0.0,0.0,0.0,0.0,0.0,0.0,0.0,0.0,0.0,0.0,0.0,0.0,0.0,0.0,5.3197,5.7659,6.0517,6.0787,6.0787,6.0787,5.5621,5.1505,4.951,4.0127,0.0,0.0,0.0,0.0,0.0,0.0,0.0,0.0,0.0,0.0,0.0,0.0,0.0,0.0,0.0,0.0,0.0,0.0,0.0,0.0,0.0,0.0,0.0,0.0,0.0,0.0,0.0,0.0,0.0,0.0,0.0,0.0,0.0,0.0,0.0,0.0,0.0,0.0,0.0,0.0,0.0,0.0,0.0,0.0,0.0,0.0,0.0,0.0,0.0,0.0,0.0,0.0,0.0,0.0,0.0,0.0,0.0,0.0,0.0,0.0,0.0,0.0,0.0,0.0,0.0,0.0,0.0,0.0,0.0,0.0,0.0,0.0,0.0,0.0,0.0,0.0,0.0,0.0,0.0,0.0,0.0,0.0,0.0,0.0,0.0,0.0,0.0,0.0,0.0,0.0,0.0,0.0,0.0,0.0,0.0,0.0,0.0,0.0,0.0,0.0,0.0,0.0,5.1928,5.6198,6.0358,6.0787,6.0787,6.0787,5.7286,5.301,4.8163,0.0,0.0,0.0,0.0,0.0,0.0,0.0,0.0,0.0,0.0,0.0,0.0,0.0,0.0,0.0,0.0,0.0,0.0,0.0,0.0,0.0,0.0,0.0,0.0,0.0,0.0,0.0,0.0,0.0,0.0,0.0,0.0,0.0,0.0,0.0,0.0,0.0,0.0,0.0,0.0,0.0,0.0,0.0,0.0,0.0,0.0,0.0,0.0,0.0,0.0,0.0,0.0,0.0,0.0,0.0,0.0,0.0,0.0,0.0,0.0,0.0,0.0,0.0,0.0,0.0,0.0,0.0,0.0,0.0,0.0,0.0,0.0,0.0,0.0,0.0,0.0,0.0,0.0,0.0,0.0,0.0,0.0,0.0,0.0,0.0,0.0,0.0,0.0,0.0,0.0,0.0,0.0,0.0,0.0,0.0,0.0,0.0,0.0,0.0,0.0,0.0,0.0,4.7158,5.2043,5.6357,6.0358,6.0787,6.0787,6.0787,5.7247,5.2669,4.7235,0.0,0.0,0.0,0.0,0.0,0.0,0.0,0.0,0.0,0.0,0.0,0.0,0.0,0.0,0.0,0.0,0.0,0.0,0.0,0.0,0.0,0.0,0.0,0.0,0.0,0.0,0.0,0.0,0.0,0.0,0.0,0.0,0.0,0.0,0.0,0.0,0.0,0.0,0.0,0.0,0.0,0.0,0.0,0.0,0.0,0.0,0.0,0.0,0.0,0.0,0.0,0.0,0.0,0.0,0.0,0.0,0.0,0.0,0.0,0.0,0.0,0.0,0.0,0.0,0.0,0.0,0.0,0.0,0.0,0.0,0.0,0.0,0.0,0.0,0.0,0.0,0.0,0.0,0.0,0.0,0.0,0.0,0.0,0.0,0.0,0.0,0.0,0.0,0.0,0.0,0.0,0.0,0.0,0.0,0.0,0.0,0.0,0.0,0.0,0.0,0.0,0.0,4.7428,5.4082,5.8934,6.0633,6.0787,6.0787,6.0787,5.4631,4.9668,0.0,0.0,0.0,0.0,0.0,0.0,0.0,0.0,0.0,0.0,0.0,0.0,0.0,0.0,0.0,0.0,0.0,0.0,0.0,0.0,0.0,0.0,0.0,0.0,0.0,0.0,0.0,0.0,0.0,0.0,0.0,0.0,0.0,0.0,0.0,0.0,0.0,0.0,0.0,0.0,0.0,0.0,0.0,0.0,0.0,0.0,0.0,0.0,0.0,0.0,0.0,0.0,0.0,0.0,0.0,0.0,0.0,0.0,0.0,0.0,0.0,0.0,0.0,0.0,0.0,0.0,0.0,0.0,0.0,0.0,0.0,0.0,0.0,0.0,0.0,0.0,0.0,0.0,0.0,0.0,0.0,0.0,0.0,0.0,0.0,0.0,0.0,0.0,0.0,0.0,0.0,0.0,0.0,0.0,0.0,0.0,0.0,0.0,0.0,0.0,0.0,0.0,0.0,4.7428,5.4082,5.8934,6.0633,6.0787,6.0787,6.0787,5.6747,5.2125,4.7197,0.0,0.0,0.0,0.0,0.0,0.0,0.0,0.0,0.0,0.0,0.0,0.0,0.0,0.0,0.0,0.0,0.0,0.0,0.0,0.0,0.0,0.0,0.0,0.0,0.0,0.0,0.0,0.0,0.0,0.0,0.0,0.0,0.0,0.0,0.0,0.0,0.0,0.0,0.0,0.0,0.0,0.0,0.0,0.0,0.0,0.0,0.0,0.0,0.0,0.0,0.0,0.0,0.0,0.0,0.0,0.0,0.0,0.0,0.0,0.0,0.0,0.0,0.0,0.0,0.0,0.0,0.0,0.0,0.0,0.0,0.0,0.0,0.0,0.0,0.0,0.0,0.0,0.0,0.0,0.0,0.0,0.0,0.0,0.0,0.0,0.0,0.0,0.0,0.0,0.0,0.0,0.0,0.0,0.0,0.0,0.0,0.0,0.0,0.0,0.0,0.0,0.0,4.7932,5.428,5.8934,6.0633,6.0787,6.0787,6.0787,5.7978,5.3823,4.824,0.0,0.0,0.0,0.0,0.0,0.0,0.0,0.0,0.0,0.0,0.0,0.0,0.0,0.0,0.0,0.0,0.0,0.0,0.0,0.0,0.0,0.0,0.0,0.0,0.0,0.0,0.0,0.0,0.0,0.0,0.0,0.0,0.0,0.0,0.0,0.0,0.0,0.0,0.0,0.0,0.0,0.0,0.0,0.0,0.0,0.0,0.0,0.0,0.0,0.0,0.0,0.0,0.0,0.0,0.0,0.0,0.0,0.0,0.0,0.0,0.0,0.0,0.0,0.0,0.0,0.0,0.0,0.0,0.0,0.0,0.0,0.0,0.0,0.0,0.0,0.0,0.0,0.0,0.0,0.0,0.0,0.0,0.0,0.0,0.0,0.0,0.0,0.0,0.0,0.0,0.0,0.0,0.0,0.0,0.0,0.0,0.0,0.0,0.0,0.0,0.0,0.0,4.8625,5.4664,5.9011,6.0633,6.0787,6.0787,6.0787,5.8555,5.4977,4.9933,0.0,0.0,0.0,0.0,0.0,0.0,0.0,0.0,0.0,0.0,0.0,0.0,0.0,0.0,0.0,0.0,0.0,0.0,0.0,0.0,0.0,0.0,0.0,0.0,0.0,0.0,0.0,0.0,0.0,0.0,0.0,0.0,0.0,0.0,0.0,0.0,0.0,0.0,0.0,0.0,0.0,0.0,0.0,0.0,0.0,0.0,0.0,0.0,0.0,0.0,0.0,0.0,0.0,0.0,0.0,0.0,0.0,0.0,0.0,0.0,4.1384,3.8288,0.0,0.0,0.0,0.0,0.0,0.0,0.0,0.0,0.0,0.0,0.0,0.0,0.0,0.0,0.0,0.0,0.0,0.0,0.0,0.0,0.0,0.0,0.0,0.0,0.0,0.0,0.0,0.0,0.0,0.0,0.0,0.0,0.0,0.0,0.0,0.0,0.0,0.0,0.0,0.0,4.8702,5.5164,5.9627,6.071,6.0787,6.0787,6.0787,5.9088,5.6126,5.1659,4.7048,0.0,0.0,0.0,0.0,0.0,0.0,0.0,0.0,0.0,0.0,0.0,0.0,0.0,0.0,0.0,0.0,0.0,0.0,0.0,0.0,0.0,0.0,0.0,0.0,0.0,0.0,0.0,0.0,0.0,0.0,0.0,0.0,0.0,0.0,0.0,0.0,0.0,0.0,0.0,0.0,0.0,0.0,0.0,0.0,0.0,0.0,0.0,0.0,0.0,0.0,0.0,0.0,0.0,0.0,0.0,0.0,0.0,0.0,0.0,4.885,4.6094,0.0,0.0,0.0,0.0,0.0,0.0,0.0,0.0,0.0,0.0,0.0,0.0,0.0,0.0,0.0,0.0,0.0,0.0,0.0,0.0,0.0,0.0,0.0,0.0,0.0,0.0,0.0,0.0,0.0,0.0,0.0,0.0,0.0,0.0,0.0,0.0,0.0,0.0,0.0,0.0,4.9966,5.5818,5.9819,6.0704,6.0787,6.0787,6.0787,5.9627,5.7588,5.4549,5.0399,0.0,0.0,0.0,0.0,0.0,0.0,0.0,0.0,0.0,0.0,0.0,0.0,0.0,0.0,0.0,0.0,0.0,0.0,0.0,0.0,0.0,0.0,0.0,0.0,0.0,0.0,0.0,0.0,0.0,0.0,0.0,0.0,0.0,0.0,0.0,0.0,0.0,0.0,0.0,0.0,0.0,0.0,0.0,0.0,0.0,0.0,0.0,0.0,0.0,0.0,0.0,0.0,0.0,5.7559,5.9011,6.0275,6.0435,6.1243,6.2263,5.6868,5.523,5.6,5.1371,0.0,0.0,0.0,0.0,0.0,0.0,0.0,0.0,0.0,0.0,0.0,0.0,0.0,0.0,0.0,0.0,0.0,0.0,0.0,0.0,0.0,0.0,5.1202,5.3895,5.5322,5.4096,4.6746,0.0,0.0,0.0,0.0,0.0,0.0,0.0,0.0,0.0,0.0,0.0,5.1736,5.6659,6.0012,6.0704,6.0787,6.0787,6.0787,6.0127,5.9011,5.7324,5.3823,5.0399,0.0,0.0,0.0,0.0,0.0,0.0,0.0,0.0,0.0,0.0,0.0,0.0,0.0,0.0,0.0,0.0,0.0,0.0,0.0,0.0,0.0,0.0,0.0,0.0,0.0,0.0,0.0,0.0,0.0,0.0,0.0,0.0,3.9558,4.1285,0.0,0.0,0.0,0.0,0.0,0.0,0.0,0.0,0.0,0.0,0.0,0.0,0.0,5.5467,5.7866,6.1964,6.3744,6.3245,6.7077,6.8667,6.8205,6.8936,6.936,6.9513,6.8652,0.0,5.8896,5.7478,0.0,0.0,0.0,0.0,0.0,0.0,0.0,0.0,0.0,0.0,0.0,0.0,0.0,0.0,0.0,0.0,0.0,0.0,0.0,0.0,0.0,0.0,6.0171,5.9858,6.1144,6.1667,5.9052,5.2665,4.6547,4.3547,4.197,4.0196,0.0,0.0,0.0,0.0,0.0,0.0,5.3587,5.7934,6.0671,6.0787,6.0787,6.0787,6.0787,6.071,5.9896,5.8242,5.689,5.5313,5.3395,4.8856,0.0,0.0,0.0,0.0,0.0,0.0,0.0,0.0,0.0,0.0,0.0,0.0,0.0,0.0,0.0,0.0,0.0,0.0,0.0,0.0,0.0,0.0,0.0,0.0,0.0,0.0,0.0,0.0,0.0,3.8857,4.3603,4.4262,4.4542,4.362,0.0,0.0,0.0,0.0,0.0,0.0,0.0,0.0,0.0,5.8736,6.055,6.2666,6.5205,6.7552,6.8744,6.8898,7.1245,7.2392,7.2507,7.2853,7.3053,7.3014,7.2552,7.0167,6.6397,6.3166,6.0006,5.689,0.0,0.0,0.0,0.0,5.3664,5.4434,5.7588,5.8011,5.6896,5.5088,0.0,0.0,0.0,0.0,0.0,0.0,0.0,5.3133,5.579,5.9413,6.2538,6.3072,6.3841,6.4216,6.3486,5.9943,5.5479,5.0539,4.9273,4.7325,4.1899,4.2313,0.0,0.0,0.0,5.2815,5.5537,5.8786,6.0787,6.0787,6.0787,6.0787,6.0787,6.0787,6.0473,5.9742,5.8896,5.7852,5.6665,5.3549,5.0125,0.0,0.0,0.0,0.0,0.0,0.0,0.0,0.0,0.0,0.0,0.0,0.0,0.0,0.0,0.0,0.0,0.0,0.0,0.0,0.0,0.0,0.0,0.0,0.0,0.0,0.0,0.0,0.0,4.297,4.7475,4.7244,4.874,4.8312,0.0,0.0,0.0,0.0,0.0,0.0,5.6011,5.8511,6.1666,6.5474,6.7244,6.9283,7.1629,7.2437,7.3175,7.3829,7.4476,7.5091,7.5668,7.5737,7.5739,7.5707,7.5189,7.4461,7.3251,6.8289,6.559,6.4275,6.0902,5.9863,6.0358,6.1166,6.1589,6.2255,6.5501,6.5762,6.4386,6.2511,6.0495,5.8071,5.4267,0.0,0.0,0.0,0.0,5.7658,6.0827,6.241,6.3609,6.5073,6.5453,6.5481,6.5481,6.4821,6.2567,5.7032,5.6191,5.4391,4.8025,4.8937,0.0,4.8557,5.2351,5.5982,5.7573,5.962,6.0928,6.0928,6.0928,6.0928,6.0928,6.0866,6.0861,6.0861,6.0211,5.955,5.8973,5.728,5.4357,5.0125,0.0,0.0,0.0,0.0,0.0,0.0,0.0,0.0,0.0,0.0,0.0,0.0,0.0,0.0,0.0,0.0,0.0,0.0,0.0,0.0,0.0,0.0,0.0,0.0,0.0,0.0,0.0,0.0,0.0,5.1697,5.5236,0.0,0.0,0.0,0.0,5.5054,5.9056,6.221,6.3935,6.6429,6.9052,7.1675,7.3399,7.513,7.6907,7.7715,7.8138,7.8176,7.8215,7.8253,7.8307,7.8502,7.8607,7.8624,7.8811,7.8439,7.7237,7.2542,6.9629,6.8045,6.7013,6.6134,6.5634,6.6404,6.7244,6.802,6.8413,6.851,6.8437,6.8422,6.6205,6.3503,6.3231,6.15,0.0,0.0,6.2123,6.2813,6.5399,6.5546,6.519,6.6118,6.6417,6.6532,6.6532,6.5873,6.4682,6.2554,6.1515,6.0074,5.7279,0.0,5.5774,5.5667,5.6635,5.7954,5.9646,6.0685,6.1262,6.1262,6.1262,6.1262,6.1262,6.1101,6.0984,6.0984,6.0827,6.0704,6.0671,5.905,5.728,5.5362,4.9663,0.0,0.0,0.0,0.0,0.0,0.0,0.0,0.0,0.0,0.0,0.0,0.0,0.0,0.0,0.0,0.0,0.0,0.0,0.0,0.0,0.0,0.0,0.0,0.0,0.0,0.0,0.0,0.0,5.6698,5.9583,0.0,5.7478,5.9742,6.1666,6.221,6.5673,6.8551,7.0402,7.2412,7.421,7.5823,7.6987,7.7875,7.8529,7.8801,7.8956,7.8956,7.9494,7.9727,7.9727,7.9785,7.9822,7.9826,7.9369,7.9013,7.8613,7.6945,7.4892,7.2748,7.1865,7.1361,7.1132,7.1438,7.1749,7.2029,7.2072,7.21,7.1956,7.0901,6.902,6.7022,6.6599,6.6235,6.598,6.6142,6.6619,6.7124,6.7472,6.7314,6.704,6.6766,6.6779,6.6789,6.6789,6.6555,6.6162,6.5485,6.4121,6.2292,5.9731,6.0471,6.0623,5.8238,5.9596,6.0893,6.0839,6.1095,6.1286,6.1286,6.1286,6.1286,6.1286,6.1234,6.096,6.0374,6.0305,6.0026,5.9475,5.8859,5.7505,5.5225,5.2573,4.8005,0.0,0.0,0.0,0.0,0.0,0.0,0.0,0.0,0.0,0.0,0.0,0.0,0.0,0.0,0.0,0.0,0.0,0.0,0.0,0.0,0.0,0.0,0.0,0.0,0.0,5.5049,5.944,6.0281,6.3628,6.5089,6.3134,6.5827,6.8173,6.9331,7.1792,7.3949,7.5531,7.6662,7.7745,7.8702,7.9286,7.9749,8.0022,8.0022,8.0022,8.0061,8.0563,8.0832,8.0835,8.09,8.0926,8.089,8.0441,8.0071,7.9798,7.9798,7.8628,7.6707,7.6024,7.5585,7.5312,7.5312,7.5114,7.4849,7.4638,7.4182,7.3594,7.2466,7.1142,6.9869,6.9415,6.9699,7.0059,6.9608,6.9687,6.9765,6.918,6.8828,6.8476,6.789,6.7734,6.7656,6.7383,6.7344,6.7265,6.6953,6.5891,6.4431,6.2446,6.3552,6.3824,6.1069,6.2181,6.2968,6.2015,6.1888,6.1771,6.1458,6.1419,6.1419,6.1419,6.111,6.0811,6.0536,5.9902,5.9284,5.8737,5.8147,5.6747,5.45,5.3047,4.9652,4.4193,0.0,0.0,0.0,0.0,0.0,0.0,0.0,0.0,0.0,0.0,0.0,0.0,0.0,0.0,0.0,0.0,0.0,0.0,0.0,0.0,0.0,0.0,0.0,5.49,5.9831,6.33,6.2574,6.7584,7.0169,6.7712,7.1418,7.4643,7.6299,7.739,7.8359,7.9258,7.9297,7.9647,8.0426,8.0465,8.085,8.1703,8.1703,8.1703,8.1703,8.1703,8.1703,8.1749,8.1907,8.1996,8.2001,8.222,8.1836,8.1054,8.1054,8.0547,7.9725,7.9346,7.8716,7.7934,7.7934,7.7386,7.6547,7.5872,7.4666,7.3398,7.3398,7.2773,7.2031,7.2031,7.2031,7.1992,7.1992,7.1406,7.0742,7.0703,7.0117,6.9492,6.9414,6.9414,6.918,6.8398,6.8242,6.7969,6.7109,6.6953,6.664,6.5781,6.5625,6.5351,6.4453,6.4336,0.0,6.3164,6.3008,6.2695,6.1836,6.1719,6.1719,6.1719,6.0799,6.0569,6.1351,5.9691,5.8673,5.8635,5.7025,5.5386,5.3797,5.1227,4.9555,4.881,0.0,0.0,0.0,0.0,0.0,0.0,0.0,0.0,0.0,0.0,0.0,0.0,0.0,0.0,0.0,0.0,0.0,0.0,0.0,0.0,0.0,5.8321,6.2017,6.1014,6.5562,6.9649,7.1264,7.4116,7.5931,7.5897,7.6998,7.8154,7.92,7.9563,8.016,8.1163,8.1246,8.1401,8.1773,8.1774,8.1891,8.2125,8.2125,8.2125,8.2125,8.2125,8.2125,8.2126,8.2177,8.222,8.2221,8.2265,8.2148,8.1953,8.1953,8.1797,8.1445,8.0106,7.9431,7.9119,7.8533,7.7791,7.7011,7.6827,7.6053,7.5195,7.5195,7.418,7.293,7.293,7.25,7.1992,7.1992,7.1836,7.1484,7.0859,7.0547,7.0234,6.9609,6.9453,6.9336,6.9101,6.9062,6.8828,6.8008,6.7851,6.7578,6.668,6.6523,6.625,6.5351,6.5234,6.4922,6.4062,6.3398,6.289,6.2656,6.207,6.1719,6.1719,6.1443,6.0581,5.898,5.8425,5.7832,5.7207,5.6738,5.6856,5.7639,5.4453,5.2958,0.0,0.0,0.0,0.0,0.0,0.0,0.0,0.0,0.0,0.0,0.0,0.0,0.0,0.0,0.0,0.0,0.0,0.0,0.0,0.0,0.0,0.0,6.4955,6.8679,6.8859,7.1502,7.4149,7.5995,7.7548,7.8784,7.9633,7.9783,8.0171,8.1025,8.1161,8.1449,8.2081,8.2121,8.2175,8.2304,8.2304,8.2304,8.2304,8.2304,8.2304,8.2304,8.2304,8.2304,8.2304,8.2304,8.2304,8.2304,8.2304,8.2304,8.2304,8.2304,8.2304,8.2187,0.0,0.0,0.0,0.0,7.8476,7.7734,7.7734,7.6914,7.5898,7.5898,7.4961,7.3828,7.3828,7.3242,7.2539,7.2539,7.2265,7.1875,7.1367,7.125,7.1133,7.0664,7.0508,7.039,7.0039,6.9922,6.9687,6.8867,6.8711,0.0,6.7578,6.7148,6.6719,6.6211,6.6133,6.582,6.4961,6.4414,6.3945,6.3594,6.2773,6.2226,6.2226,6.1562,0.0,0.0,0.0,5.789,5.664,5.625,0.0,0.0,0.0,0.0,0.0,5.9545,0.0,0.0,5.6665,5.7313,0.0,0.0,0.0,0.0,0.0,0.0,0.0,0.0,0.0,0.0,0.0,0.0,0.0,0.0,0.0,0.0,7.1025,7.493,7.6846,7.7179,7.7485,7.8121,7.9027,7.9816,8.0549,8.0787,8.1192,8.197,8.2217,8.2304,8.2304,8.2304,0.0,0.0,0.0,8.2304,8.2304,8.2304,8.2304,8.2304,8.2304,8.2304,8.2304,8.2304,8.2304,8.2304,8.2304,8.2304,8.2304,8.2304,8.2304,8.2304,8.2304,8.1758,8.0898,8.0117,7.9336,7.8633,7.8633,0.0,0.0,7.6172,7.5547,7.4765,7.4765,7.414,7.3437,7.3437,7.289,7.2265,7.2187,7.2148,7.2109,7.2031,7.1992,7.1797,7.1015,7.0859,7.0586,6.9726,6.9609,6.9375,6.8476,6.7617,6.6992,6.6914,6.6914,6.6601,6.5859,6.5664,6.5312,6.4531,6.3672,0.0,6.3164,6.1719,6.1094,6.164,6.0312,5.8789,5.7226,5.6719,5.7539,5.9883,6.0703,6.2695,6.5898,6.8242,6.914,6.8476,6.2882,6.2392,0.0,0.0,0.0,0.0,0.0,0.0,0.0,0.0,0.0,0.0,0.0,0.0,0.0,0.0,0.0,7.0011,7.4435,7.801,7.9869,8.0733,8.0954,8.0224,8.1058,8.1747,8.1903,8.1987,8.2067,8.2224,8.2265,8.2304,8.2304,8.2304,8.2304,8.2304,8.2304,8.2304,8.2304,8.2304,8.2304,8.2304,8.2304,0.0,8.2304,8.2304,8.2304,8.2304,8.2304,8.2304,8.2304,8.2304,8.2304,8.2304,8.2304,8.1758,8.0976,8.082,8.0195,7.9453,7.9453,7.8828,7.8008,7.8008,7.6914,7.5664,7.5664,7.5039,0.0,7.4336,7.4219,7.3945,7.3242,7.3047,7.2851,7.2187,7.1992,7.1953,7.1797,7.1758,7.1484,7.0625,7.0469,7.0195,6.9336,6.8476,6.7695,6.6992,6.6914,6.6836,6.668,6.6015,6.5547,6.5351,6.457,6.4062,6.4062,6.375,6.3008,6.1797,6.1406,6.1055,6.0742,6.2578,6.3867,6.4336,6.5195,6.6328,6.7695,6.8828,7.0039,7.125,6.9998,6.9919,0.0,0.0,0.0,0.0,0.0,0.0,0.0,0.0,0.0,0.0,0.0,6.0112,6.3611,0.0,7.1352,7.5052,7.7798,7.9965,8.1445,8.2031,8.2108,8.1547,8.1989,8.2304,8.2304,8.2304,8.2304,8.2304,8.2304,8.2304,8.2304,8.2304,8.2304,8.2304,8.2304,8.2304,8.2304,8.2304,8.2304,8.2304,8.2304,8.2304,8.2304,8.2304,8.2304,8.2304,8.2304,8.2304,8.2304,8.2304,8.2304,8.2304,8.2304,8.2031,8.164,8.164,8.1094,8.0351,8.0351,7.9805,7.9023,7.8633,7.789,7.7109,7.668,7.5937,7.5234,7.5234,7.4922,7.4492,7.4062,7.3945,7.3711,7.2851,7.2656,7.2539,7.2109,7.1992,7.1875,7.1445,7.1367,7.1055,7.0195,6.9726,6.918,6.832,6.8203,6.8047,6.7617,6.7187,6.6719,6.6289,6.5469,6.4961,6.4961,6.4531,6.3945,6.3047,6.3008,6.3203,6.3633,6.4922,6.6015,6.6875,6.8164,6.9219,7.0117,7.1836,7.3086,7.3945,7.4414,7.4375,0.0,0.0,0.0,0.0,0.0,0.0,0.0,5.4144,5.6544,6.1511,6.445,6.7405,7.1542,7.3865,7.6186,7.9286,8.0466,8.1302,8.2187,8.2304,8.2304,8.2304,8.2304,8.2304,8.2304,8.2304,8.2304,8.2304,8.2304,8.2304,8.2304,8.2304,8.2304,8.2304,8.2304,8.2304,8.2304,8.2304,8.2304,8.2304,8.2304,8.2304,8.2304,8.2304,8.2304,8.2304,8.2304,8.2304,8.2304,8.2304,8.2304,8.2304,8.2304,8.2304,8.2304,8.2304,8.1875,8.125,8.125,8.0664,7.9844,7.9219,7.8789,7.8359,7.7656,7.6836,7.6133,7.6133,7.5664,7.5078,7.4883,7.4844,7.4648,7.375,7.3437,7.3125,7.2383,7.2109,7.1992,7.1992,7.1992,7.1797,7.1055,7.0937,7.0625,6.9648,6.9492,6.918,6.832,6.8203,6.7851,6.6992,6.6289,6.5937,6.6094,6.5469,6.5117,6.5273,6.5273,6.5625,6.6328,6.6484,6.7344,6.8906,7.043,7.164,7.25,7.4805,7.5898,7.5937,7.6953,7.707,4.5774,4.6697,4.8817,5.4246,5.467,5.6742,0.0,6.8662,6.8065,7.2383,7.4261,7.5359,7.6111,7.7695,7.9328,8.0622,8.1562,8.2148,8.2265,8.2304,8.2304,8.2304,8.2304,8.2304,8.2304,8.2304,8.2304,8.2304,8.2304,8.2304,8.2304,8.2304,8.2304,8.2304,8.2304,8.2304,8.2304,8.2304,8.2304,8.2304,8.2304,8.2304,8.2304,8.2304,8.2304,8.2304,8.2304,8.2304,8.2304,8.2304,8.2304,8.2304,8.2304,8.2304,8.2304,8.2304,8.2226,8.2148,8.2148,8.1562,8.0859,8.0742,7.9726,7.8476,7.8398,7.7734,7.7031,7.7031,7.6992,7.6719,7.5976,7.5742,7.5547,7.4648,7.3867,7.3281,7.3164,7.2539,7.1992,7.1992,7.1992,7.1953,7.1875,7.1836,7.1289,6.9648,6.9414,6.9101,6.8281,6.8203,6.7851,6.6992,6.6797,6.707,6.7851,6.7812,6.8086,6.8789,6.8828,6.8867,6.8984,6.9726,7.0586,7.1562,7.2539,7.3437,7.4297,7.539,7.5898,7.5937,7.7578,7.8281,5.3933,5.5626,5.7209,6.1172,6.3518,6.6229,7.168,7.2645,7.3326,7.6726,7.8273,7.9176,7.9768,8.0556,8.1282,8.1679,8.207,8.2304,8.2304,8.1875,8.1367,8.0859,8.0781,8.1172,8.2187,8.2304,8.2304,8.2304,8.2304,8.2304,8.2304,8.2304,8.2304,8.2304,8.2304,8.2304,8.2304,8.2304,8.2304,8.2304,8.2304,8.2304,8.2304,8.2304,8.2304,8.2304,8.2304,8.2304,8.2304,8.2304,8.2304,8.2304,8.2304,8.2304,8.2304,8.2304,8.2304,8.2304,8.2304,8.207,8.1679,8.1172,8.0547,7.9765,7.8789,7.8242,7.7851,7.7344,7.7187,7.7109,7.6758,7.664,7.6445,7.5547,7.5078,7.4687,7.418,7.3359,7.2773,7.2773,7.2344,7.1992,7.1992,7.1992,7.1758,7.1015,7.0898,7.0625,6.9765,6.9648,6.9336,6.8515,6.8398,6.8555,6.8867,6.8906,6.9023,6.9375,6.9414,6.9648,7.0156,7.0976,7.1875,7.2734,7.4101,7.5,7.5351,7.6211,7.6914,7.7422,7.8164,7.9023,5.8709,6.1248,6.3466,6.6308,7.0027,7.32,7.4141,7.5495,7.7213,7.9491,8.0406,8.0978,8.16,8.1828,8.1953,8.1953,8.2148,8.2304,8.2304,8.1328,8.0508,8.0117,7.9648,8.0039,8.1758,8.1953,8.2031,8.2265,8.2304,8.2304,8.2304,8.2539,8.2656,8.2656,8.289,8.289,8.2656,8.2656,8.2539,8.2304,8.2304,8.2304,8.2304,8.2304,8.2304,8.2304,8.2304,8.2304,8.2304,8.2304,8.2304,8.2304,8.2304,8.2304,8.2304,8.2304,8.2304,8.2304,8.2304,8.2304,8.2187,8.1562,8.1211,8.0781,7.957,7.8867,7.8359,7.7734,7.7383,7.7187,7.7187,7.7187,7.7031,7.6406,7.6055,7.5742,7.5078,7.4258,7.3672,7.3672,7.3164,7.2656,7.2383,7.2344,7.2265,7.2031,7.1992,7.168,7.082,7.0508,7.0117,6.9531,6.9492,6.957,6.9726,6.9765,6.9844,7.0117,7.0117,7.0508,7.1367,7.2031,7.289,7.3984,7.5273,7.6133,7.6601,7.7265,7.8008,7.8828,7.9062,7.9844,5.7517,6.0748,6.5374,6.8994,7.2419,7.5614,7.8381,7.9795,8.0778,8.1715,8.1426,8.1015,8.1015,8.1054,8.1054,8.1054,8.1758,8.2304,8.2304,8.082,8.0039,8.0859,7.9531,7.9219,8.0898,8.1054,8.1406,8.2226,8.2304,8.2304,8.2304,8.3086,8.3554,8.3554,8.4375,8.4414,8.3554,8.3554,8.3125,8.2304,8.2304,8.2304,8.2304,8.2304,8.2304,8.2304,8.2304,8.2304,8.2304,8.2304,8.2304,8.2304,8.2304,8.2304,8.2304,8.2304,8.2304,8.2304,8.2304,8.2304,8.2304,8.2265,8.1679,8.0976,8.0937,7.9805,7.8476,7.8476,7.7851,7.7187,7.7187,7.7187,7.7187,7.7187,7.6523,7.5898,7.5859,7.5195,7.457,7.457,7.4531,7.4258,7.3398,7.3242,7.2969,7.2148,7.1992,7.168,7.082,6.9961,6.9414,6.9414,6.9453,6.9805,7.0586,7.0664,7.1015,7.1875,7.1914,7.2305,7.3203,7.3242,7.4062,7.5781,7.5859,7.6719,7.8437,7.8437,7.8867,7.9687,8.0547,8.0937,6.3933,6.7735,7.1428,7.4485,7.6936,7.9003,8.0697,8.1304,8.1347,8.061,7.9881,7.8984,7.7812,7.7617,7.8008,7.914,8.0039,8.0976,8.2148,8.1289,8.0273,7.9453,7.9297,7.9297,7.9336,7.9805,8.0742,8.2187,8.1758,8.1953,8.3086,8.3437,8.3867,8.4453,8.4765,8.4765,8.4453,8.3906,8.3437,8.3164,8.3164,8.3476,8.4023,8.4023,8.3711,8.3164,8.3164,8.2812,8.2304,8.2304,8.2304,8.2304,8.2304,8.2304,8.2304,8.2304,8.2304,8.2304,8.2304,8.2304,8.2304,8.2304,8.2109,8.1758,8.1172,8.0625,7.9922,7.8828,7.8281,7.793,7.7344,7.7187,7.7187,7.7187,7.6992,7.6758,7.6758,7.6094,7.5469,7.5469,7.5,7.4492,7.4219,7.414,7.4062,7.3789,7.2734,7.1875,7.1601,7.1328,7.1133,7.1133,7.1133,7.1289,7.1523,7.1562,7.1914,7.2812,7.2851,7.3242,7.414,7.4726,7.5312,7.5898,7.6484,7.7344,7.8515,7.8515,7.9219,8.0586,8.0859,8.1328,6.8796,7.2283,7.5111,7.8141,7.9925,8.1087,8.1552,8.1412,8.0642,7.8749,7.7187,7.5742,7.4297,7.3828,7.4492,7.7148,7.8281,7.9609,8.1953,8.1289,8.0234,7.9492,7.9336,7.9297,7.9375,7.957,8.0429,8.2187,8.207,8.2422,8.3554,8.4179,8.4804,8.5351,8.5664,8.5664,8.5351,8.4804,8.4375,8.4062,8.4062,8.4375,8.4883,8.4883,8.4609,8.4062,8.4062,8.3554,8.2773,8.2773,8.2578,8.2304,8.2304,8.2304,8.2304,8.2304,8.2304,8.2304,8.2304,8.2304,8.2304,8.2304,8.2304,8.2187,8.164,8.125,8.0781,7.9687,7.8945,7.8437,7.8164,7.7656,7.7265,7.7578,7.7422,7.7187,7.7187,7.6758,7.6367,7.6367,7.5898,7.543,7.5117,7.4805,7.4609,7.4609,7.3633,7.293,7.293,7.293,7.293,7.293,7.293,7.293,7.293,7.293,7.3164,7.3711,7.375,7.414,7.5039,7.5586,7.6055,7.6367,7.7226,7.8086,7.8945,7.9258,8.0117,8.1445,8.1445,8.1758,7.1863,7.4353,7.6565,7.9959,8.1379,8.1787,8.1092,8.0195,7.875,7.6094,7.3476,7.1367,7.0312,6.9687,7.0664,7.4883,7.6484,7.8398,8.1836,8.0898,8.0117,8.0898,7.9648,7.9336,8.0898,8.0351,8.0586,8.2304,8.3125,8.3594,8.3711,8.5312,8.6211,8.6289,8.707,8.7109,8.6289,8.6211,8.5781,8.4961,8.4961,8.5,8.5039,8.5039,8.5,8.4961,8.4961,8.4453,8.3594,8.3594,8.3086,8.2304,8.2304,8.2304,8.2304,8.2304,8.2304,8.2304,8.2304,8.2304,8.2304,8.2304,8.2304,8.2304,8.2304,8.1719,8.1054,8.1015,7.9844,7.8789,7.9492,7.8515,7.7539,7.8359,7.789,7.7265,7.7265,7.7226,7.7187,7.7187,7.7187,7.6914,7.6093,7.5233,7.4687,7.4687,7.4726,7.4687,7.4609,7.4609,7.4609,7.4609,7.4609,7.4609,7.4609,7.4609,7.4609,7.4648,7.4687,7.5078,7.5937,7.5976,7.6367,7.7265,7.8086,7.8906,7.9765,8.0586,8.1445,8.2304,8.2304,8.2304,7.5208,7.8152,8.0581,8.1628,8.1557,8.1051,8.0234,7.8398,7.5742,7.1875,6.9023,6.6172,6.2773,6.457,6.7578,7.0625,7.4531,7.8398,8.1836,8.1914,8.1484,8.1054,8.1211,8.1484,8.1914,8.2344,8.3047,8.414,8.3242,8.3476,8.5429,8.5976,8.6484,8.7148,8.7383,8.7383,8.7187,8.6523,8.6094,8.5859,8.5859,8.6211,8.6836,8.6836,8.6484,8.5859,8.5859,8.5,8.3594,8.3594,8.3086,8.2304,8.2304,8.2304,8.2304,8.2304,8.2304,8.2304,8.2304,8.2304,8.2304,8.2304,8.2304,8.2304,8.2304,8.2148,8.1836,8.1172,8.0703,8.0273,7.9805,7.9375,7.9101,7.9336,7.8789,7.8164,7.8164,7.7656,7.7187,7.7187,7.7097,7.6856,7.6497,7.6242,7.6087,7.6087,7.6207,7.5914,7.4765,7.4609,7.4609,7.4609,7.4609,7.4609,7.4609,7.4609,7.4883,7.5547,7.5586,7.5976,7.6836,7.6875,7.7265,7.8164,7.8398,7.9219,8.0664,8.0898,8.1445,8.2304,8.2304,8.2304,7.8124,8.0462,8.217,8.2265,8.1367,7.9726,7.6953,7.4336,7.0976,6.5469,6.2617,6.0234,5.7422,5.9805,6.3555,6.7695,7.2383,7.6953,8.1133,8.207,8.2265,8.2148,8.2578,8.3008,8.3398,8.3867,8.4531,8.539,8.457,8.4648,8.6133,8.6562,8.6992,8.7461,8.75,8.75,8.75,8.6992,8.6758,8.6758,8.6758,8.7031,8.75,8.75,8.7226,8.6758,8.6758,8.6015,8.4726,8.4336,8.3672,8.2812,8.2461,8.2304,8.2304,8.2217,8.2172,8.2169,8.2062,8.2049,8.2062,8.2224,8.2304,8.2304,8.2304,8.2223,8.2055,8.1586,8.11,8.0721,8.0603,8.0018,7.9548,7.994,7.9353,7.8765,7.8765,7.8065,7.7364,7.7014,7.6852,7.6738,7.66,7.6582,7.6582,7.6582,7.6709,7.6478,7.5601,7.5615,7.5742,7.5742,7.5742,7.5742,7.5742,7.5742,7.5937,7.6445,7.6484,7.668,7.7187,7.7578,7.8008,7.8476,7.9219,8.0078,8.1015,8.1367,8.1836,8.2304,8.2304,8.2304,8.0547,8.1719,8.2265,8.2148,8.0664,7.789,7.2969,6.9492,6.5469,5.8906,5.6094,5.4453,5.3359,5.5664,5.9648,6.543,7.0195,7.4961,8.0273,8.164,8.25,8.3476,8.3594,8.3984,8.4961,8.5078,8.5429,8.6328,8.6367,8.6367,8.6367,8.7109,8.75,8.75,8.75,8.75,8.75,8.75,8.75,8.75,8.75,8.75,8.75,8.75,8.75,8.75,8.75,8.6992,8.6092,8.5233,8.4333,8.3431,8.2573,8.2221,8.2217,8.2003,8.1969,8.1955,8.1743,8.1684,8.1739,8.2116,8.2221,8.2221,8.2221,8.2113,8.1969,8.1969,8.1295,8.0742,8.1489,8.0587,7.9645,8.0388,7.9921,7.9252,7.9252,7.8517,7.7579,7.6856,7.6657,7.6533,7.6505,7.6617,7.6695,7.6695,7.6793,7.6891,7.6891,7.703,7.7104,7.7104,7.7104,7.7143,7.726,7.7302,7.7381,7.7498,7.7539,7.7539,7.7539,7.8242,7.8711,7.8828,8.0273,8.1054,8.1172,8.1914,8.2304,8.2304,8.2304,8.2304,8.1758,8.2187,8.2148,8.1406,7.8867,7.5586,7.1797,6.6719,6.1484,5.6719,5.3789,5.1406,4.9141,5.3164,5.832,6.293,6.8476,7.4297,8.0156,8.1133,8.1836,8.3398,8.3594,8.4219,8.582,8.5976,8.6328,8.7226,8.7265,8.7265,8.7265,8.7422,8.75,8.75,8.75,8.75,8.75,8.75,8.75,8.75,8.75,8.75,8.75,8.75,8.75,8.75,8.75,8.6867,8.5802,8.4985,8.4035,8.302,8.213,8.1783,8.1819,8.1746,8.1736,8.1768,8.1695,8.1684,8.1695,8.1763,8.1783,8.1783,8.1783,8.1799,8.1736,8.1736,8.1633,8.1528,8.1645,8.1489,8.1291,8.145,8.082,8.0155,8.0155,7.891,7.773,7.7491,7.6824,7.6289,7.6141,7.6712,7.7175,7.7175,7.7906,7.8408,7.8408,7.7427,7.6715,7.6715,7.6715,7.6984,7.7644,7.7912,7.8308,7.8967,7.9172,7.9258,7.9258,7.9414,7.9844,8.0547,8.0859,8.1367,8.207,8.2226,8.2304,8.2304,8.2304,8.2304,8.207,8.2304,8.2109,8.1211,7.8086,7.3711,6.8008,6.2734,5.7422,5.1797,4.9609,4.8359,4.7148,5.0742,5.5156,5.9023,6.3984,6.9726,7.668,7.8047,7.9805,8.3789,8.4297,8.4961,8.6719,8.6875,8.699,8.7285,8.7282,8.7333,8.75,8.75,8.75,8.75,8.75,8.75,8.75,8.7372,8.7282,8.7282,8.7202,8.7137,8.7137,8.7137,8.7137,8.7137,8.7137,8.6829,8.6251,8.5396,8.4486,8.354,8.2688,8.2108,8.1672,8.1586,8.1539,8.1519,8.1408,8.1389,8.1389,8.1389,8.1519,8.1684,8.1684,8.164,8.1539,8.1539,8.1475,8.1389,8.1389,8.1389,8.1389,8.1389,8.1073,8.0642,8.0177,7.9441,7.8698,7.8155,7.7743,7.742,7.7321,7.7638,7.7907,7.7907,7.8329,7.8624,7.8624,7.8037,7.7509,7.7256,7.7201,7.7396,7.7781,7.7907,7.8339,7.919,7.9335,7.9407,7.9407,7.9836,8.0291,8.0837,8.1307,8.1787,8.2304,8.2304,8.2304,8.2304,8.2304,8.2304,8.1797,8.2148,8.2031,8.0976,7.7344,7.2109,6.4687,5.9375,5.4258,4.7891,4.6445,4.6289,4.6289,4.8789,5.2109,5.5976,5.9883,6.5234,7.3203,7.5234,7.8086,8.3945,8.4764,8.5504,8.7262,8.7373,8.7269,8.7034,8.7026,8.7145,8.7327,8.7368,8.7368,8.7368,8.7368,8.7368,8.7368,8.7151,8.7026,8.7024,8.6894,8.6817,8.6817,8.6817,8.6817,8.6817,8.6817,8.6787,8.6665,8.5572,8.4723,8.3976,8.2961,8.2189,8.1548,8.1401,8.1343,8.1305,8.1168,8.1093,8.1093,8.1093,8.1305,8.1572,8.1572,8.1464,8.1343,8.1343,8.1221,8.1093,8.1093,8.1093,8.1093,8.1093,8.1093,8.09,8.0239,7.9931,7.9592,7.8907,7.8638,7.8484,7.8484,7.8638,7.8792,7.8792,7.8946,7.9061,7.9061,7.9061,7.8861,7.8292,7.8063,7.8024,7.8218,7.8267,7.8643,7.9533,7.9617,7.9645,7.9645,8.031,8.0737,8.0897,8.1602,8.2,8.2173,8.2173,8.2173,8.2173,8.222,8.2223,8.0898,8.1719,8.1914,8.0234,7.6015,7.0625,6.4414,5.8476,5.2969,4.8398,4.6836,4.6289,4.6289,4.7851,5.0781,5.5781,5.8867,6.3633,7.2226,7.4844,7.7851,8.3086,8.4272,8.5282,8.6962,8.6971,8.6868,8.6849,8.6845,8.6853,8.6872,8.6876,8.6876,8.6876,8.6876,8.6876,8.6876,8.6857,8.6845,8.6845,8.6825,8.6817,8.6817,8.6817,8.6817,8.6817,8.6817,8.669,8.6407,8.4714,8.3882,8.348,8.19,8.1245,8.1161,8.1123,8.1108,8.1108,8.1108,8.1093,8.1093,8.1093,8.1147,8.1168,8.1168,8.1138,8.1108,8.1108,8.1124,8.1093,8.1093,8.1093,8.1093,8.1093,8.1093,8.1093,8.1016,8.0362,7.9777,7.97,7.9054,7.8484,7.8484,7.9169,7.9669,7.9669,8.0362,8.0862,8.0862,8.0862,8.0546,7.9721,7.8895,7.878,7.9543,7.9771,8.0251,8.1137,8.1372,8.145,8.145,8.1528,8.1575,8.1594,8.1671,8.1721,8.1778,8.1778,8.1778,8.1743,8.1921,8.2044,7.957,8.0859,8.1094,7.9414,7.5078,6.9492,6.2969,5.7617,5.2617,4.7812,4.6523,4.6289,4.6289,4.6875,4.8516,5.2148,5.3594,5.707,6.5195,6.7812,7.1755,7.9386,8.146,8.3477,8.6634,8.6864,8.6756,8.6638,8.6454,8.6371,8.6371,8.6656,8.6817,8.6817,8.6817,8.6817,8.6817,8.6671,8.6627,8.6621,8.6474,8.6371,8.6371,8.6371,8.6371,8.6371,8.6371,8.6328,8.6191,8.4995,8.4134,8.3486,8.2285,8.1516,8.1093,8.1093,8.1093,8.1093,8.1093,8.1093,8.1093,8.1093,8.1093,8.1093,8.1093,8.1093,8.1093,8.1093,8.1093,8.1093,8.1093,8.1093,8.1093,8.1093,8.1093,8.1093,8.1093,8.0823,8.0592,8.0592,8.0285,8.0054,8.0054,8.0362,8.0592,8.0592,8.09,8.1093,8.1093,8.1093,8.0977,8.0631,7.9785,7.9438,7.9777,7.9849,8.0288,8.1175,8.1272,8.1349,8.1349,8.1349,8.1401,8.1504,8.1504,8.1582,8.1684,8.1684,8.1684,8.1688,8.1763,8.1831,7.6797,7.8633,7.914,7.7695,7.3633,6.8242,6.1601,5.6758,5.2226,4.7305,4.6289,4.6289,4.6289,4.6289,4.7148,4.9766,5.0625,5.3555,6.1015,6.3828,6.8041,7.6025,7.844,8.0971,8.4837,8.6063,8.6543,8.6383,8.6223,8.6094,8.6094,8.6423,8.6588,8.6588,8.6588,8.6588,8.6588,8.6449,8.6362,8.6394,8.62,8.6094,8.6094,8.6094,8.6094,8.6094,8.6094,8.6094,8.6017,8.4939,8.4132,8.3486,8.2362,8.1593,8.1093,8.1093,8.1093,8.1093,8.1093,8.1093,8.1093,8.1093,8.1093,8.1093,8.1093,8.1093,8.1093,8.1093,8.1093,8.1093,8.1093,8.1093,8.1093,8.1093,8.1093,8.1093,8.1093,8.1093,8.1093,8.1093,8.1093,8.1093,8.1093,8.1093,8.1093,8.1093,8.1093,8.1093,8.1093,8.1093,8.1093,8.1093,8.0554,8.0169,8.0169,8.0169,8.0439,8.1054,8.1093,8.1093,8.1093,8.1093,8.1152,8.1298,8.1305,8.1377,8.1509,8.1509,8.1509,8.1514,8.1591,8.1623,7.2187,7.4648,7.5742,7.4844,7.1406,6.664,6.0586,5.5859,5.1484,4.7187,4.6289,4.6289,4.6289,4.6289,4.7148,4.9766,5.1601,5.5078,6.1992,6.5234,6.8746,7.374,7.5716,7.793,8.1154,8.4269,8.6102,8.6094,8.6094,8.6094,8.6094,8.6102,8.6102,8.6102,8.6102,8.6102,8.6102,8.6102,8.6094,8.6094,8.6094,8.6094,8.6094,8.6094,8.6094,8.6094,8.6094,8.6094,8.5978,8.4294,8.3601,8.3447,8.1747,8.1093,8.1093,8.1093,8.1093,8.1093,8.1093,8.1093,8.1093,8.1093,8.1093,8.1093,8.1093,8.1093,8.1093,8.1093,8.1093,8.1093,8.1093,8.1093,8.1093,8.1093,8.1093,8.1093,8.1093,8.1093,8.1093,8.1093,8.1093,8.1093,8.1093,8.1093,8.1093,8.1093,8.1093,8.1093,8.1093,8.1093,8.1093,8.1093,8.1093,8.1093,8.1093,8.1093,8.1093,8.1093,8.1093,8.1093,8.1093,8.1093,8.1093,8.11,8.11,8.11,8.1108,8.1108,8.1108,8.1116,8.1298,8.1494,6.4844,6.707,6.8359,6.6289,6.3906,6.0781,5.5859,5.3242,5.0742,4.707,4.6289,4.6289,4.6289,4.6289,4.793,5.2891,5.4141,5.6484,6.2187,6.6118,6.9802,7.3597,7.9382,8.3509,8.4495,8.552,8.6094,8.6094,8.6094,8.6094,8.6094,8.6094,8.6094,8.6094,8.6094,8.6094,8.6094,8.6094,8.6094,8.6094,8.6094,8.6094,8.6094,8.6094,8.5786,8.5286,8.5286,8.4939,8.4294,8.3178,8.2716,8.2593,8.1516,8.1093,8.1093,8.1093,8.1093,8.1093,8.1093,8.1093,8.1093,8.1093,8.1093,8.1093,8.1093,8.1093,8.1093,8.1093,8.1093,8.1093,8.1093,8.1093,8.1093,8.1093,8.1093,8.1093,8.1093,8.1093,8.1093,8.1093,8.1093,8.1093,8.1093,8.1093,8.1093,8.1093,8.1093,8.1093,8.1093,8.1093,8.1093,8.1093,8.1093,8.1093,8.1093,8.1093,8.1093,8.1093,8.1093,8.1093,8.1093,8.1093,8.1093,8.1093,8.1093,8.1093,8.1093,8.1093,8.1093,8.1093,8.1183,8.1235,5.8515,6.0937,6.2305,6.0664,5.8984,5.6758,5.3047,5.1289,4.9687,4.6875,4.6289,4.6289,4.6289,4.6289,4.7734,5.2187,5.3672,5.6093,6.1201,6.5535,6.979,7.4225,8.035,8.4324,8.4632,8.5555,8.6094,8.6094,8.6094,8.6094,8.6094,8.6094,8.6094,8.6094,8.6094,8.6094,8.6094,8.6094,8.594,8.567,8.567,8.5478,8.517,8.517,8.4863,8.4401,8.4401,8.4093,0.0,8.267,8.2285,8.2208,8.14,8.1093,8.1093,8.1093,8.1093,8.1093,8.1093,8.1093,8.1093,8.1093,8.1093,8.1093,8.1093,8.1093,8.1093,8.1093,8.1093,8.1093,8.1093,8.1093,8.1093,8.1093,8.1093,8.1093,8.1093,8.1093,8.1093,8.1093,8.1093,8.1093,8.1093,8.1093,8.1093,8.1093,8.1093,8.1093,8.1093,8.1093,8.1093,8.1093,8.1093,8.1093,8.1093,8.1093,8.1093,8.1093,8.1093,8.1093,8.1093,8.1093,8.1093,8.1093,8.1093,8.1093,8.1093,8.1093,8.1093,8.1093,8.1093,8.1093,0.0,5.5703,5.7031,5.6914,5.5703,5.3906,5.1406,4.9687,0.0,4.6523,4.6211,4.6289,4.6523,4.6484,4.7109,4.9375,5.1758,5.5071,6.0127,6.4659,6.9759,7.599,7.9545,8.1747,8.2516,8.4709,8.6094,8.6094,8.6094,8.6094,8.6094,8.6094,8.6094,8.6094,8.6094,8.6094,8.6094,8.6094,8.5701,8.497,8.4931,8.4478,8.3678,8.364,8.3563,8.3524,8.3524,8.3486,8.337,8.2554,8.2208,8.2131,8.14,8.1093,8.1093,8.1093,8.1093,8.1093,8.1093,8.1093,8.1093,8.1093,8.1093,8.1093,8.1093,8.1093,8.1093,8.1093,8.1093,8.1093,8.1093,8.1093,8.1093,8.1093,8.1093,8.1093,8.1093,8.1093,8.1093,8.1093,8.1093,8.1093,8.1093,8.1093,8.1093,8.1093,8.1093,8.1093,8.1093,8.1093,8.1093,8.1093,8.1093,8.1093,8.1093,8.1093,8.1093,8.1093,8.1093,8.1093,8.1093,8.1093,8.1093,8.1093,8.1093,8.1093,8.1093,8.1093,8.1093,8.1093,8.1093,8.1093,4.5039,0.0,4.8711,4.7383,4.7226,4.7109,0.0,4.5703,4.5781,4.5391,4.5312,4.6133,4.8789,4.8203,4.957,5.6562,5.8656,6.1235,6.6369,7.2192,7.7401,8.1374,8.3679,8.5016,8.5209,8.5747,8.6094,8.6094,8.6094,8.6094,8.6094,8.6094,8.6094,8.6094,8.6094,8.6094,8.6094,8.6094,8.6017,8.5824,8.5201,8.4777,8.4555,8.3909,8.3255,8.2593,8.2593,8.2247,8.167,8.1477,8.1362,8.1362,8.117,8.1093,8.1093,8.1093,8.1093,8.1093,8.1093,8.1093,8.1093,8.1093,8.1093,8.1093,8.1093,8.1093,8.1093,8.1093,8.1093,8.1093,8.1093,8.1093,8.1093,8.1093,8.1093,8.1093,8.1093,8.1093,8.1093,8.1093,8.1093,8.1093,8.1093,8.1093,8.1093,8.1093,8.1093,8.1093,8.1093,8.1093,8.1093,8.1093,8.1093,8.1093,8.1093,8.1093,8.1093,8.1093,8.1093,8.1093,8.1093,8.1093,8.1093,8.1093,8.1093,8.1093,8.1093,8.1093,8.1093,8.1093,8.1093,8.1093,4.1836,4.4609,4.7266,4.6328,4.6758,4.7266,4.6797,4.6133,4.5586,4.5586,4.5586,4.6406,4.9101,4.9097,5.085,5.7578,5.9833,6.3214,7.0265,7.6228,8.0793,8.3317,8.5093,8.6094,8.6094,8.6094,8.6094,8.6094,8.6094,8.6094,8.6094,8.6094,8.6094,8.6094,8.6094,8.6094,8.6094,8.5747,8.5363,8.4939,8.4093,8.3516,8.3131,8.267,8.2208,8.1747,8.1747,8.1516,8.1093,8.1093,8.1093,8.1093,8.1093,8.1093,8.1093,8.1093,8.1093,8.1093,8.1093,8.1093,8.1093,8.1093,8.1093,8.1093,8.1093,8.1093,8.1093,8.1093,8.1093,8.1093,8.1093,8.1093,8.1093,8.1093,8.1093,8.1093,8.1093,8.1093,8.1093,8.1093,8.1093,8.1093,8.1093,8.1093,8.1093,8.1093,8.1093,8.1093,8.1093,8.1093,8.1093,8.1093,8.1093,8.1093,8.1093,8.1093,8.1093,8.1093,8.1093,8.1093,8.1093,8.1093,8.1093,8.1093,8.1093,8.1093,8.1093,8.1093,8.1093,8.1093,8.1093,8.1093,4.1641,4.5547,4.9219,4.8164,4.8867,4.9726,4.9453,4.7695,4.6172,4.6445,4.6601,4.7344,4.9452,5.0517,5.2562,5.7137,6.0213,6.4954,7.3435,7.8483,8.19,8.3601,8.517,8.6094,8.6094,8.6094,8.6094,8.6094,8.6094,8.6094,8.6094,8.6094,8.6055,8.594,8.6055,8.5978,8.5709,8.517,8.4516,8.3793,8.2785,8.1939,8.1285,8.117,8.1093,8.1093,8.1093,8.1093,8.1093,8.1093,8.1093,8.1093,8.1093,8.1093,8.1093,8.1093,8.1093,8.1093,8.1093,8.1093,8.1093,8.1093,8.1093,8.1093,8.1093,8.1093,8.1093,8.1093,8.1093,8.1093,8.1093,8.1093,8.1093,8.1093,8.1093,8.1093,8.1093,8.1093,8.1093,8.1093,8.1093,8.1093,8.1093,8.1093,8.1093,8.1093,8.1093,8.1093,8.1093,8.1093,8.1093,8.1093,8.1093,8.1093,8.1093,8.1093,8.1093,8.1093,8.1093,8.1093,8.1093,8.1093,8.1093,8.1093,8.1093,8.1093,8.1093,8.1093,8.1093,8.1093,8.1093,8.1093,4.3633,4.8203,5.0703,4.4844,4.5703,4.7617,4.6133,4.5508,4.5625,4.7109,4.8008,4.9646,5.3439,5.5396,5.8005,6.2917,6.8144,7.329,7.8195,8.0739,8.2747,8.4478,8.5517,8.6094,8.6094,8.6094,8.6094,8.6094,8.6094,8.6094,8.6094,8.6094,8.5786,8.5132,8.5747,8.5401,8.3986,8.4593,8.4824,8.467,8.3054,8.2247,8.2093,8.14,8.1093,8.1093,8.1093,8.1093,8.1093,8.1093,8.1093,8.1093,8.1093,8.1093,8.1093,8.1093,8.1093,8.1093,8.1093,8.1093,8.1093,8.1093,8.1093,8.1093,8.1093,8.1093,8.1093,8.1093,8.1093,8.1093,8.1093,8.1093,8.1093,8.1093,8.1093,8.1093,8.1093,8.1093,8.1093,8.1093,8.1093,8.1093,8.1093,8.1093,8.1093,8.1093,8.1093,8.1093,8.1093,8.1093,8.1093,8.1093,8.1093,8.1093,8.1093,8.1093,8.1093,8.1093,8.1093,8.1093,8.1093,8.1093,8.1093,8.1093,8.1093,8.1093,8.1093,8.1093,8.1093,8.1093,8.1093,8.1093,4.168,4.6016,4.9179,4.5921,4.9432,5.3378,5.2089,5.0655,4.9837,5.0618,5.1127,5.2402,5.5747,5.8034,6.1512,6.7869,7.3154,7.7054,7.8829,8.137,8.3285,8.4093,8.5324,8.6094,8.6094,8.6094,8.6094,8.6094,8.6094,8.5901,8.547,8.544,8.5055,8.4209,8.4555,8.4362,8.3601,8.3516,8.3516,8.3478,8.2247,8.1631,8.1631,8.1285,8.1093,8.1093,8.1093,8.1093,8.1093,8.1093,8.1093,8.1093,8.1093,8.1093,8.1093,8.1093,8.1093,8.1093,8.1093,8.1093,8.1093,8.1093,8.1093,8.1093,8.1093,8.1093,8.1093,8.1093,8.1093,8.1093,8.1093,8.1093,8.1093,8.1093,8.1093,8.1093,8.1093,8.1093,8.1093,8.1093,8.1093,8.1093,8.1093,8.1093,8.1093,8.1093,8.1093,8.1093,8.1093,8.1093,8.1093,8.1093,8.1093,8.1093,8.1093,8.1093,8.1093,8.1093,8.1093,8.1093,8.1093,8.1093,8.1093,8.1093,8.1093,8.1093,8.1093,8.1093,8.1093,8.1093,8.1093,8.1093,4.0625,4.4297,4.7772,4.8485,5.2928,5.7258,5.7721,5.5779,5.4255,5.5617,5.5883,5.6498,5.8453,6.1453,6.5754,7.2318,7.6739,7.9352,7.9407,8.1639,8.3447,8.387,8.4863,8.5593,8.5786,8.5632,8.5517,8.5517,8.5517,8.5247,8.4632,8.4593,8.4209,8.3332,8.3486,8.3409,8.3024,8.2554,8.2285,8.2285,8.1477,8.1093,8.1093,8.1093,8.1093,8.1093,8.1093,8.1093,8.1093,8.1093,8.1093,8.1093,8.1093,8.1093,8.1093,8.1093,8.1093,8.1093,8.1093,8.1093,8.1093,8.1093,8.1093,8.1093,8.1093,8.1093,8.1093,8.1093,8.1093,8.1093,8.1093,8.1093,8.1093,8.1093,8.1093,8.1093,8.1093,8.1093,8.1093,8.1093,8.1093,8.1093,8.1093,8.1093,8.1093,8.1093,8.1093,8.1093,8.1093,8.1093,8.1093,8.1093,8.1093,8.1093,8.1093,8.1093,8.1093,8.1093,8.1093,8.1093,8.1093,8.1093,8.1093,8.1093,8.1093,8.1093,8.1093,8.1093,8.1093,8.1093,8.1093,8.1093,4.3516,4.6094,4.8359,5.1523,5.2148,5.3112,5.7525,5.6653,5.6418,6.1842,6.2984,6.2986,6.304,6.7633,7.2619,7.633,7.9192,8.1201,8.1908,8.2247,8.2978,8.4632,8.4209,8.4093,8.4893,8.4247,8.3793,8.3793,8.3793,8.3755,8.3717,8.3678,8.3293,8.2401,8.3178,8.287,8.1285,8.1939,8.2285,8.2285,8.1477,8.1093,8.1093,8.1093,8.1093,8.1093,8.1093,8.1093,8.1093,8.1093,8.1093,8.1093,8.1093,8.1093,8.1093,8.1093,8.1093,8.1093,8.1093,8.1093,8.1093,8.1093,8.1093,8.1093,8.1093,8.1093,8.1093,8.1093,8.1093,8.1093,8.1093,8.1093,8.1093,8.1093,8.1093,8.1093,8.1093,8.1093,8.1093,8.1093,8.1093,8.1093,8.1093,8.1093,8.1093,8.1093,8.1093,8.1093,8.1093,8.1093,8.1093,8.1093,8.1093,8.1093,8.1093,8.1093,8.1093,8.1093,8.1093,8.1093,8.1093,8.1093,8.1093,8.1093,8.1093,8.1093,8.1093,8.1093,8.1093,8.1093,8.1093,8.1093,4.1094,4.4951,4.878,5.1076,5.3403,5.6026,5.9422,6.1011,6.2863,6.6643,6.7829,6.8347,6.8832,7.1158,7.3937,7.683,7.8977,8.0592,8.1439,8.1977,8.2554,8.3208,8.3478,8.3717,8.4055,8.3793,8.3601,8.3601,8.3601,8.337,8.2832,8.2785,8.2401,8.1593,8.1862,8.1747,8.1093,8.14,8.1554,8.1554,8.1246,8.1093,8.1093,8.1093,8.1093,8.1093,8.1093,8.1093,8.1093,8.1093,8.1093,8.1093,8.1093,8.1093,8.1093,8.1093,8.1093,8.1093,8.1093,8.1093,8.1093,8.1093,8.1093,8.1093,8.1093,8.1093,8.1093,8.1093,8.1093,8.1093,8.1093,8.1093,8.1093,8.1093,8.1093,8.1093,8.1093,8.1093,8.1093,8.1093,8.1093,8.1093,8.1093,8.1093,8.1093,8.1093,8.1093,8.1093,8.1093,8.1093,8.1093,8.1093,8.1093,8.1093,8.1093,8.1093,8.1093,8.1093,8.1093,8.1093,8.1093,8.1093,8.1093,8.1093,8.1093,8.1093,8.1093,8.1093,8.1093,8.1093,8.1093,8.1093,4.0656,4.4712,4.9058,5.1225,5.498,5.9067,6.2715,6.4783,6.7101,7.1258,7.1668,7.1745,7.3129,7.3437,7.443,7.7215,7.9092,8.0439,8.1016,8.1554,8.2016,8.2285,8.2601,8.2909,8.3178,8.2947,8.2793,8.2793,8.2793,8.2562,8.1939,8.19,8.167,8.1131,8.1093,8.1093,8.1093,8.1093,8.1093,8.1093,8.1093,8.1093,8.1093,8.1093,8.1093,8.1093,8.1093,8.1093,8.1093,8.1093,8.1093,8.1093,8.1093,8.1093,8.1093,8.1093,8.1093,8.1093,8.1093,8.1093,8.1093,8.1093,8.1093,8.1093,8.1093,8.1093,8.1093,8.1093,8.1093,8.1093,8.1093,8.1093,8.1093,8.1093,8.1093,8.1093,8.1093,8.1093,8.1093,8.1093,8.1093,8.1093,8.1093,8.1093,8.1093,8.1093,8.1093,8.1093,8.1093,8.1093,8.1093,8.1093,8.1093,8.1093,8.1093,8.1093,8.1093,8.1093,8.1093,8.1093,8.1093,8.1093,8.1093,8.1093,8.1093,8.1093,8.1093,8.1093,8.1093,8.1093,8.1093,8.1093,4.3248,4.5907,4.9276,5.2681,5.6668,6.1326,6.7299,6.7332,6.8237,7.5796,7.4637,7.3021,7.5553,7.4661,7.463,7.7946,7.9939,8.1093,8.1093,8.1093,8.14,8.217,8.1593,8.14,8.2208,8.1554,8.1093,8.1093,8.1093,8.1093,8.1093,8.1093,8.1093,8.1093,8.1093,8.1093,8.1093,8.1093,8.1093,8.1093,8.1093,8.1093,8.1093,8.1093,8.1093,8.1093,8.1093,8.1093,8.1093,8.1093,8.1093,8.1093,8.1093,8.1093,8.1093,8.1093,8.1093,8.1093,8.1093,8.1093,8.1093,8.1093,8.1093,8.1093,8.1093,8.1093,8.1093,8.1093,8.1093,8.1093,8.1093,8.1093,8.1093,8.1093,8.1093,8.1093,8.1093,8.1093,8.1093,8.1093,8.1093,8.1093,8.1093,8.1093,8.1093,8.1093,8.1093,8.1093,8.1093,8.1093,8.1093,8.1093,8.1093,8.1093,8.1093,8.1093,8.1093,8.1093,8.1093,8.1093,8.1093,8.1093,8.1093,8.1093,8.1093,8.1093,8.1093,8.1093,8.1093,8.1093,8.1093,8.1093,4.2882,4.7185,5.2644,5.5397,6.1016,6.6915,7.1075,7.2077,7.3591,7.8876,7.8176,7.6868,7.7638,7.6899,7.6669,7.8253,7.9438,8.04,8.1016,8.1093,8.1208,8.1439,8.1246,8.1208,8.1439,8.1246,8.1093,8.1093,8.1093,8.1093,8.1093,8.1093,8.1093,8.1093,8.1093,8.1093,8.1093,8.1093,8.1093,8.1093,8.1093,8.1093,8.1093,8.1093,8.1093,8.1093,8.1093,8.1093,8.1093,8.1093,8.1093,8.1093,8.1093,8.1093,8.1093,8.1093,8.1093,8.1093,8.1093,8.1093,8.1093,8.1093,8.1093,8.1093,8.1093,8.1093,8.1093,8.1093,8.1093,8.1093,8.1093,8.1093,8.1093,8.1093,8.1093,8.1093,8.1093,8.1093,8.1093,8.1093,8.1093,8.1093,8.1093,8.1093,8.1093,8.1093,8.1093,8.1093,8.1093,8.1093,8.1093,8.1093,8.1093,8.1093,8.1093,8.1093,8.1093,8.1093,8.1093,8.1093,8.1093,8.1093,8.1093,8.1093,8.1093,8.1093,8.1093,8.1093,8.1093,8.1093,8.1093,8.1093,4.6007,5.0901,5.6665,5.9871,6.4829,7.0084,7.4476,7.613,7.7546,8.0516,7.9438,7.833,7.9369,7.833,7.7792,7.9285,7.9977,8.0516,8.1016,8.1093,8.1093,8.1093,8.1093,8.1093,8.1093,8.1093,8.1093,8.1093,8.1093,8.1093,8.1093,8.1093,8.1093,8.1093,8.1093,8.1093,8.1093,8.1093,8.1093,8.1093,8.1093,8.1093,8.1093,8.1093,8.1093,8.1093,8.1093,8.1093,8.1093,8.1093,8.1093,8.1093,8.1093,8.1093,8.1093,8.1093,8.1093,8.1093,8.1093,8.1093,8.1093,8.1093,8.1093,8.1093,8.1093,8.1093,8.1093,8.1093,8.1093,8.1093,8.1093,8.1093,8.1093,8.1093,8.1093,8.1093,8.1093,8.1093,8.1093,8.1093,8.1093,8.1093,8.1093,8.1093,8.1093,8.1093,8.1093,8.1093,8.1093,8.1093,8.1093,8.1093,8.1093,8.1093,8.1093,8.1093,8.1093,8.1093,8.1093,8.1093,8.1093,8.1093,8.1093,8.1093,8.1093,8.1093,8.1093,8.1093,8.1093,8.1093,8.1093,8.1093,5.0728,5.5504,6.0458,6.4903,6.8205,7.1822,7.7253,7.9092,7.9931,8.09,7.9246,7.8369,8.0669,7.9208,7.8407,8.0708,8.1093,8.1093,8.1093,8.1093,8.1093,8.1093,8.1093,8.1093,8.1093,8.1093,8.1093,8.1093,8.1093,8.1093,8.1093,8.1093,8.1093,8.1093,8.1093,8.1093,8.1093,8.1093,8.1093,8.1093,8.1093,8.1093,8.1093,8.1093,8.1093,8.1093,8.1093,8.1093,8.1093,8.1093,8.1093,8.1093,8.1093,8.1093,8.1093,8.1093,8.1093,8.1093,8.1093,8.1093,8.1093,8.1093,8.1093,8.1093,8.1093,8.1093,8.1093,8.1093,8.1093,8.1093,8.1093,8.1093,8.1093,8.1093,8.1093,8.1093,8.1093,8.1093,8.1093,8.1093,8.1093,8.1093,8.1093,8.1093,8.1093,8.1093,8.1093,8.1093,8.1093,8.1093,8.1093,8.1093,8.1093,8.1093,8.1093,8.1093,8.1093,8.1093,8.1093,8.1093,8.1093,8.1093,8.1093,8.1093,8.1093,8.1093,8.1093,8.1093,8.1093,8.1093,8.1093,8.1093,4.8734,5.3799,5.9953,6.5485,7.129,7.6176,7.8061,7.8638,7.9208,8.0785,8.0669,8.0439,8.1016,8.0631,8.0477,8.1016,8.1093,8.1093,8.1093,8.1093,8.1093,8.1093,8.1093,8.1093,8.1093,8.1093,8.1093,8.1093,8.1093,8.1093,8.1093,8.1093,8.1093,8.1093,8.1093,8.1093,8.1093,8.1093,8.1093,8.1093,8.1093,8.1093,8.1093,8.1093,8.1093,8.1093,8.1093,8.1093,8.1093,8.1093,8.1093,8.1093,8.1093,8.1093,8.1093,8.1093,8.1093,8.1093,8.1093,8.1093,8.1093,8.1093,8.1093,8.1093,8.1093,8.1093,8.1093,8.1093,8.1093,8.1093,8.1093,8.1093,8.1093,8.1093,8.1093,8.1093,8.1093,8.1093,8.1093,8.1093,8.1093,8.1093,8.1093,8.1093,8.1093,8.1093,8.1093,8.1093,8.1093,8.1093,8.1093,8.1093,8.1093,8.1093,8.1093,8.1093,8.1093,8.1093,8.1093,8.1093,8.1093,8.1093,8.1093,8.1093,8.1093,8.1093,8.1093,8.1093,8.1093,8.1093,8.1093,8.1093,4.9614,5.4734,6.0703,6.7763,7.3137,7.6899,7.7715,7.8215,7.8754,7.9677,8.0208,8.0477,8.0477,8.0823,8.1093,8.1093,8.1093,8.1093,8.1093,8.1093,8.1093,8.1093,8.1093,8.1093,8.1093,8.1093,8.1093,8.1093,8.1093,8.1093,8.1093,8.1093,8.1093,8.1093,8.0775,8.0617,8.0617,8.0617,8.0617,8.0626,8.0959,8.1093,8.1093,8.1093,8.1093,8.1093,8.1093,8.1093,8.1093,8.1093,8.1093,8.1093,8.1093,8.1093,8.1093,8.1093,8.1093,8.1093,8.1093,8.1093,8.1093,8.1093,8.1093,8.1093,8.1093,8.1093,8.1093,8.1093,8.1093,8.1016,8.0592,8.0477,8.0362,7.9939,8.0477,8.1093,8.1093,8.1093,8.1093,8.1093,8.1093,8.1093,8.1093,8.1093,8.1093,8.1093,8.1093,8.1093,8.1093,8.1093,8.1093,8.1093,8.1093,8.1093,8.1093,8.1093,8.1093,8.1093,8.1093,8.1093,8.1093,8.1093,8.1093,8.1093,8.1093,8.1093,8.1093,8.1093,8.1093,8.1093,8.1093,8.1093,4.9449,5.5374,6.1623,6.9759,7.3553,7.5553,7.6438,7.7292,7.783,7.783,7.8784,7.9592,7.9592,8.0169,8.0631,8.0631,8.0631,8.0631,8.0631,8.0631,8.0631,8.0631,8.0785,8.09,8.09,8.1016,8.1093,8.1093,8.1093,8.1093,8.1093,8.1093,8.1093,8.1093,8.0454,8.0115,8.0115,7.9989,7.9939,7.9949,8.049,8.083,8.0904,8.083,8.088,8.1093,8.1093,8.1016,8.09,8.09,8.0785,8.0631,8.0631,8.0631,8.0631,8.0631,8.0631,8.0631,8.0631,8.0746,8.0862,8.0708,8.0862,8.1054,8.0746,8.0746,8.0823,8.0669,8.0631,8.0477,7.9746,7.9592,7.94,7.8677,7.96,8.0669,8.0823,8.09,8.09,8.09,8.09,8.0823,8.0669,8.09,8.1054,8.09,8.09,8.09,8.09,8.0746,8.0631,8.0631,8.0785,8.09,8.09,8.1016,8.1093,8.1093,8.1093,8.1093,8.1093,8.1093,8.1093,8.1093,8.1093,8.1093,8.1093,8.1093,8.1093,8.1093,8.1093,8.1093,4.2479,5.126,6.1206,6.8289,7.136,7.2944,7.3815,7.463,7.5207,7.5207,7.7053,7.8677,7.8677,7.8754,7.8869,7.8869,7.8869,7.8869,7.8869,7.8869,7.8869,7.8869,7.9515,7.9969,7.9969,8.0669,8.1093,8.1093,8.1093,8.1093,8.1093,8.1093,8.1093,8.1093,8.0454,8.0115,8.0115,7.9578,7.9324,7.9324,7.9403,7.9744,8.0201,7.9712,8.0056,8.1093,8.1093,8.0669,7.9969,7.9969,7.9515,7.8869,7.8869,7.8869,7.8869,7.8869,7.8869,7.8869,7.8869,7.9323,7.9862,7.91,7.9869,8.0823,7.9331,7.9361,7.9823,7.9054,7.8869,7.883,7.8715,7.8677,7.8638,7.8523,7.8677,7.9061,7.9823,7.9969,7.9969,7.9969,7.9969,7.9746,7.8984,8.0092,8.0823,8.0092,7.9969,7.9969,7.9969,7.9323,7.8869,7.8869,7.9515,7.9969,7.9969,8.0669,8.1093,8.1093,8.1093,8.1093,8.1093,8.1093,8.1093,8.1093,8.1093,8.1093,8.1093,8.1093,8.1093,8.1093,8.1093,8.1093,4.4759,5.2338,5.9748,6.6551,6.9167,7.0552,7.236,7.3053,7.3437,7.393,7.4938,7.613,7.7561,7.8215,7.8484,7.8484,7.8484,7.8484,7.8484,7.8484,7.8484,7.8484,7.8823,7.9054,7.9054,7.94,7.9638,7.9638,7.9638,7.9638,7.9638,7.9377,7.9203,7.9203,7.8234,7.776,7.776,7.7476,7.7524,7.7847,7.7847,7.7981,7.8255,7.7959,7.8594,7.9884,7.9884,7.956,7.9054,7.9054,7.8869,7.8484,7.8484,7.8484,7.8484,7.8484,7.8484,7.8484,7.8484,7.8754,7.9015,7.8638,7.9023,7.9485,7.8715,7.8754,7.8977,7.86,7.8484,7.8407,7.7946,7.783,7.7715,7.7215,7.7484,7.7792,7.7707,7.84,7.9054,7.9054,7.9054,7.8938,7.8561,7.9138,7.9515,7.9131,7.9054,7.9054,7.9054,7.8754,7.8484,7.8484,7.8823,7.9054,7.9054,7.94,7.9638,7.9638,7.9638,7.9862,8.0362,8.0362,8.0592,8.1093,8.1093,8.1093,8.1093,8.1093,8.1093,8.1093,8.1093,8.1093,4.5054,5.0628,5.5208,6.2403,6.5359,6.7205,6.9975,7.0937,7.1552,7.2622,7.3007,7.3822,7.5938,7.6976,7.7515,7.7515,7.7715,7.7869,7.7869,7.7869,7.7869,7.7869,7.8061,7.8215,7.8215,7.8369,7.8484,7.8484,7.8484,7.8484,7.8484,7.8002,7.7712,7.7712,7.6543,7.5889,7.5889,7.5742,7.5979,7.6575,7.6411,7.6411,7.6575,7.6399,7.6881,7.7831,7.8202,7.8141,7.7743,7.7743,7.7628,7.7437,7.7437,7.7437,7.7437,7.7437,7.7437,7.7453,7.7598,7.7689,7.7747,7.7839,7.807,7.8238,7.7954,7.7916,7.7969,7.7877,7.7754,7.7546,7.7108,7.6984,7.683,7.613,7.6515,7.6861,7.6438,7.733,7.8138,7.7907,7.8061,7.8138,7.7907,7.8215,7.8446,7.8215,7.8215,7.8215,7.8215,7.7984,7.7869,7.7869,7.8061,7.8215,7.8215,7.8369,7.8484,7.8484,7.8484,7.8792,7.9438,7.9477,7.9862,8.0746,8.0785,8.09,8.1093,8.1093,8.1093,8.1093,8.1093,8.1093,3.8054,4.1878,4.5817,5.4208,5.8748,6.2089,6.548,6.7475,6.9045,7.0706,7.1706,7.2552,7.3507,7.4353,7.4892,7.4892,7.5592,7.613,7.613,7.613,7.613,7.613,7.6868,7.7369,7.7369,7.8061,7.8484,7.8484,7.8484,7.8484,7.8484,7.8002,7.7712,7.7712,7.6543,7.5889,7.5889,7.5281,7.5309,7.5941,7.5286,7.5328,7.5928,7.5272,7.4922,7.4897,7.6285,7.6452,7.5658,7.5658,7.5194,7.4503,7.4503,7.4503,7.4503,7.4503,7.4503,7.4577,7.5094,7.5446,7.5725,7.603,7.6865,7.7526,7.6479,7.632,7.6456,7.6217,7.5737,7.5395,7.5918,7.6053,7.6053,7.6015,7.6015,7.6284,7.7061,7.7292,7.7138,7.6284,7.6791,7.7099,7.6284,7.7445,7.8253,7.7484,7.7369,7.7369,7.7369,7.663,7.613,7.613,7.6868,7.7369,7.7369,7.8061,7.8484,7.8484,7.8484,7.8523,7.8561,7.8561,7.8977,7.9854,7.9854,8.0285,8.1093,8.1093,8.1093,8.1093,8.1093,8.1093,3.6434,3.9926,4.3773,5.0087,5.4631,5.828,6.1127,6.4397,6.7128,6.825,6.9167,7.0014,7.0898,7.2622,7.393,7.393,7.4199,7.4392,7.4392,7.4392,7.4392,7.4392,7.513,7.563,7.563,7.6399,7.6725,7.6335,7.631,7.618,7.5827,7.5259,7.4937,7.4937,7.4144,7.373,7.373,7.3484,7.3484,7.373,7.347,7.3484,7.3716,7.347,7.3337,7.3273,7.3795,7.43,7.4719,7.4719,7.4568,7.4293,7.4293,7.4293,7.4293,7.4293,7.4293,7.4326,7.4537,7.4664,7.4746,7.4873,7.5177,7.5446,7.5018,7.4977,7.5018,7.4942,7.4749,7.4649,7.4837,7.4924,7.4924,7.4924,7.5083,7.5339,7.5787,7.6186,7.6361,7.6053,7.6245,7.6361,7.6053,7.6515,7.6784,7.6515,7.6476,7.6476,7.6476,7.6207,7.6015,7.6015,7.6284,7.6476,7.6476,7.6746,7.6899,7.6899,7.6899,7.7138,7.7715,7.7715,7.8138,7.8938,7.9515,8.0239,8.1093,8.1093,8.1093,8.1093,8.1093,8.1093,3.3584,3.6881,4.1042,4.6701,5.0014,5.3203,5.8319,6.1281,6.348,6.5436,6.6744,6.7821,6.8667,7.0437,7.2084,7.293,7.3315,7.3507,7.3507,7.3507,7.3507,7.3507,7.3969,7.4315,7.4315,7.4822,7.4927,7.4305,7.4261,7.4125,7.3873,7.3311,7.3042,7.3093,7.2728,7.2496,7.2496,7.2496,7.2496,7.2496,7.2496,7.2496,7.2496,7.2496,7.2496,7.2496,7.2496,7.2943,7.3712,7.3712,7.3712,7.3712,7.3712,7.3712,7.3712,7.3712,7.3712,7.3711,7.3923,7.3865,7.3747,7.4161,7.4161,7.4038,7.4239,7.4161,7.4038,7.4239,7.415,7.4049,7.4249,7.4293,7.4293,7.4293,7.4458,7.4662,7.478,7.5468,7.6015,7.6015,7.6015,7.6015,7.6015,7.6015,7.6015,7.6015,7.6015,7.6015,7.6015,7.6015,7.6015,7.6015,7.6015,7.6015,7.6015,7.6015,7.6015,7.6015,7.6015,7.6245,7.6823,7.6868,7.7246,7.8099,7.8669,7.9361,8.0208,8.0516,8.0823,8.1093,8.0785,8.0823,0.0,0.0,0.0,4.3666,4.4744,4.6855,5.6819,5.7901,5.8017,6.2275,6.4512,6.5942,6.6865,6.7705,6.9122,7.1636,7.2783,7.3392,7.343,7.343,7.343,7.343,7.343,7.3469,7.3469,7.3469,7.3231,7.2609,7.2574,7.269,7.2897,7.2414,7.224,7.24,7.2459,7.2459,7.2459,7.2496,7.2496,7.2496,7.2496,7.2496,7.2496,7.2496,7.2496,7.2496,7.2496,7.2496,7.2496,7.2496,7.2496,7.2496,7.2496,7.2496,7.2496,7.2496,7.2496,7.2559,7.3172,7.2997,7.27,7.3853,7.3853,7.3492,7.4072,7.3829,7.3504,7.4083,7.3818,7.3516,7.4094,7.4249,7.4249,7.4249,7.426,7.4271,7.4271,7.5176,7.5939,7.5939,7.5939,7.5939,7.5939,7.5954,7.5954,7.5947,7.5954,7.5962,7.5962,7.5962,7.5962,7.6015,7.6015,7.6015,7.6015,7.6015,7.6015,7.6015,7.6015,7.6015,7.6015,7.6015,7.6399,7.7253,7.7292,7.7676,7.8484,7.9323,8.0208,8.1016,8.0169,8.0208,3.0736,0.0,0.0,0.0,0.0,0.0,4.8399,5.1015,5.3823,5.8665,6.0083,6.1396,6.4705,6.5474,6.6282,6.8212,6.9783,7.0937,7.1552,7.1629,7.1629,7.1629,7.2168,7.2552,7.2552,7.3129,7.3069,7.2108,7.2011,7.1697,7.0928,7.0753,7.0698,7.0748,7.1321,7.1637,7.1637,7.2202,7.2496,7.2496,7.2496,7.2496,7.2496,7.2496,7.2496,7.2496,7.2496,7.2496,7.2496,7.2496,7.2496,7.2496,7.2496,7.2496,7.2496,7.2496,7.2496,7.2524,7.27,7.263,7.2567,7.2899,7.2899,7.2775,7.2943,7.2899,7.2775,7.2943,7.2885,7.2789,7.2943,7.2997,7.2997,7.2997,7.3315,7.3638,7.3638,7.4249,7.4759,7.4759,7.4759,7.4759,7.4759,7.5101,7.5219,7.4808,7.5111,7.5332,7.5332,7.5332,7.5535,7.5947,7.6015,7.6015,7.6015,7.6015,7.6015,7.6015,7.6015,7.6015,7.6015,7.6015,7.6092,7.6361,7.6984,7.7407,7.7638,7.8446,7.8984,7.9215,7.8984,7.8984,0.0,3.5465,3.8738,3.9508,0.0,0.0,4.7009,4.8399,4.9899,5.4659,5.6467,5.8088,6.0896,6.2281,6.3551,6.5243,6.6974,6.8513,6.9706,6.986,6.986,6.986,7.0629,7.1074,7.0799,7.1768,7.1838,7.0503,7.0621,7.0425,6.9642,6.9926,7.011,7.011,7.055,7.094,7.1307,7.1784,7.2165,7.2496,7.2496,7.2496,7.2496,7.2496,7.2496,7.2496,7.2496,7.2496,7.2496,7.2496,7.2496,7.2496,7.2496,7.2496,7.2496,7.2496,7.2496,7.2496,7.2496,7.2496,7.2496,7.2496,7.2496,7.2496,7.2496,7.2496,7.2496,7.2496,7.2496,7.2496,7.2496,7.2496,7.2496,7.2496,7.2761,7.3037,7.3037,7.3277,7.3687,7.4206,7.4293,7.4293,7.4293,7.4568,7.468,7.4347,7.4578,7.4779,7.4779,7.4779,7.4895,7.5257,7.5292,7.5292,7.5292,7.5292,7.5292,7.5292,7.5292,7.5292,7.5292,7.5292,7.5417,7.5608,7.6114,7.6509,7.6746,7.7599,7.7984,7.8023,7.833,7.8484,3.6927,3.82,0.0,4.4359,4.2128,0.0,4.8889,4.7894,4.6398,5.0274,5.2779,5.467,5.5939,5.8094,6.0242,6.1891,6.382,6.582,6.793,6.8353,6.8391,6.8391,6.9084,6.9344,6.882,6.9818,6.9911,6.8406,6.8725,6.8918,6.8769,6.9449,6.9816,6.9816,6.9926,7.033,7.1013,7.1123,7.1564,7.2386,7.2275,7.2349,7.2496,7.2422,7.2422,7.2496,7.2496,7.2496,7.2496,7.2496,7.2496,7.2496,7.2496,7.2496,7.2496,7.2496,7.2496,7.2496,7.2496,7.2496,7.2496,7.2496,7.2496,7.2496,7.2496,7.2496,7.2496,7.2496,7.2496,7.2496,7.2496,7.2496,7.2496,7.2496,7.2496,7.2496,7.2496,7.2496,7.2816,7.3888,7.4094,7.4094,7.4094,7.415,7.4172,7.4105,7.4161,7.4194,7.4194,7.4194,7.4228,7.4282,7.4293,7.4293,7.4293,7.4293,7.4293,7.4293,7.4293,7.4293,7.4293,7.4293,7.4537,7.5008,7.5073,7.5404,7.6015,7.6784,7.7176,7.7176,7.7907,7.8215,4.1619,4.3427,4.5778,4.3196,4.435,0.0,4.3243,4.3166,4.4008,4.547,4.5663,4.6663,5.0207,5.1861,5.3208,5.489,5.778,6.155,6.6628,6.7975,6.8391,6.8391,6.8545,6.8595,6.8482,6.8357,6.7918,6.7176,6.71,6.7314,6.7898,6.8068,6.8178,6.8178,6.8788,6.9229,6.9376,7.0,7.0734,7.1527,7.0881,7.1248,7.2496,7.1821,7.1894,7.2496,7.2496,7.2496,7.2496,7.2496,7.2496,7.2496,7.2496,7.2496,7.2496,7.2496,7.2496,7.2496,7.2496,7.2496,7.2496,7.2496,7.2496,7.2496,7.2496,7.2496,7.2496,7.2496,7.2496,7.2496,7.2496,7.2496,7.2496,7.2496,7.2496,7.2496,7.2496,7.2496,7.2582,7.2803,7.2858,7.2858,7.2858,7.3263,7.3417,7.2916,7.3275,7.359,7.359,7.359,7.3758,7.4249,7.4293,7.4293,7.4293,7.4293,7.4293,7.4293,7.4293,7.4293,7.4293,7.4293,7.4347,7.4464,7.4895,7.5404,7.6015,7.6169,7.6245,7.6245,7.6399,7.6476,4.5389,4.6197,4.7812,4.6547,4.6201,0.0,0.0,4.3662,4.3158,4.5663,4.4547,4.4393,4.8625,4.9394,5.0087,5.2197,5.5049,5.805,6.1018,6.3974,6.5853,6.5853,6.6237,6.655,6.6708,6.7084,6.7215,6.6843,6.6229,6.6072,6.6476,6.688,6.7113,6.7113,6.7871,6.8495,6.8885,6.9302,6.9926,7.0697,7.0293,7.0513,7.1284,7.0881,7.0917,7.1321,7.1711,7.1894,7.1931,7.2349,7.2496,7.2496,7.2496,7.2496,7.2496,7.2496,7.2496,7.2496,7.2496,7.2496,7.2496,7.2496,7.2496,7.2496,7.2496,7.2496,7.2496,7.2496,7.2496,7.2496,7.2496,7.2496,7.2496,7.2496,7.2496,7.2496,7.2496,7.2496,7.2496,7.2496,7.2496,7.2496,7.2496,7.2733,7.2858,7.2553,7.2747,7.2943,7.2943,7.2943,7.309,7.3353,7.3391,7.3391,7.3391,7.3391,7.3391,7.3391,7.3391,7.3391,7.3391,7.3391,7.3554,7.3841,7.4672,7.5254,7.5559,7.5841,7.6015,7.6015,7.6015,7.6015,4.9197,4.9082,4.9971,5.0553,4.8706,4.7014,0.0,0.0,0.0,4.6086,4.447,4.3701,4.7278,4.7355,4.762,4.9851,5.2472,5.4164,5.401,5.8088,6.1275,6.1775,6.2891,6.37,6.3916,6.4695,6.5352,6.5877,6.4538,6.4077,6.5031,6.5668,6.6182,6.6476,6.715,6.7871,6.8678,6.8678,6.9082,6.9853,6.9706,6.9779,7.0073,6.9926,6.9963,7.0146,7.0793,7.105,7.1123,7.1762,7.2055,7.2055,7.2386,7.2496,7.2496,7.2496,7.2496,7.2496,7.2496,7.2496,7.2496,7.2496,7.2496,7.2496,7.2496,7.2496,7.2496,7.2496,7.2496,7.2496,7.2496,7.2496,7.2496,7.2496,7.2386,7.2275,7.2275,7.2165,7.2055,7.2055,7.2055,7.2129,7.2459,7.2496,7.2496,7.2496,7.2496,7.2496,7.2496,7.2496,7.2496,7.2496,7.2496,7.2496,7.2496,7.2496,7.2496,7.2496,7.2496,7.2496,7.2496,7.2496,7.2775,7.3391,7.4282,7.4867,7.51,7.5584,7.5902,7.6015,7.6015,7.6015,5.4126,5.4785,5.5131,5.1592,5.3131,5.3515,4.5624,0.0,4.5389,4.2051,0.0,4.1166,4.2427,0.0,0.0,4.3932,4.6855,4.8697,4.8005,5.0966,5.4044,5.628,5.8627,6.011,6.0107,5.8921,5.9436,6.2593,5.966,5.9648,6.3992,6.4323,6.5007,6.6439,6.6586,6.7026,6.7847,6.7847,6.8238,6.9045,6.8325,6.8728,7.0073,6.9376,6.9449,7.011,7.0183,7.022,7.022,7.033,7.0367,7.0513,7.1945,7.2496,7.2496,7.2496,7.2496,7.2496,7.2496,7.2496,7.2496,7.2496,7.2496,7.2496,7.2496,7.2496,7.2496,7.2496,7.2496,7.2496,7.2496,7.2496,7.2496,7.2496,7.1967,7.1454,7.1454,7.0881,7.0367,7.0367,7.0367,7.0844,7.2239,7.2496,7.2496,7.2496,7.2496,7.2496,7.2496,7.2496,7.2496,7.2496,7.2496,7.2496,7.2496,7.2496,7.2496,7.2496,7.2496,7.2496,7.2496,7.2496,7.2775,7.3391,7.3516,7.4101,7.51,7.5154,7.5463,7.6015,7.6015,7.6015,5.4203,5.4626,5.5016,5.2702,5.2746,5.2207,4.774,4.6047,4.5316,4.497,0.0,0.0,0.0,0.0,0.0,0.0,4.385,4.4158,4.3316,4.5278,4.8466,5.2967,5.4271,5.5564,5.7563,5.6882,5.7297,5.9731,5.754,5.7409,6.0382,6.2328,6.3649,6.4334,6.5742,6.6659,6.699,6.748,6.7884,6.8201,6.7847,6.8068,6.8692,6.8348,6.8398,6.8728,6.9192,6.9412,6.9449,6.9926,7.011,7.0183,7.0844,7.1394,7.1857,7.2349,7.2496,7.2496,7.2496,7.2496,7.2496,7.2496,7.2202,7.1784,7.1784,7.1468,7.1101,7.1101,7.1101,7.1101,7.1101,7.1101,7.1101,7.1101,7.0844,7.0587,7.0587,7.033,7.011,7.011,7.011,7.0293,7.0991,7.1101,7.1101,7.1101,7.1505,7.1784,7.1784,7.2202,7.2496,7.2496,7.2496,7.2496,7.2496,7.2496,7.2496,7.2496,7.2496,7.2496,7.2496,7.2496,7.2616,7.2848,7.3237,7.3638,7.4124,7.478,7.5245,7.5471,7.5833,7.6015,5.5011,5.5049,5.5126,5.3313,5.1933,5.0553,4.8783,4.6975,4.6009,4.7163,4.5547,0.0,0.0,0.0,4.182,4.2624,0.0,4.1427,4.0319,4.1243,4.3816,4.8582,5.0052,5.1851,5.4817,5.3805,5.4005,5.6509,5.4348,5.4337,5.7483,6.0089,6.1875,6.2756,6.4787,6.6035,6.6512,6.7076,6.748,6.77,6.77,6.77,6.77,6.77,6.77,6.7737,6.8311,6.8568,6.8605,6.9192,6.9463,6.9449,6.9669,7.0146,7.0756,7.1541,7.1835,7.1872,7.2092,7.2165,7.2114,7.1908,7.1468,7.0977,7.0977,7.055,7.011,7.011,7.011,7.011,7.011,7.011,7.011,7.011,6.9926,6.9779,6.9779,6.9596,6.9463,6.9463,6.9463,6.9463,6.9463,6.9816,7.011,7.011,7.0587,7.0977,7.0977,7.1674,7.2092,7.1872,7.2055,7.2092,7.1872,7.2055,7.2275,7.2496,7.2496,7.2496,7.2496,7.2496,7.2496,7.2496,7.293,7.325,7.3404,7.4245,7.4721,7.4914,7.5662,7.6015,5.8352,5.8165,5.7159,5.3005,5.1885,5.0774,4.6667,4.7552,4.8552,4.6167,4.7514,4.8437,4.609,4.4859,4.3662,0.0,4.1812,0.0,0.0,3.9396,4.0089,4.1927,4.6164,4.9657,5.1393,4.8036,4.7705,5.2533,4.8734,4.9334,5.6444,5.7666,5.9575,6.2683,6.3686,6.4897,6.6476,6.6512,6.6916,6.77,6.77,6.77,6.77,6.77,6.77,6.77,6.7737,6.7737,6.7737,6.7774,6.7774,6.7847,6.8641,6.8958,6.9082,6.9889,7.0183,7.0293,7.105,7.1344,7.1197,7.044,7.0146,7.0146,7.0146,7.011,7.011,7.011,7.011,7.011,7.011,7.011,7.011,7.011,6.9522,6.8935,6.8935,6.8311,6.7774,6.7774,6.7774,6.7774,6.7774,6.9059,7.011,7.011,7.011,7.0146,7.0146,7.083,7.105,7.0257,7.0866,7.1013,7.022,7.0866,7.1674,7.2459,7.2496,7.2496,7.2496,7.2496,7.2496,7.2496,7.251,7.2816,7.3404,7.3442,7.3758,7.4347,7.5476,7.6015,5.8352,5.8704,5.8204,5.4549,5.3197,5.1774,4.8086,4.8355,4.8668,4.6129,4.7629,4.8629,4.6052,4.4436,4.3124,0.0,4.0389,3.8696,0.0,3.7091,3.7869,3.9388,4.3799,4.6345,4.5334,4.5526,4.6567,4.8517,4.7931,4.9507,5.4168,5.6712,5.8988,6.1141,6.2536,6.3796,6.491,6.5962,6.6623,6.6916,6.7444,6.77,6.77,6.77,6.77,6.77,6.77,6.77,6.77,6.77,6.77,6.7737,6.7994,6.8091,6.8274,6.9596,7.011,7.0146,7.0403,7.0513,7.0477,7.0183,6.9743,6.9302,6.9302,6.8935,6.8508,6.8508,6.8508,6.8508,6.8508,6.8508,6.8508,6.8508,6.8311,6.8091,6.8091,6.7884,6.77,6.77,6.77,6.77,6.77,6.8141,6.8508,6.8508,6.8972,6.9302,6.9302,7.0,7.0403,7.011,7.033,7.0403,7.011,7.033,7.0624,7.0881,7.0917,7.0917,7.0917,7.1417,7.1711,7.1711,7.2239,7.2588,7.2803,7.3211,7.3516,7.3711,7.4516,7.4885,5.8601,5.8872,5.8463,5.5224,5.3995,5.2676,4.911,4.9449,4.9799,4.7226,4.8051,4.8951,4.7985,4.5283,4.2976,0.0,0.0,3.7475,0.0,3.6008,3.6691,3.7052,4.0793,4.3085,4.2422,4.2424,4.3458,4.5761,4.6089,4.7966,5.2113,5.539,5.8033,5.9893,6.1508,6.2915,6.4103,6.5118,6.5778,6.6072,6.688,6.726,6.7297,6.759,6.77,6.77,6.77,6.77,6.77,6.77,6.77,6.77,6.77,6.77,6.7847,6.8875,6.9412,6.9633,6.9339,6.9412,6.9633,6.9339,6.8898,6.8458,6.8458,6.8091,6.77,6.77,6.77,6.77,6.77,6.77,6.77,6.77,6.77,6.77,6.77,6.77,6.77,6.77,6.77,6.77,6.77,6.77,6.77,6.77,6.8128,6.8458,6.8458,6.9192,6.9559,6.9279,6.9486,6.9669,6.9669,6.9669,6.9816,7.0073,7.011,7.011,7.011,7.0587,7.0866,7.0866,7.1394,7.1651,7.1651,7.2321,7.2659,7.2672,7.333,7.3676]}]]